<?xml version='1.0' encoding='UTF-8'?><gpx version="1.1" creator="JPX - https://github.com/jenetics/jpx" xmlns="http://www.topografix.com/GPX/1/1"><trk><trkseg><trkpt lat="43.74551981698629" lon="7.400465501057797"><ele>487.99999999999994</ele><time>2026-04-24T12:53:17.001Z</time></trkpt><trkpt lat="43.7454572186597" lon="7.400406695778934"><ele>488.0</ele><time>2026-04-24T12:53:23.001Z</time></trkpt><trkpt lat="43.74543570887422" lon="7.400324094727566"><ele>487.99999999999994</ele><time>2026-04-24T12:53:31.001Z</time></trkpt><trkpt lat="43.745423059246505" lon="7.4002328357725595"><ele>487.99999999999994</ele><time>2026-04-24T12:53:38.001Z</time></trkpt><trkpt lat="43.74540321263528" lon="7.40014981627609"><ele>488.0</ele><time>2026-04-24T12:53:45.001Z</time></trkpt><trkpt lat="43.745388168122126" lon="7.400055377691287"><ele>487.99999999999994</ele><time>2026-04-24T12:53:51.001Z</time></trkpt><trkpt lat="43.74541424419993" lon="7.399973471870418"><ele>487.99999999999994</ele><time>2026-04-24T12:53:57.001Z</time></trkpt><trkpt lat="43.745414599360885" lon="7.399881143644404"><ele>487.99999999999994</ele><time>2026-04-24T12:54:03Z</time></trkpt><trkpt lat="43.74539848715" lon="7.399789690570375"><ele>488.0</ele><time>2026-04-24T12:54:10Z</time></trkpt><trkpt lat="43.74539978861288" lon="7.399687800394966"><ele>487.99999999999994</ele><time>2026-04-24T12:54:17Z</time></trkpt><trkpt lat="43.74540747531236" lon="7.3995839055969155"><ele>487.99999999999994</ele><time>2026-04-24T12:54:23Z</time></trkpt><trkpt lat="43.74538525970661" lon="7.3994877390803016"><ele>488.0</ele><time>2026-04-24T12:54:30Z</time></trkpt><trkpt lat="43.745374097330874" lon="7.399401309394818"><ele>487.99999999999994</ele><time>2026-04-24T12:54:36Z</time></trkpt><trkpt lat="43.74535103970211" lon="7.399312727215115"><ele>487.99999999999994</ele><time>2026-04-24T12:54:43Z</time></trkpt><trkpt lat="43.74535021388621" lon="7.39921545492663"><ele>488.16666666666663</ele><time>2026-04-24T12:54:50Z</time></trkpt><trkpt lat="43.74534930263434" lon="7.39912534233588"><ele>488.3333333333333</ele><time>2026-04-24T12:54:57Z</time></trkpt><trkpt lat="43.74528335808584" lon="7.399118714542952"><ele>488.5</ele><time>2026-04-24T12:55:06.001Z</time></trkpt><trkpt lat="43.745334186200786" lon="7.399073177082144"><ele>488.66666666666663</ele><time>2026-04-24T13:01:36.001Z</time></trkpt><trkpt lat="43.74539633460561" lon="7.399090860759019"><ele>488.8333333333333</ele><time>2026-04-24T13:01:38.001Z</time></trkpt><trkpt lat="43.74540480790881" lon="7.399211268275312"><ele>489.0</ele><time>2026-04-24T13:01:40.001Z</time></trkpt><trkpt lat="43.745410718627184" lon="7.399386751128511"><ele>489.0</ele><time>2026-04-24T13:01:42.001Z</time></trkpt><trkpt lat="43.74542079396851" lon="7.399495615276897"><ele>489.0</ele><time>2026-04-24T13:01:43.001Z</time></trkpt><trkpt lat="43.74540913640699" lon="7.399621905847647"><ele>489.0</ele><time>2026-04-24T13:01:44.001Z</time></trkpt><trkpt lat="43.74541661911149" lon="7.399743048245169"><ele>489.0</ele><time>2026-04-24T13:01:45.001Z</time></trkpt><trkpt lat="43.74542241279812" lon="7.3998368460221"><ele>489.0</ele><time>2026-04-24T13:01:46.001Z</time></trkpt><trkpt lat="43.745429674082175" lon="7.3999346005086695"><ele>489.0</ele><time>2026-04-24T13:01:47.001Z</time></trkpt><trkpt lat="43.74544027059638" lon="7.400044183308753"><ele>488.8333333333333</ele><time>2026-04-24T13:01:48.001Z</time></trkpt><trkpt lat="43.745467027175444" lon="7.400154535331835"><ele>488.66666666666663</ele><time>2026-04-24T13:01:49.001Z</time></trkpt><trkpt lat="43.74549430958174" lon="7.400262160961495"><ele>488.5</ele><time>2026-04-24T13:01:50.001Z</time></trkpt><trkpt lat="43.74553542845385" lon="7.400357253229487"><ele>488.3333333333333</ele><time>2026-04-24T13:01:51.001Z</time></trkpt><trkpt lat="43.745587708783425" lon="7.400435931905747"><ele>488.16666666666663</ele><time>2026-04-24T13:01:52.001Z</time></trkpt><trkpt lat="43.74563802983607" lon="7.400507995313301"><ele>488.0</ele><time>2026-04-24T13:01:53.001Z</time></trkpt><trkpt lat="43.74574928737202" lon="7.400615747780703"><ele>487.49999999999994</ele><time>2026-04-24T13:01:55.001Z</time></trkpt><trkpt lat="43.74582408283511" lon="7.400670851077053"><ele>487.0</ele><time>2026-04-24T13:01:56.001Z</time></trkpt><trkpt lat="43.74588920957223" lon="7.400716781757746"><ele>486.5</ele><time>2026-04-24T13:01:57.001Z</time></trkpt><trkpt lat="43.745979043405434" lon="7.400764744331624"><ele>486.0</ele><time>2026-04-24T13:01:59.001Z</time></trkpt><trkpt lat="43.746045050526604" lon="7.400790396324876"><ele>485.49999999999994</ele><time>2026-04-24T13:02:02.001Z</time></trkpt><trkpt lat="43.74611030542514" lon="7.400874130083194"><ele>485.0</ele><time>2026-04-24T13:02:06.001Z</time></trkpt><trkpt lat="43.74617221422498" lon="7.40084988965517"><ele>485.0</ele><time>2026-04-24T13:02:08.001Z</time></trkpt><trkpt lat="43.746293654609744" lon="7.40086124488116"><ele>485.0</ele><time>2026-04-24T13:02:10.001Z</time></trkpt><trkpt lat="43.746381526246395" lon="7.400914554279132"><ele>485.0</ele><time>2026-04-24T13:02:11.001Z</time></trkpt><trkpt lat="43.746468772130896" lon="7.400962877673615"><ele>485.0</ele><time>2026-04-24T13:02:12.001Z</time></trkpt><trkpt lat="43.74654751044699" lon="7.401021715974198"><ele>485.0</ele><time>2026-04-24T13:02:13.001Z</time></trkpt><trkpt lat="43.746631223109446" lon="7.40108736236181"><ele>485.0</ele><time>2026-04-24T13:02:14.001Z</time></trkpt><trkpt lat="43.74671472934483" lon="7.401177685769655"><ele>485.0</ele><time>2026-04-24T13:02:15.001Z</time></trkpt><trkpt lat="43.74680034270952" lon="7.401286115572563"><ele>485.0</ele><time>2026-04-24T13:02:16.001Z</time></trkpt><trkpt lat="43.74688450045948" lon="7.401378693374049"><ele>485.0</ele><time>2026-04-24T13:02:17.001Z</time></trkpt><trkpt lat="43.746971151936684" lon="7.401456876186728"><ele>485.0</ele><time>2026-04-24T13:02:18.001Z</time></trkpt><trkpt lat="43.7470624545319" lon="7.40151757971277"><ele>483.8333333333333</ele><time>2026-04-24T13:02:19.001Z</time></trkpt><trkpt lat="43.74715260914272" lon="7.401562637247775"><ele>482.66666666666663</ele><time>2026-04-24T13:02:20.001Z</time></trkpt><trkpt lat="43.74723813221297" lon="7.401604488818405"><ele>481.5</ele><time>2026-04-24T13:02:21.001Z</time></trkpt><trkpt lat="43.74731823524837" lon="7.401643726900664"><ele>480.33333333333337</ele><time>2026-04-24T13:02:22.001Z</time></trkpt><trkpt lat="43.747399775036925" lon="7.4016815488301315"><ele>479.1666666666667</ele><time>2026-04-24T13:02:23.001Z</time></trkpt><trkpt lat="43.74748257669808" lon="7.40172680481533"><ele>478.0</ele><time>2026-04-24T13:02:24.002Z</time></trkpt><trkpt lat="43.74756762293458" lon="7.401789640231777"><ele>478.0</ele><time>2026-04-24T13:02:25.002Z</time></trkpt><trkpt lat="43.74765027155353" lon="7.401867540361589"><ele>477.99999999999994</ele><time>2026-04-24T13:02:26.002Z</time></trkpt><trkpt lat="43.74773562587535" lon="7.401945103656751"><ele>477.99999999999994</ele><time>2026-04-24T13:02:27.002Z</time></trkpt><trkpt lat="43.7478189953364" lon="7.40203430024668"><ele>478.0</ele><time>2026-04-24T13:02:28.002Z</time></trkpt><trkpt lat="43.74790820852057" lon="7.402125171571077"><ele>478.0</ele><time>2026-04-24T13:02:29.002Z</time></trkpt><trkpt lat="43.748000474301804" lon="7.402211827476866"><ele>477.2</ele><time>2026-04-24T13:02:30.002Z</time></trkpt><trkpt lat="43.748098503344394" lon="7.402297394612211"><ele>476.4</ele><time>2026-04-24T13:02:31.002Z</time></trkpt><trkpt lat="43.74820963678385" lon="7.402372341189441"><ele>475.59999999999997</ele><time>2026-04-24T13:02:32.002Z</time></trkpt><trkpt lat="43.74831020324785" lon="7.402423372689141"><ele>474.79999999999995</ele><time>2026-04-24T13:02:33.002Z</time></trkpt><trkpt lat="43.748403809368234" lon="7.4024720792786285"><ele>474.0</ele><time>2026-04-24T13:02:34.002Z</time></trkpt><trkpt lat="43.74848589942367" lon="7.402514136504849"><ele>474.3333333333333</ele><time>2026-04-24T13:02:35.002Z</time></trkpt><trkpt lat="43.74855892343377" lon="7.402546208088144"><ele>474.66666666666663</ele><time>2026-04-24T13:02:36.002Z</time></trkpt><trkpt lat="43.74863367799752" lon="7.402575998215867"><ele>475.0</ele><time>2026-04-24T13:02:37.002Z</time></trkpt><trkpt lat="43.7487048994421" lon="7.4026063762113905"><ele>475.3333333333333</ele><time>2026-04-24T13:02:38.002Z</time></trkpt><trkpt lat="43.74878218954866" lon="7.40263755300253"><ele>475.66666666666663</ele><time>2026-04-24T13:02:39.002Z</time></trkpt><trkpt lat="43.748871486813364" lon="7.402678527602883"><ele>476.0</ele><time>2026-04-24T13:02:40.002Z</time></trkpt><trkpt lat="43.74897209495754" lon="7.402722387118945"><ele>476.0</ele><time>2026-04-24T13:02:41.002Z</time></trkpt><trkpt lat="43.74908861472683" lon="7.402766618409832"><ele>476.0</ele><time>2026-04-24T13:02:42.001Z</time></trkpt><trkpt lat="43.74921381489048" lon="7.402820320183827"><ele>476.0</ele><time>2026-04-24T13:02:43.001Z</time></trkpt><trkpt lat="43.74934105295535" lon="7.402871516644274"><ele>476.0</ele><time>2026-04-24T13:02:44.001Z</time></trkpt><trkpt lat="43.74945602379462" lon="7.402912840201833"><ele>477.16666666666663</ele><time>2026-04-24T13:02:45.001Z</time></trkpt><trkpt lat="43.74955852596992" lon="7.402945226732421"><ele>478.3333333333333</ele><time>2026-04-24T13:02:46.001Z</time></trkpt><trkpt lat="43.74963704542024" lon="7.402969702044754"><ele>479.5</ele><time>2026-04-24T13:02:47.001Z</time></trkpt><trkpt lat="43.74970051292786" lon="7.402985578407905"><ele>480.66666666666663</ele><time>2026-04-24T13:02:48.001Z</time></trkpt><trkpt lat="43.749769876360524" lon="7.403002313056418"><ele>481.8333333333333</ele><time>2026-04-24T13:02:49.001Z</time></trkpt><trkpt lat="43.74983667222362" lon="7.403018751967571"><ele>483.0</ele><time>2026-04-24T13:02:50.001Z</time></trkpt><trkpt lat="43.74990316446935" lon="7.4030321189504065"><ele>480.79999999999995</ele><time>2026-04-24T13:02:51.001Z</time></trkpt><trkpt lat="43.74998222478304" lon="7.40303172896292"><ele>478.59999999999997</ele><time>2026-04-24T13:02:52.001Z</time></trkpt><trkpt lat="43.7500773157215" lon="7.40304019569502"><ele>476.40000000000003</ele><time>2026-04-24T13:02:53.001Z</time></trkpt><trkpt lat="43.75017902679395" lon="7.403059104080141"><ele>474.20000000000005</ele><time>2026-04-24T13:02:54.001Z</time></trkpt><trkpt lat="43.75027118546675" lon="7.403084593733706"><ele>472.0</ele><time>2026-04-24T13:02:55.001Z</time></trkpt><trkpt lat="43.75035851835402" lon="7.403125935366501"><ele>472.0</ele><time>2026-04-24T13:02:56.001Z</time></trkpt><trkpt lat="43.75044169829381" lon="7.403171727120191"><ele>472.00000000000006</ele><time>2026-04-24T13:02:57.001Z</time></trkpt><trkpt lat="43.750518465685246" lon="7.403242745392435"><ele>472.00000000000006</ele><time>2026-04-24T13:02:58.001Z</time></trkpt><trkpt lat="43.75059293670987" lon="7.4033355907664005"><ele>472.0</ele><time>2026-04-24T13:02:59.001Z</time></trkpt><trkpt lat="43.75066655168086" lon="7.403447297566243"><ele>472.0</ele><time>2026-04-24T13:03:00.001Z</time></trkpt><trkpt lat="43.75072951742255" lon="7.403573102169173"><ele>472.0</ele><time>2026-04-24T13:03:01.001Z</time></trkpt><trkpt lat="43.75077424301383" lon="7.4037227435969495"><ele>472.0</ele><time>2026-04-24T13:03:02.001Z</time></trkpt><trkpt lat="43.750846150971" lon="7.403855897120601"><ele>472.0</ele><time>2026-04-24T13:03:03.001Z</time></trkpt><trkpt lat="43.75090771712013" lon="7.403996170158003"><ele>472.0</ele><time>2026-04-24T13:03:04.001Z</time></trkpt><trkpt lat="43.75097260436134" lon="7.404112122547307"><ele>474.40000000000003</ele><time>2026-04-24T13:03:05.001Z</time></trkpt><trkpt lat="43.75102955186945" lon="7.404229586500074"><ele>476.80000000000007</ele><time>2026-04-24T13:03:06.001Z</time></trkpt><trkpt lat="43.751068023501084" lon="7.404353260562974"><ele>479.2</ele><time>2026-04-24T13:03:07.001Z</time></trkpt><trkpt lat="43.75109508487976" lon="7.404479272254298"><ele>481.6</ele><time>2026-04-24T13:03:08.001Z</time></trkpt><trkpt lat="43.751086159224386" lon="7.404609672344002"><ele>484.0</ele><time>2026-04-24T13:03:09.001Z</time></trkpt><trkpt lat="43.75109355698648" lon="7.404731738801678"><ele>477.6</ele><time>2026-04-24T13:03:10.001Z</time></trkpt><trkpt lat="43.75103565387073" lon="7.40483102012701"><ele>471.2</ele><time>2026-04-24T13:03:11.001Z</time></trkpt><trkpt lat="43.75094731081846" lon="7.404883675991752"><ele>464.80000000000007</ele><time>2026-04-24T13:03:12.001Z</time></trkpt><trkpt lat="43.7508765969334" lon="7.404976089376824"><ele>458.40000000000003</ele><time>2026-04-24T13:03:13.001Z</time></trkpt><trkpt lat="43.750764754813446" lon="7.405039258388078"><ele>452.0</ele><time>2026-04-24T13:03:14.001Z</time></trkpt><trkpt lat="43.75067272476933" lon="7.405137742221379"><ele>452.0</ele><time>2026-04-24T13:03:15.001Z</time></trkpt><trkpt lat="43.7506074712391" lon="7.4052536306873815"><ele>452.0</ele><time>2026-04-24T13:03:16.001Z</time></trkpt><trkpt lat="43.75055918714417" lon="7.4053907449276135"><ele>452.0</ele><time>2026-04-24T13:03:17.001Z</time></trkpt><trkpt lat="43.75053456634084" lon="7.405551000166056"><ele>452.0</ele><time>2026-04-24T13:03:18.001Z</time></trkpt><trkpt lat="43.750530113473936" lon="7.405727841328094"><ele>456.25</ele><time>2026-04-24T13:03:19.001Z</time></trkpt><trkpt lat="43.7505273462436" lon="7.40591212141338"><ele>460.5</ele><time>2026-04-24T13:03:20.001Z</time></trkpt><trkpt lat="43.7504737172236" lon="7.406074089754252"><ele>464.75</ele><time>2026-04-24T13:03:21.001Z</time></trkpt><trkpt lat="43.75041409146538" lon="7.406225481002721"><ele>469.0</ele><time>2026-04-24T13:03:22.001Z</time></trkpt><trkpt lat="43.75034438848668" lon="7.406396832919147"><ele>470.25</ele><time>2026-04-24T13:03:23.001Z</time></trkpt><trkpt lat="43.7502953915181" lon="7.406591425063655"><ele>471.5</ele><time>2026-04-24T13:03:24.001Z</time></trkpt><trkpt lat="43.75023978747169" lon="7.406763409286174"><ele>472.75</ele><time>2026-04-24T13:03:25.001Z</time></trkpt><trkpt lat="43.75017545382637" lon="7.406913791276952"><ele>474.0</ele><time>2026-04-24T13:03:26.001Z</time></trkpt><trkpt lat="43.75008957205647" lon="7.407034544168549"><ele>469.79999999999995</ele><time>2026-04-24T13:03:27.001Z</time></trkpt><trkpt lat="43.749990397518424" lon="7.407110844327125"><ele>465.59999999999997</ele><time>2026-04-24T13:03:28.001Z</time></trkpt><trkpt lat="43.74987156478003" lon="7.407122785016492"><ele>461.4</ele><time>2026-04-24T13:03:29.001Z</time></trkpt><trkpt lat="43.7497970441228" lon="7.407215454826115"><ele>457.2</ele><time>2026-04-24T13:03:30.001Z</time></trkpt><trkpt lat="43.74973216516536" lon="7.407321775686479"><ele>453.0</ele><time>2026-04-24T13:03:31.001Z</time></trkpt><trkpt lat="43.749686039758494" lon="7.407455964449086"><ele>453.0</ele><time>2026-04-24T13:03:32.001Z</time></trkpt><trkpt lat="43.749650556957775" lon="7.407604513206041"><ele>453.0</ele><time>2026-04-24T13:03:33.001Z</time></trkpt><trkpt lat="43.74962514472905" lon="7.407764086948677"><ele>453.0</ele><time>2026-04-24T13:03:34.001Z</time></trkpt><trkpt lat="43.74961395249922" lon="7.407936583135868"><ele>453.0</ele><time>2026-04-24T13:03:35.001Z</time></trkpt><trkpt lat="43.74960429838769" lon="7.408108291280382"><ele>453.3333333333333</ele><time>2026-04-24T13:03:36.001Z</time></trkpt><trkpt lat="43.74959588667248" lon="7.40826492871094"><ele>453.66666666666663</ele><time>2026-04-24T13:03:37.001Z</time></trkpt><trkpt lat="43.74958760948152" lon="7.408402983496576"><ele>454.0</ele><time>2026-04-24T13:03:38.001Z</time></trkpt><trkpt lat="43.74958482871539" lon="7.408514017973177"><ele>454.3333333333333</ele><time>2026-04-24T13:03:39.001Z</time></trkpt><trkpt lat="43.74958453687974" lon="7.40862166563384"><ele>454.66666666666663</ele><time>2026-04-24T13:03:40.001Z</time></trkpt><trkpt lat="43.74958500165388" lon="7.408723797708395"><ele>455.0</ele><time>2026-04-24T13:03:41.001Z</time></trkpt><trkpt lat="43.7495864110179" lon="7.408824663282569"><ele>453.99999999999994</ele><time>2026-04-24T13:03:42.001Z</time></trkpt><trkpt lat="43.749588811051346" lon="7.408930413046932"><ele>453.0</ele><time>2026-04-24T13:03:43.001Z</time></trkpt><trkpt lat="43.74959355735759" lon="7.409040590867174"><ele>452.0</ele><time>2026-04-24T13:03:44.001Z</time></trkpt><trkpt lat="43.749598996372896" lon="7.409153792354321"><ele>451.0</ele><time>2026-04-24T13:03:45.001Z</time></trkpt><trkpt lat="43.749604546350085" lon="7.409273832213569"><ele>449.99999999999994</ele><time>2026-04-24T13:03:46.001Z</time></trkpt><trkpt lat="43.74961065878046" lon="7.409409543320403"><ele>449.0</ele><time>2026-04-24T13:03:47.001Z</time></trkpt><trkpt lat="43.74962521851027" lon="7.409559839729082"><ele>447.75</ele><time>2026-04-24T13:03:48.001Z</time></trkpt><trkpt lat="43.749642631673936" lon="7.409712327824153"><ele>446.5</ele><time>2026-04-24T13:03:49.001Z</time></trkpt><trkpt lat="43.749656076198036" lon="7.409856305554333"><ele>445.25</ele><time>2026-04-24T13:03:50.001Z</time></trkpt><trkpt lat="43.74968049633669" lon="7.410013621046259"><ele>444.0</ele><time>2026-04-24T13:03:51.001Z</time></trkpt><trkpt lat="43.74970515441791" lon="7.410184394352413"><ele>444.0</ele><time>2026-04-24T13:03:52.001Z</time></trkpt><trkpt lat="43.7497341972943" lon="7.410351582034893"><ele>444.0</ele><time>2026-04-24T13:03:53.001Z</time></trkpt><trkpt lat="43.74976990453121" lon="7.410511218505482"><ele>444.0</ele><time>2026-04-24T13:03:54.001Z</time></trkpt><trkpt lat="43.74981003511499" lon="7.410650263069604"><ele>444.0</ele><time>2026-04-24T13:03:55.001Z</time></trkpt><trkpt lat="43.74985041216085" lon="7.410764947609252"><ele>444.0</ele><time>2026-04-24T13:03:56.001Z</time></trkpt><trkpt lat="43.74989158573049" lon="7.410871098487682"><ele>442.2</ele><time>2026-04-24T13:03:57.001Z</time></trkpt><trkpt lat="43.749936918676774" lon="7.410973027651265"><ele>440.4</ele><time>2026-04-24T13:03:58.001Z</time></trkpt><trkpt lat="43.74998719252127" lon="7.411075130985839"><ele>438.6</ele><time>2026-04-24T13:03:59.001Z</time></trkpt><trkpt lat="43.75004882869647" lon="7.411191901803003"><ele>436.8</ele><time>2026-04-24T13:04:00.001Z</time></trkpt><trkpt lat="43.75012424123296" lon="7.411315744064022"><ele>435.0</ele><time>2026-04-24T13:04:01.001Z</time></trkpt><trkpt lat="43.75019468895585" lon="7.411436559511775"><ele>436.33333333333337</ele><time>2026-04-24T13:04:02.001Z</time></trkpt><trkpt lat="43.75025323927956" lon="7.411554389869902"><ele>437.6666666666667</ele><time>2026-04-24T13:04:03.001Z</time></trkpt><trkpt lat="43.7503023498469" lon="7.411665984637743"><ele>439.0</ele><time>2026-04-24T13:04:04.001Z</time></trkpt><trkpt lat="43.75063108596865" lon="7.412541090770865"><ele>439.00000000000006</ele><time>2026-04-24T13:04:12.001Z</time></trkpt><trkpt lat="43.75067295077196" lon="7.4126326378980725"><ele>439.0</ele><time>2026-04-24T13:04:13.001Z</time></trkpt><trkpt lat="43.750717800881986" lon="7.4127261622059555"><ele>439.0</ele><time>2026-04-24T13:04:14.001Z</time></trkpt><trkpt lat="43.75074533875217" lon="7.41282296039962"><ele>439.0</ele><time>2026-04-24T13:04:15.001Z</time></trkpt><trkpt lat="43.750762245481596" lon="7.4129208778631375"><ele>439.00000000000006</ele><time>2026-04-24T13:04:16.001Z</time></trkpt><trkpt lat="43.750787140909004" lon="7.4130321786791695"><ele>439.0</ele><time>2026-04-24T13:04:17.001Z</time></trkpt><trkpt lat="43.75082021322485" lon="7.413153052907308"><ele>436.5</ele><time>2026-04-24T13:04:18.001Z</time></trkpt><trkpt lat="43.75085254464912" lon="7.413286650594186"><ele>434.0</ele><time>2026-04-24T13:04:19.001Z</time></trkpt><trkpt lat="43.75087719140927" lon="7.413438460754104"><ele>431.5</ele><time>2026-04-24T13:04:20.001Z</time></trkpt><trkpt lat="43.750913598250506" lon="7.413612075340981"><ele>429.0</ele><time>2026-04-24T13:04:21.001Z</time></trkpt><trkpt lat="43.75095899559591" lon="7.413796434430355"><ele>426.25</ele><time>2026-04-24T13:04:22.001Z</time></trkpt><trkpt lat="43.75100504031399" lon="7.413968335590278"><ele>423.5</ele><time>2026-04-24T13:04:23.001Z</time></trkpt><trkpt lat="43.75105772723328" lon="7.414143231373151"><ele>420.75</ele><time>2026-04-24T13:04:24.001Z</time></trkpt><trkpt lat="43.75111253548197" lon="7.414320272356834"><ele>418.0</ele><time>2026-04-24T13:04:25.001Z</time></trkpt><trkpt lat="43.75116591221975" lon="7.4145003828217195"><ele>422.5</ele><time>2026-04-24T13:04:26.001Z</time></trkpt><trkpt lat="43.75121491469672" lon="7.414688494785626"><ele>427.0</ele><time>2026-04-24T13:04:27.001Z</time></trkpt><trkpt lat="43.75126780347177" lon="7.414876185549729"><ele>431.5</ele><time>2026-04-24T13:04:28.001Z</time></trkpt><trkpt lat="43.75132489454679" lon="7.4150664219657765"><ele>436.0</ele><time>2026-04-24T13:04:29.001Z</time></trkpt><trkpt lat="43.7513799565782" lon="7.415258137184396"><ele>436.0</ele><time>2026-04-24T13:04:30Z</time></trkpt><trkpt lat="43.751432722633055" lon="7.415452718536181"><ele>436.0</ele><time>2026-04-24T13:04:31Z</time></trkpt><trkpt lat="43.75148203124444" lon="7.4156521979131815"><ele>436.0</ele><time>2026-04-24T13:04:32Z</time></trkpt><trkpt lat="43.7515284001478" lon="7.41585153491921"><ele>433.5</ele><time>2026-04-24T13:04:33Z</time></trkpt><trkpt lat="43.75156554960722" lon="7.41604953353454"><ele>431.0</ele><time>2026-04-24T13:04:34Z</time></trkpt><trkpt lat="43.751600962989045" lon="7.416235815805155"><ele>428.5</ele><time>2026-04-24T13:04:35Z</time></trkpt><trkpt lat="43.75164197066917" lon="7.416411461297799"><ele>426.0</ele><time>2026-04-24T13:04:36Z</time></trkpt><trkpt lat="43.751694550935994" lon="7.416578817335883"><ele>429.0</ele><time>2026-04-24T13:04:37Z</time></trkpt><trkpt lat="43.75176283902648" lon="7.416728133983304"><ele>432.0</ele><time>2026-04-24T13:04:38Z</time></trkpt><trkpt lat="43.751850481279206" lon="7.416849933529659"><ele>435.0</ele><time>2026-04-24T13:04:39Z</time></trkpt><trkpt lat="43.75195296220554" lon="7.416956169077273"><ele>438.0</ele><time>2026-04-24T13:04:40Z</time></trkpt><trkpt lat="43.75205961331583" lon="7.417058355855075"><ele>432.25</ele><time>2026-04-24T13:04:41Z</time></trkpt><trkpt lat="43.75216705683959" lon="7.417164336915115"><ele>426.5</ele><time>2026-04-24T13:04:42Z</time></trkpt><trkpt lat="43.75227036189269" lon="7.417269788386945"><ele>420.75</ele><time>2026-04-24T13:04:43Z</time></trkpt><trkpt lat="43.752368413137326" lon="7.417370282893807"><ele>415.0</ele><time>2026-04-24T13:04:44Z</time></trkpt><trkpt lat="43.75246283997117" lon="7.417466370378076"><ele>415.0</ele><time>2026-04-24T13:04:45Z</time></trkpt><trkpt lat="43.75254942875161" lon="7.4175643645092615"><ele>415.0</ele><time>2026-04-24T13:04:46Z</time></trkpt><trkpt lat="43.75262513650623" lon="7.417668909990974"><ele>415.0</ele><time>2026-04-24T13:04:47Z</time></trkpt><trkpt lat="43.752679130050296" lon="7.41778868417583"><ele>415.0</ele><time>2026-04-24T13:04:48Z</time></trkpt><trkpt lat="43.752713873683476" lon="7.417914645581056"><ele>415.0</ele><time>2026-04-24T13:04:49Z</time></trkpt><trkpt lat="43.75273580902535" lon="7.418033242218664"><ele>413.33333333333337</ele><time>2026-04-24T13:04:50Z</time></trkpt><trkpt lat="43.752747071889694" lon="7.418146572031314"><ele>411.6666666666667</ele><time>2026-04-24T13:04:51Z</time></trkpt><trkpt lat="43.75273742152958" lon="7.418254743113001"><ele>410.0</ele><time>2026-04-24T13:04:52Z</time></trkpt><trkpt lat="43.75272106282818" lon="7.41836156378596"><ele>408.33333333333337</ele><time>2026-04-24T13:04:53Z</time></trkpt><trkpt lat="43.752702702032586" lon="7.418472998467055"><ele>406.6666666666667</ele><time>2026-04-24T13:04:54Z</time></trkpt><trkpt lat="43.752680090789596" lon="7.418593178814517"><ele>405.0</ele><time>2026-04-24T13:04:55Z</time></trkpt><trkpt lat="43.75264146774493" lon="7.418722952523381"><ele>405.5</ele><time>2026-04-24T13:04:56Z</time></trkpt><trkpt lat="43.75258834607029" lon="7.418858737486937"><ele>406.0</ele><time>2026-04-24T13:04:57Z</time></trkpt><trkpt lat="43.75251488240416" lon="7.418992479137396"><ele>406.5</ele><time>2026-04-24T13:04:58Z</time></trkpt><trkpt lat="43.75244108686503" lon="7.419118679059536"><ele>407.0</ele><time>2026-04-24T13:04:59Z</time></trkpt><trkpt lat="43.75238073997306" lon="7.419240127279282"><ele>407.0</ele><time>2026-04-24T13:05:00Z</time></trkpt><trkpt lat="43.752343335938214" lon="7.419374373926873"><ele>407.0</ele><time>2026-04-24T13:05:01Z</time></trkpt><trkpt lat="43.7523314494617" lon="7.419514881219283"><ele>407.0</ele><time>2026-04-24T13:05:02Z</time></trkpt><trkpt lat="43.75233910046632" lon="7.419656837178006"><ele>407.0</ele><time>2026-04-24T13:05:03Z</time></trkpt><trkpt lat="43.75236258409555" lon="7.419800266632192"><ele>407.0</ele><time>2026-04-24T13:05:04Z</time></trkpt><trkpt lat="43.75240170765088" lon="7.419943959364003"><ele>406.5</ele><time>2026-04-24T13:05:05Z</time></trkpt><trkpt lat="43.7524539950351" lon="7.420080331587669"><ele>406.0</ele><time>2026-04-24T13:05:06Z</time></trkpt><trkpt lat="43.752524328666766" lon="7.420199183382751"><ele>405.5</ele><time>2026-04-24T13:05:07Z</time></trkpt><trkpt lat="43.752609928823595" lon="7.420300519764687"><ele>405.0</ele><time>2026-04-24T13:05:08Z</time></trkpt><trkpt lat="43.752709005323815" lon="7.420385565909283"><ele>405.25</ele><time>2026-04-24T13:05:09Z</time></trkpt><trkpt lat="43.75281687309904" lon="7.420455227531739"><ele>405.5</ele><time>2026-04-24T13:05:10Z</time></trkpt><trkpt lat="43.75293213866521" lon="7.420510960779005"><ele>405.75</ele><time>2026-04-24T13:05:11Z</time></trkpt><trkpt lat="43.753044919185804" lon="7.42057378793699"><ele>406.0</ele><time>2026-04-24T13:05:12Z</time></trkpt><trkpt lat="43.75314726473005" lon="7.420648654125631"><ele>406.0</ele><time>2026-04-24T13:05:13Z</time></trkpt><trkpt lat="43.7532380493941" lon="7.420741109618282"><ele>406.0</ele><time>2026-04-24T13:05:14Z</time></trkpt><trkpt lat="43.753321560723165" lon="7.4208414576128305"><ele>406.0</ele><time>2026-04-24T13:05:15Z</time></trkpt><trkpt lat="43.753400526440686" lon="7.420941027529263"><ele>406.0</ele><time>2026-04-24T13:05:16Z</time></trkpt><trkpt lat="43.75347540850808" lon="7.4210493533804165"><ele>406.0</ele><time>2026-04-24T13:05:17Z</time></trkpt><trkpt lat="43.75354350876853" lon="7.421170054715797"><ele>404.5</ele><time>2026-04-24T13:05:18Z</time></trkpt><trkpt lat="43.75361634160531" lon="7.421287578527618"><ele>403.0</ele><time>2026-04-24T13:05:19Z</time></trkpt><trkpt lat="43.75369030794839" lon="7.421401217513593"><ele>401.5</ele><time>2026-04-24T13:05:20Z</time></trkpt><trkpt lat="43.753778949159376" lon="7.421506982521161"><ele>400.0</ele><time>2026-04-24T13:05:21Z</time></trkpt><trkpt lat="43.75387486053012" lon="7.421593266185325"><ele>400.0</ele><time>2026-04-24T13:05:22Z</time></trkpt><trkpt lat="43.75397806280108" lon="7.4216699842955185"><ele>400.0</ele><time>2026-04-24T13:05:23Z</time></trkpt><trkpt lat="43.754090335812954" lon="7.421736906245105"><ele>400.0</ele><time>2026-04-24T13:05:24Z</time></trkpt><trkpt lat="43.75421132191119" lon="7.4217974605809784"><ele>400.0</ele><time>2026-04-24T13:05:25Z</time></trkpt><trkpt lat="43.754341540387564" lon="7.421858689338697"><ele>396.5</ele><time>2026-04-24T13:05:26Z</time></trkpt><trkpt lat="43.75446561705807" lon="7.421936040713151"><ele>393.0</ele><time>2026-04-24T13:05:27Z</time></trkpt><trkpt lat="43.75457812664472" lon="7.422021697509821"><ele>389.5</ele><time>2026-04-24T13:05:28Z</time></trkpt><trkpt lat="43.75468827455954" lon="7.422103562601997"><ele>386.0</ele><time>2026-04-24T13:05:29Z</time></trkpt><trkpt lat="43.754793968183904" lon="7.422178993845803"><ele>386.0</ele><time>2026-04-24T13:05:30Z</time></trkpt><trkpt lat="43.75490071004552" lon="7.422248199605472"><ele>386.0</ele><time>2026-04-24T13:05:31Z</time></trkpt><trkpt lat="43.75500372435319" lon="7.422311567325428"><ele>386.0</ele><time>2026-04-24T13:05:32Z</time></trkpt><trkpt lat="43.75510367230116" lon="7.422377849410304"><ele>386.0</ele><time>2026-04-24T13:05:33Z</time></trkpt><trkpt lat="43.75519742671204" lon="7.422450555040998"><ele>386.0</ele><time>2026-04-24T13:05:34Z</time></trkpt><trkpt lat="43.75529051405311" lon="7.422521329997114"><ele>392.0</ele><time>2026-04-24T13:05:35Z</time></trkpt><trkpt lat="43.75538518231017" lon="7.422588909421245"><ele>398.0</ele><time>2026-04-24T13:05:36Z</time></trkpt><trkpt lat="43.755478636782655" lon="7.422656044674676"><ele>404.0</ele><time>2026-04-24T13:05:37Z</time></trkpt><trkpt lat="43.755569353633184" lon="7.422742304588615"><ele>410.0</ele><time>2026-04-24T13:05:38Z</time></trkpt><trkpt lat="43.75565107647469" lon="7.42284841950994"><ele>416.0</ele><time>2026-04-24T13:05:39Z</time></trkpt><trkpt lat="43.755732283251845" lon="7.4229681727091466"><ele>418.0</ele><time>2026-04-24T13:05:40Z</time></trkpt><trkpt lat="43.755811562500874" lon="7.4230777599640705"><ele>420.0</ele><time>2026-04-24T13:05:41Z</time></trkpt><trkpt lat="43.755886834528695" lon="7.423185332868427"><ele>422.0</ele><time>2026-04-24T13:05:42Z</time></trkpt><trkpt lat="43.755963371100435" lon="7.423279433805421"><ele>424.0</ele><time>2026-04-24T13:05:43Z</time></trkpt><trkpt lat="43.75604063142313" lon="7.42337375708724"><ele>426.0</ele><time>2026-04-24T13:05:44Z</time></trkpt><trkpt lat="43.75611471812274" lon="7.4234671335787645"><ele>426.0</ele><time>2026-04-24T13:05:45Z</time></trkpt><trkpt lat="43.75618110543816" lon="7.423565123016869"><ele>426.0</ele><time>2026-04-24T13:05:46Z</time></trkpt><trkpt lat="43.75622777115588" lon="7.423674703035996"><ele>426.0</ele><time>2026-04-24T13:05:47Z</time></trkpt><trkpt lat="43.75623278901133" lon="7.423795192593852"><ele>426.0</ele><time>2026-04-24T13:05:48Z</time></trkpt><trkpt lat="43.75620142314735" lon="7.423902396690969"><ele>426.0</ele><time>2026-04-24T13:05:49Z</time></trkpt><trkpt lat="43.75613529866896" lon="7.423983878228284"><ele>426.0</ele><time>2026-04-24T13:05:50Z</time></trkpt><trkpt lat="43.756043839671506" lon="7.424035657820012"><ele>417.5</ele><time>2026-04-24T13:05:51Z</time></trkpt><trkpt lat="43.755934623897716" lon="7.424077566670828"><ele>409.0</ele><time>2026-04-24T13:05:52Z</time></trkpt><trkpt lat="43.7558170429992" lon="7.424120494103969"><ele>400.5</ele><time>2026-04-24T13:05:53Z</time></trkpt><trkpt lat="43.75570333181626" lon="7.424168816883959"><ele>392.0</ele><time>2026-04-24T13:05:54Z</time></trkpt><trkpt lat="43.75559719791642" lon="7.424212328702363"><ele>392.0</ele><time>2026-04-24T13:05:55Z</time></trkpt><trkpt lat="43.755493503341505" lon="7.424251857792574"><ele>392.0</ele><time>2026-04-24T13:05:56Z</time></trkpt><trkpt lat="43.75539223810367" lon="7.424284157210718"><ele>392.0</ele><time>2026-04-24T13:05:57Z</time></trkpt><trkpt lat="43.75529269712388" lon="7.424312100824079"><ele>392.0</ele><time>2026-04-24T13:05:58Z</time></trkpt><trkpt lat="43.755198949411266" lon="7.4243504474769635"><ele>392.0</ele><time>2026-04-24T13:05:59Z</time></trkpt><trkpt lat="43.75511627760937" lon="7.42441915308315"><ele>391.20000000000005</ele><time>2026-04-24T13:06:00Z</time></trkpt><trkpt lat="43.755044907710236" lon="7.4245102680845045"><ele>390.4</ele><time>2026-04-24T13:06:01Z</time></trkpt><trkpt lat="43.75498091906318" lon="7.424616577397925"><ele>389.6</ele><time>2026-04-24T13:06:02Z</time></trkpt><trkpt lat="43.75490536894385" lon="7.424715568404022"><ele>388.79999999999995</ele><time>2026-04-24T13:06:03Z</time></trkpt><trkpt lat="43.75482936255807" lon="7.424791199123828"><ele>388.0</ele><time>2026-04-24T13:06:04Z</time></trkpt><trkpt lat="43.75475897837766" lon="7.424858424754939"><ele>388.0</ele><time>2026-04-24T13:06:05Z</time></trkpt><trkpt lat="43.754695345241466" lon="7.424936485722849"><ele>388.0</ele><time>2026-04-24T13:06:06Z</time></trkpt><trkpt lat="43.75463821535425" lon="7.425030252897288"><ele>388.0</ele><time>2026-04-24T13:06:07Z</time></trkpt><trkpt lat="43.75458205446957" lon="7.42513430535584"><ele>388.0</ele><time>2026-04-24T13:06:08Z</time></trkpt><trkpt lat="43.75452197758002" lon="7.425244541334532"><ele>388.0</ele><time>2026-04-24T13:06:09Z</time></trkpt><trkpt lat="43.75445531677856" lon="7.42536606610722"><ele>389.2</ele><time>2026-04-24T13:06:10Z</time></trkpt><trkpt lat="43.754392607956014" lon="7.425482513723362"><ele>390.4</ele><time>2026-04-24T13:06:11Z</time></trkpt><trkpt lat="43.7543468559677" lon="7.425602961031794"><ele>391.59999999999997</ele><time>2026-04-24T13:06:12Z</time></trkpt><trkpt lat="43.75432827435241" lon="7.425736850782972"><ele>392.79999999999995</ele><time>2026-04-24T13:06:13Z</time></trkpt><trkpt lat="43.754338333153036" lon="7.425873609174299"><ele>394.0</ele><time>2026-04-24T13:06:14Z</time></trkpt><trkpt lat="43.75436964209008" lon="7.42600131259267"><ele>394.0</ele><time>2026-04-24T13:06:15Z</time></trkpt><trkpt lat="43.75441824080952" lon="7.426125681825826"><ele>394.0</ele><time>2026-04-24T13:06:16Z</time></trkpt><trkpt lat="43.754473788550264" lon="7.426253725991272"><ele>394.0</ele><time>2026-04-24T13:06:17Z</time></trkpt><trkpt lat="43.754542978264276" lon="7.426380909255706"><ele>394.0</ele><time>2026-04-24T13:06:18Z</time></trkpt><trkpt lat="43.75461389190593" lon="7.4265165349498385"><ele>394.0</ele><time>2026-04-24T13:06:19Z</time></trkpt><trkpt lat="43.7546823545673" lon="7.426668777328633"><ele>392.25</ele><time>2026-04-24T13:06:20Z</time></trkpt><trkpt lat="43.754751626363536" lon="7.4268267091524285"><ele>390.5</ele><time>2026-04-24T13:06:21Z</time></trkpt><trkpt lat="43.75481685195613" lon="7.426999242250166"><ele>388.75</ele><time>2026-04-24T13:06:22Z</time></trkpt><trkpt lat="43.75487566166341" lon="7.4271752433844815"><ele>387.0</ele><time>2026-04-24T13:06:23Z</time></trkpt><trkpt lat="43.754921550462996" lon="7.4273499545799355"><ele>383.75</ele><time>2026-04-24T13:06:24Z</time></trkpt><trkpt lat="43.75496561532645" lon="7.427523914777739"><ele>380.5</ele><time>2026-04-24T13:06:25Z</time></trkpt><trkpt lat="43.755016272103944" lon="7.427691681216906"><ele>377.25</ele><time>2026-04-24T13:06:26Z</time></trkpt><trkpt lat="43.755067102165086" lon="7.427858483870959"><ele>374.0</ele><time>2026-04-24T13:06:27Z</time></trkpt><trkpt lat="43.75511800832792" lon="7.428020262085453"><ele>376.0</ele><time>2026-04-24T13:06:28Z</time></trkpt><trkpt lat="43.75517407440892" lon="7.428175712822303"><ele>378.0</ele><time>2026-04-24T13:06:29Z</time></trkpt><trkpt lat="43.755231829329816" lon="7.42830580631468"><ele>380.0</ele><time>2026-04-24T13:06:30Z</time></trkpt><trkpt lat="43.7552946321667" lon="7.428405770940289"><ele>382.0</ele><time>2026-04-24T13:06:31Z</time></trkpt><trkpt lat="43.755376307575276" lon="7.428463433019379"><ele>384.0</ele><time>2026-04-24T13:06:32Z</time></trkpt><trkpt lat="43.75547188970001" lon="7.428463150835498"><ele>384.0</ele><time>2026-04-24T13:06:33Z</time></trkpt><trkpt lat="43.75556971077975" lon="7.428439756005193"><ele>384.0</ele><time>2026-04-24T13:06:34Z</time></trkpt><trkpt lat="43.75567693091466" lon="7.428434684629471"><ele>384.0</ele><time>2026-04-24T13:06:35Z</time></trkpt><trkpt lat="43.75578132883622" lon="7.428461486316891"><ele>384.0</ele><time>2026-04-24T13:06:35.999Z</time></trkpt><trkpt lat="43.75587672831814" lon="7.428510586120933"><ele>384.0</ele><time>2026-04-24T13:06:36.999Z</time></trkpt><trkpt lat="43.75596831005237" lon="7.428575766980687"><ele>387.0</ele><time>2026-04-24T13:06:37.999Z</time></trkpt><trkpt lat="43.75606203702827" lon="7.4286490096732125"><ele>390.0</ele><time>2026-04-24T13:06:38.999Z</time></trkpt><trkpt lat="43.7561605898901" lon="7.428725538470042"><ele>393.0</ele><time>2026-04-24T13:06:39.999Z</time></trkpt><trkpt lat="43.75626931259663" lon="7.42879121624956"><ele>396.0</ele><time>2026-04-24T13:06:40.999Z</time></trkpt><trkpt lat="43.75638541590104" lon="7.42882903096291"><ele>386.4</ele><time>2026-04-24T13:06:41.999Z</time></trkpt><trkpt lat="43.75650111813055" lon="7.428859118573018"><ele>376.8</ele><time>2026-04-24T13:06:42.999Z</time></trkpt><trkpt lat="43.75661289393782" lon="7.428876829050859"><ele>367.2</ele><time>2026-04-24T13:06:43.999Z</time></trkpt><trkpt lat="43.75672136540809" lon="7.428869909451358"><ele>357.59999999999997</ele><time>2026-04-24T13:06:44.999Z</time></trkpt><trkpt lat="43.756826425591086" lon="7.428849159319107"><ele>348.0</ele><time>2026-04-24T13:06:45.999Z</time></trkpt><trkpt lat="43.756932221956106" lon="7.428825206189554"><ele>353.8333333333333</ele><time>2026-04-24T13:06:46.999Z</time></trkpt><trkpt lat="43.757034079198874" lon="7.428801884755007"><ele>359.6666666666667</ele><time>2026-04-24T13:06:47.999Z</time></trkpt><trkpt lat="43.757131433141204" lon="7.4287705547467295"><ele>365.5</ele><time>2026-04-24T13:06:48.999Z</time></trkpt><trkpt lat="43.7572240000676" lon="7.42873856292735"><ele>371.33333333333337</ele><time>2026-04-24T13:06:49.999Z</time></trkpt><trkpt lat="43.75730063942217" lon="7.428707714449907"><ele>377.1666666666667</ele><time>2026-04-24T13:06:50.999Z</time></trkpt><trkpt lat="43.75736873311259" lon="7.428694340075406"><ele>383.0</ele><time>2026-04-24T13:06:51.999Z</time></trkpt><trkpt lat="43.75742751813821" lon="7.428726821620253"><ele>383.0</ele><time>2026-04-24T13:06:52.999Z</time></trkpt><trkpt lat="43.75747009358116" lon="7.428800102866463"><ele>383.0</ele><time>2026-04-24T13:06:53.999Z</time></trkpt><trkpt lat="43.757485387820644" lon="7.428896147326813"><ele>383.0</ele><time>2026-04-24T13:06:54.999Z</time></trkpt><trkpt lat="43.75748163508551" lon="7.429002552274803"><ele>383.0</ele><time>2026-04-24T13:06:55.999Z</time></trkpt><trkpt lat="43.757470005686" lon="7.429135024555959"><ele>383.0</ele><time>2026-04-24T13:06:56.999Z</time></trkpt><trkpt lat="43.757471015558934" lon="7.429295631942615"><ele>383.0</ele><time>2026-04-24T13:06:57.999Z</time></trkpt><trkpt lat="43.75747516693323" lon="7.429496233032324"><ele>372.75</ele><time>2026-04-24T13:06:58.999Z</time></trkpt><trkpt lat="43.757477021321016" lon="7.429677587450332"><ele>362.5</ele><time>2026-04-24T13:06:59.999Z</time></trkpt><trkpt lat="43.7574549922784" lon="7.429857719777639"><ele>352.25</ele><time>2026-04-24T13:07:00.999Z</time></trkpt><trkpt lat="43.757394239499384" lon="7.430049199296297"><ele>342.0</ele><time>2026-04-24T13:07:01.999Z</time></trkpt><trkpt lat="43.757320738336176" lon="7.430266322942667"><ele>349.3333333333333</ele><time>2026-04-24T13:07:02.999Z</time></trkpt><trkpt lat="43.75724886218838" lon="7.430504362736017"><ele>356.66666666666663</ele><time>2026-04-24T13:07:03.999Z</time></trkpt><trkpt lat="43.757184819709785" lon="7.430736705912589"><ele>364.0</ele><time>2026-04-24T13:07:04.999Z</time></trkpt><trkpt lat="43.75711716406005" lon="7.430967330279851"><ele>364.0</ele><time>2026-04-24T13:07:05.999Z</time></trkpt><trkpt lat="43.75704473648745" lon="7.431192558345686"><ele>364.0</ele><time>2026-04-24T13:07:06.999Z</time></trkpt><trkpt lat="43.7569644627737" lon="7.431400494467676"><ele>364.0</ele><time>2026-04-24T13:07:07.999Z</time></trkpt><trkpt lat="43.756885270427574" lon="7.431594961987004"><ele>357.0</ele><time>2026-04-24T13:07:08.999Z</time></trkpt><trkpt lat="43.75681527149232" lon="7.431779627465335"><ele>350.0</ele><time>2026-04-24T13:07:09.999Z</time></trkpt><trkpt lat="43.756760890764795" lon="7.431952102600364"><ele>343.0</ele><time>2026-04-24T13:07:10.999Z</time></trkpt><trkpt lat="43.75672510263924" lon="7.4321185625392445"><ele>336.0</ele><time>2026-04-24T13:07:11.999Z</time></trkpt><trkpt lat="43.756716219182934" lon="7.432285216801224"><ele>336.0</ele><time>2026-04-24T13:07:12.999Z</time></trkpt><trkpt lat="43.75673280824684" lon="7.432447985761239"><ele>336.0</ele><time>2026-04-24T13:07:13.999Z</time></trkpt><trkpt lat="43.75677696077439" lon="7.432595087587507"><ele>336.0</ele><time>2026-04-24T13:07:14.999Z</time></trkpt><trkpt lat="43.756852799657665" lon="7.432732375874579"><ele>336.0</ele><time>2026-04-24T13:07:15.999Z</time></trkpt><trkpt lat="43.756967875954665" lon="7.432860689932314"><ele>341.6666666666667</ele><time>2026-04-24T13:07:16.999Z</time></trkpt><trkpt lat="43.757107884506944" lon="7.432990821708629"><ele>347.33333333333337</ele><time>2026-04-24T13:07:17.999Z</time></trkpt><trkpt lat="43.75727048023103" lon="7.433116251327248"><ele>353.0</ele><time>2026-04-24T13:07:18.999Z</time></trkpt><trkpt lat="43.75742104301086" lon="7.433226612878832"><ele>353.0</ele><time>2026-04-24T13:07:19.999Z</time></trkpt><trkpt lat="43.75755645924153" lon="7.433345115486321"><ele>353.0</ele><time>2026-04-24T13:07:20.999Z</time></trkpt><trkpt lat="43.757672290608184" lon="7.433458913069918"><ele>353.0</ele><time>2026-04-24T13:07:21.999Z</time></trkpt><trkpt lat="43.75775935823678" lon="7.433581048003242"><ele>353.0</ele><time>2026-04-24T13:07:22.999Z</time></trkpt><trkpt lat="43.75782446612916" lon="7.433729259331736"><ele>356.25</ele><time>2026-04-24T13:07:23.999Z</time></trkpt><trkpt lat="43.75785487848017" lon="7.433890376859823"><ele>359.5</ele><time>2026-04-24T13:07:24.999Z</time></trkpt><trkpt lat="43.75785996338592" lon="7.434059247769582"><ele>362.75</ele><time>2026-04-24T13:07:25.999Z</time></trkpt><trkpt lat="43.75789702224727" lon="7.4342353878267255"><ele>366.0</ele><time>2026-04-24T13:07:26.999Z</time></trkpt><trkpt lat="43.75796864321173" lon="7.4344172503312205"><ele>366.0</ele><time>2026-04-24T13:07:27.999Z</time></trkpt><trkpt lat="43.75806012749553" lon="7.434594068336109"><ele>366.0</ele><time>2026-04-24T13:07:28.999Z</time></trkpt><trkpt lat="43.75815090860645" lon="7.434763448685464"><ele>366.0</ele><time>2026-04-24T13:07:29.999Z</time></trkpt><trkpt lat="43.75821714685926" lon="7.434927915738386"><ele>366.0</ele><time>2026-04-24T13:07:30.999Z</time></trkpt><trkpt lat="43.75824313711185" lon="7.435087461646421"><ele>363.25</ele><time>2026-04-24T13:07:31.999Z</time></trkpt><trkpt lat="43.758233065513174" lon="7.435249247680382"><ele>360.5</ele><time>2026-04-24T13:07:32.999Z</time></trkpt><trkpt lat="43.75819638157501" lon="7.435414054454766"><ele>357.75</ele><time>2026-04-24T13:07:33.999Z</time></trkpt><trkpt lat="43.75812625788248" lon="7.4355842187771675"><ele>355.0</ele><time>2026-04-24T13:07:34.999Z</time></trkpt><trkpt lat="43.75806645194472" lon="7.435762928587685"><ele>355.0</ele><time>2026-04-24T13:07:35.999Z</time></trkpt><trkpt lat="43.75802841990393" lon="7.435951596078498"><ele>355.0</ele><time>2026-04-24T13:07:36.999Z</time></trkpt><trkpt lat="43.7580195629151" lon="7.436144326976173"><ele>355.0</ele><time>2026-04-24T13:07:37.999Z</time></trkpt><trkpt lat="43.75803442040257" lon="7.43632693379292"><ele>355.0</ele><time>2026-04-24T13:07:38.999Z</time></trkpt><trkpt lat="43.75806258072205" lon="7.436502668093169"><ele>351.75</ele><time>2026-04-24T13:07:39.999Z</time></trkpt><trkpt lat="43.75810780779325" lon="7.436661186846602"><ele>348.5</ele><time>2026-04-24T13:07:40.999Z</time></trkpt><trkpt lat="43.75818011801778" lon="7.436802260344586"><ele>345.25</ele><time>2026-04-24T13:07:41.999Z</time></trkpt><trkpt lat="43.75828088928339" lon="7.436924337950941"><ele>342.0</ele><time>2026-04-24T13:07:42.999Z</time></trkpt><trkpt lat="43.758392198836724" lon="7.437039744003908"><ele>337.25</ele><time>2026-04-24T13:07:43.999Z</time></trkpt><trkpt lat="43.7584929044505" lon="7.437172271533041"><ele>332.5</ele><time>2026-04-24T13:07:44.999Z</time></trkpt><trkpt lat="43.75857288484415" lon="7.437308494144239"><ele>327.75</ele><time>2026-04-24T13:07:45.999Z</time></trkpt><trkpt lat="43.75862875186335" lon="7.437444847323806"><ele>323.0</ele><time>2026-04-24T13:07:46.999Z</time></trkpt><trkpt lat="43.75866489265429" lon="7.437575188070024"><ele>325.79999999999995</ele><time>2026-04-24T13:07:47.999Z</time></trkpt><trkpt lat="43.758660401224354" lon="7.4377074262359155"><ele>328.6</ele><time>2026-04-24T13:07:48.999Z</time></trkpt><trkpt lat="43.75862534692471" lon="7.437834724877801"><ele>331.4</ele><time>2026-04-24T13:07:49.999Z</time></trkpt><trkpt lat="43.75856016378263" lon="7.437953588077354"><ele>334.20000000000005</ele><time>2026-04-24T13:07:50.999Z</time></trkpt><trkpt lat="43.75847574524933" lon="7.43803852626732"><ele>337.0</ele><time>2026-04-24T13:07:51.999Z</time></trkpt><trkpt lat="43.758374496516126" lon="7.438071601899739"><ele>337.0</ele><time>2026-04-24T13:07:52.999Z</time></trkpt><trkpt lat="43.75826979203468" lon="7.43806930337071"><ele>337.0</ele><time>2026-04-24T13:07:53.999Z</time></trkpt><trkpt lat="43.75816339620352" lon="7.43805528625383"><ele>337.0</ele><time>2026-04-24T13:07:54.999Z</time></trkpt><trkpt lat="43.75806124725572" lon="7.4380589223977225"><ele>337.0</ele><time>2026-04-24T13:07:55.999Z</time></trkpt><trkpt lat="43.757968574495386" lon="7.438106541574581"><ele>337.0</ele><time>2026-04-24T13:07:56.999Z</time></trkpt><trkpt lat="43.7578831773332" lon="7.438192626690285"><ele>337.0</ele><time>2026-04-24T13:07:57.999Z</time></trkpt><trkpt lat="43.75779691617435" lon="7.438293769898733"><ele>337.0</ele><time>2026-04-24T13:07:58.999Z</time></trkpt><trkpt lat="43.757703647387636" lon="7.438399980780354"><ele>337.0</ele><time>2026-04-24T13:07:59.999Z</time></trkpt><trkpt lat="43.757595207457186" lon="7.4385060987681015"><ele>337.0</ele><time>2026-04-24T13:08:00.999Z</time></trkpt><trkpt lat="43.75748783291875" lon="7.438606716324608"><ele>339.75</ele><time>2026-04-24T13:08:01.999Z</time></trkpt><trkpt lat="43.75737285717059" lon="7.438698638153494"><ele>342.5</ele><time>2026-04-24T13:08:02.999Z</time></trkpt><trkpt lat="43.75724331244509" lon="7.438764757332995"><ele>345.25</ele><time>2026-04-24T13:08:03.999Z</time></trkpt><trkpt lat="43.757104394141074" lon="7.438790060153245"><ele>348.0</ele><time>2026-04-24T13:08:04.999Z</time></trkpt><trkpt lat="43.7569758426896" lon="7.438825831277032"><ele>342.2</ele><time>2026-04-24T13:08:05.999Z</time></trkpt><trkpt lat="43.756855249441344" lon="7.438848236502381"><ele>336.4</ele><time>2026-04-24T13:08:06.999Z</time></trkpt><trkpt lat="43.756731899862736" lon="7.438830690193568"><ele>330.59999999999997</ele><time>2026-04-24T13:08:07.999Z</time></trkpt><trkpt lat="43.75663367799866" lon="7.438862178095378"><ele>324.79999999999995</ele><time>2026-04-24T13:08:08.999Z</time></trkpt><trkpt lat="43.75655100344912" lon="7.438876104192414"><ele>319.0</ele><time>2026-04-24T13:08:09.999Z</time></trkpt><trkpt lat="43.75648114685232" lon="7.438935633423304"><ele>319.0</ele><time>2026-04-24T13:08:10.999Z</time></trkpt><trkpt lat="43.75643227092973" lon="7.439027677471833"><ele>319.0</ele><time>2026-04-24T13:08:11.999Z</time></trkpt><trkpt lat="43.756417555174" lon="7.439139778350526"><ele>319.0</ele><time>2026-04-24T13:08:12.999Z</time></trkpt><trkpt lat="43.756433241820574" lon="7.439256757238723"><ele>319.0</ele><time>2026-04-24T13:08:13.999Z</time></trkpt><trkpt lat="43.7564744213894" lon="7.439374600300374"><ele>319.0</ele><time>2026-04-24T13:08:14.999Z</time></trkpt><trkpt lat="43.756530895559784" lon="7.439500427196771"><ele>319.0</ele><time>2026-04-24T13:08:15.999Z</time></trkpt><trkpt lat="43.75658544116746" lon="7.439630859299524"><ele>319.0</ele><time>2026-04-24T13:08:16.999Z</time></trkpt><trkpt lat="43.756621380480794" lon="7.439778627728715"><ele>319.0</ele><time>2026-04-24T13:08:17.999Z</time></trkpt><trkpt lat="43.75661838734737" lon="7.439940087704541"><ele>319.0</ele><time>2026-04-24T13:08:18.999Z</time></trkpt><trkpt lat="43.75661427905897" lon="7.440103581930711"><ele>319.25</ele><time>2026-04-24T13:08:19.999Z</time></trkpt><trkpt lat="43.75657964600199" lon="7.4402651307153524"><ele>319.5</ele><time>2026-04-24T13:08:20.999Z</time></trkpt><trkpt lat="43.756532397367444" lon="7.440434445006367"><ele>319.75</ele><time>2026-04-24T13:08:21.999Z</time></trkpt><trkpt lat="43.756504745315" lon="7.440615241435933"><ele>320.0</ele><time>2026-04-24T13:08:22.999Z</time></trkpt><trkpt lat="43.75647991020142" lon="7.44078128142856"><ele>320.5</ele><time>2026-04-24T13:08:23.999Z</time></trkpt><trkpt lat="43.7564935876052" lon="7.440950191898309"><ele>321.0</ele><time>2026-04-24T13:08:24.999Z</time></trkpt><trkpt lat="43.75654068165993" lon="7.44111400581291"><ele>321.5</ele><time>2026-04-24T13:08:25.999Z</time></trkpt><trkpt lat="43.75661106046361" lon="7.4412909457057195"><ele>322.0</ele><time>2026-04-24T13:08:26.999Z</time></trkpt><trkpt lat="43.75669441188848" lon="7.44147754139772"><ele>320.25</ele><time>2026-04-24T13:08:27.999Z</time></trkpt><trkpt lat="43.756770814012974" lon="7.4416549196672594"><ele>318.5</ele><time>2026-04-24T13:08:28.999Z</time></trkpt><trkpt lat="43.75681886345259" lon="7.441835832733094"><ele>316.75</ele><time>2026-04-24T13:08:29.999Z</time></trkpt><trkpt lat="43.756843597948034" lon="7.442024309750079"><ele>315.0</ele><time>2026-04-24T13:08:30.999Z</time></trkpt><trkpt lat="43.75684326747241" lon="7.442224826601558"><ele>313.5</ele><time>2026-04-24T13:08:31.999Z</time></trkpt><trkpt lat="43.75683333326675" lon="7.442425260429398"><ele>312.0</ele><time>2026-04-24T13:08:32.999Z</time></trkpt><trkpt lat="43.756827466220145" lon="7.4426083531622895"><ele>310.5</ele><time>2026-04-24T13:08:33.999Z</time></trkpt><trkpt lat="43.7568315577698" lon="7.442781498389122"><ele>309.0</ele><time>2026-04-24T13:08:34.999Z</time></trkpt><trkpt lat="43.756833992626156" lon="7.442944570212228"><ele>307.25</ele><time>2026-04-24T13:08:35.999Z</time></trkpt><trkpt lat="43.75686089224352" lon="7.443107003561186"><ele>305.5</ele><time>2026-04-24T13:08:36.999Z</time></trkpt><trkpt lat="43.756904076718435" lon="7.443263652722046"><ele>303.75</ele><time>2026-04-24T13:08:37.999Z</time></trkpt><trkpt lat="43.75695388129775" lon="7.443416379707438"><ele>302.0</ele><time>2026-04-24T13:08:38.999Z</time></trkpt><trkpt lat="43.75699582965402" lon="7.4435612110784595"><ele>304.2</ele><time>2026-04-24T13:08:39.999Z</time></trkpt><trkpt lat="43.75699742864749" lon="7.443686437516563"><ele>306.4</ele><time>2026-04-24T13:08:40.999Z</time></trkpt><trkpt lat="43.75701147782796" lon="7.443772455896465"><ele>308.6</ele><time>2026-04-24T13:08:41.999Z</time></trkpt><trkpt lat="43.75695838058285" lon="7.443838309116137"><ele>310.8</ele><time>2026-04-24T13:08:45.999Z</time></trkpt><trkpt lat="43.756879598371405" lon="7.443925024947626"><ele>313.0</ele><time>2026-04-24T13:08:47.999Z</time></trkpt><trkpt lat="43.75690756944737" lon="7.444109127272919"><ele>313.0</ele><time>2026-04-24T13:08:49.999Z</time></trkpt><trkpt lat="43.75694969814098" lon="7.444175745443086"><ele>313.0</ele><time>2026-04-24T13:08:50.999Z</time></trkpt><trkpt lat="43.75700386098848" lon="7.444234427694283"><ele>313.0</ele><time>2026-04-24T13:08:51.999Z</time></trkpt><trkpt lat="43.757067700519194" lon="7.444292433384131"><ele>313.0</ele><time>2026-04-24T13:08:52.999Z</time></trkpt><trkpt lat="43.757144194504335" lon="7.444323281402123"><ele>313.0</ele><time>2026-04-24T13:08:53.999Z</time></trkpt><trkpt lat="43.75722892926561" lon="7.44433758110525"><ele>313.0</ele><time>2026-04-24T13:08:54.999Z</time></trkpt><trkpt lat="43.757310926937414" lon="7.444333509413126"><ele>313.0</ele><time>2026-04-24T13:08:55.999Z</time></trkpt><trkpt lat="43.75738221958004" lon="7.444324031431048"><ele>313.0</ele><time>2026-04-24T13:08:56.999Z</time></trkpt><trkpt lat="43.75744642399889" lon="7.444305996675678"><ele>313.0</ele><time>2026-04-24T13:08:58.999Z</time></trkpt><trkpt lat="43.75752248379407" lon="7.444268079299184"><ele>313.0</ele><time>2026-04-24T13:09:00.999Z</time></trkpt><trkpt lat="43.757612167898984" lon="7.4442080814133815"><ele>313.0</ele><time>2026-04-24T13:09:02.999Z</time></trkpt><trkpt lat="43.75767938124001" lon="7.444165487025104"><ele>313.0</ele><time>2026-04-24T13:09:03.999Z</time></trkpt><trkpt lat="43.757763317962144" lon="7.444121039316261"><ele>312.2</ele><time>2026-04-24T13:09:04.999Z</time></trkpt><trkpt lat="43.75787400046566" lon="7.444088166158888"><ele>311.4</ele><time>2026-04-24T13:09:05.999Z</time></trkpt><trkpt lat="43.757984045716" lon="7.4440662530153805"><ele>310.59999999999997</ele><time>2026-04-24T13:09:06.999Z</time></trkpt><trkpt lat="43.758088120627846" lon="7.444061213456829"><ele>309.8</ele><time>2026-04-24T13:09:07.999Z</time></trkpt><trkpt lat="43.75820220287219" lon="7.444060556848803"><ele>309.0</ele><time>2026-04-24T13:09:08.999Z</time></trkpt><trkpt lat="43.758318173940836" lon="7.444062103932493"><ele>309.0</ele><time>2026-04-24T13:09:09.999Z</time></trkpt><trkpt lat="43.758423885943905" lon="7.444097119692656"><ele>309.0</ele><time>2026-04-24T13:09:10.999Z</time></trkpt><trkpt lat="43.75852838221626" lon="7.444156072162674"><ele>309.0</ele><time>2026-04-24T13:09:11.999Z</time></trkpt><trkpt lat="43.75862285062844" lon="7.444237878325556"><ele>309.0</ele><time>2026-04-24T13:09:12.999Z</time></trkpt><trkpt lat="43.75871721336715" lon="7.444302009309782"><ele>309.0</ele><time>2026-04-24T13:09:13.999Z</time></trkpt><trkpt lat="43.75880527412665" lon="7.444386842937973"><ele>307.4</ele><time>2026-04-24T13:09:14.999Z</time></trkpt><trkpt lat="43.758880688024696" lon="7.444505351158953"><ele>305.79999999999995</ele><time>2026-04-24T13:09:15.999Z</time></trkpt><trkpt lat="43.758923154556015" lon="7.444658070131102"><ele>304.20000000000005</ele><time>2026-04-24T13:09:16.999Z</time></trkpt><trkpt lat="43.75898048941662" lon="7.4447828772130045"><ele>302.6</ele><time>2026-04-24T13:09:17.999Z</time></trkpt><trkpt lat="43.75899821680412" lon="7.444916552265309"><ele>301.0</ele><time>2026-04-24T13:09:18.999Z</time></trkpt><trkpt lat="43.759029201508724" lon="7.445048420006168"><ele>301.0</ele><time>2026-04-24T13:09:19.999Z</time></trkpt><trkpt lat="43.759065156145454" lon="7.4451893432165495"><ele>301.0</ele><time>2026-04-24T13:09:20.999Z</time></trkpt><trkpt lat="43.75910338047198" lon="7.4453341756622375"><ele>301.0</ele><time>2026-04-24T13:09:21.999Z</time></trkpt><trkpt lat="43.75915434596243" lon="7.4454696494217005"><ele>301.0</ele><time>2026-04-24T13:09:22.999Z</time></trkpt><trkpt lat="43.75922123998265" lon="7.445593506696053"><ele>301.0</ele><time>2026-04-24T13:09:23.999Z</time></trkpt><trkpt lat="43.75930708064645" lon="7.44571537584881"><ele>302.75</ele><time>2026-04-24T13:09:24.999Z</time></trkpt><trkpt lat="43.75939848820609" lon="7.445838469349828"><ele>304.5</ele><time>2026-04-24T13:09:25.999Z</time></trkpt><trkpt lat="43.75949534071724" lon="7.44596207472276"><ele>306.25</ele><time>2026-04-24T13:09:26.999Z</time></trkpt><trkpt lat="43.75959858457344" lon="7.446068596063356"><ele>308.0</ele><time>2026-04-24T13:09:27.999Z</time></trkpt><trkpt lat="43.759703428932895" lon="7.446145959578965"><ele>308.0</ele><time>2026-04-24T13:09:28.999Z</time></trkpt><trkpt lat="43.759816856487895" lon="7.446206820399665"><ele>308.0</ele><time>2026-04-24T13:09:29.999Z</time></trkpt><trkpt lat="43.75992298988369" lon="7.446277755047198"><ele>308.0</ele><time>2026-04-24T13:09:30.999Z</time></trkpt><trkpt lat="43.759985296337845" lon="7.446402182412605"><ele>308.0</ele><time>2026-04-24T13:09:31.999Z</time></trkpt><trkpt lat="43.76001945753824" lon="7.446531352959753"><ele>308.0</ele><time>2026-04-24T13:09:32.999Z</time></trkpt><trkpt lat="43.7600423475823" lon="7.446676983474575"><ele>305.5</ele><time>2026-04-24T13:09:33.999Z</time></trkpt><trkpt lat="43.76007307052118" lon="7.446849009230661"><ele>303.0</ele><time>2026-04-24T13:09:34.999Z</time></trkpt><trkpt lat="43.760118836063704" lon="7.447026213147601"><ele>300.5</ele><time>2026-04-24T13:09:35.999Z</time></trkpt><trkpt lat="43.76016825161097" lon="7.447187316859988"><ele>298.0</ele><time>2026-04-24T13:09:36.999Z</time></trkpt><trkpt lat="43.76024043918165" lon="7.447311203147143"><ele>298.0</ele><time>2026-04-24T13:09:37.999Z</time></trkpt><trkpt lat="43.76032870511135" lon="7.447410356638863"><ele>298.0</ele><time>2026-04-24T13:09:38.999Z</time></trkpt><trkpt lat="43.760444742428774" lon="7.447487373165368"><ele>298.0</ele><time>2026-04-24T13:09:39.999Z</time></trkpt><trkpt lat="43.76057236737116" lon="7.447567725907179"><ele>298.0</ele><time>2026-04-24T13:09:40.999Z</time></trkpt><trkpt lat="43.76069285098204" lon="7.447666545186421"><ele>298.0</ele><time>2026-04-24T13:09:41.999Z</time></trkpt><trkpt lat="43.760808386040644" lon="7.447753385542487"><ele>298.0</ele><time>2026-04-24T13:09:42.999Z</time></trkpt><trkpt lat="43.76093887046693" lon="7.447806332409993"><ele>298.0</ele><time>2026-04-24T13:09:43.999Z</time></trkpt><trkpt lat="43.761078256689345" lon="7.447841457970125"><ele>298.0</ele><time>2026-04-24T13:09:44.999Z</time></trkpt><trkpt lat="43.761206492340925" lon="7.447897759533023"><ele>292.75</ele><time>2026-04-24T13:09:45.999Z</time></trkpt><trkpt lat="43.761321627284005" lon="7.447989589912529"><ele>287.5</ele><time>2026-04-24T13:09:46.999Z</time></trkpt><trkpt lat="43.761428517563225" lon="7.44809763273906"><ele>282.25</ele><time>2026-04-24T13:09:47.999Z</time></trkpt><trkpt lat="43.761542059505246" lon="7.448211071623559"><ele>277.0</ele><time>2026-04-24T13:09:48.999Z</time></trkpt><trkpt lat="43.76166485916648" lon="7.448306441652874"><ele>277.0</ele><time>2026-04-24T13:09:49.999Z</time></trkpt><trkpt lat="43.76179964374481" lon="7.448385336305032"><ele>277.0</ele><time>2026-04-24T13:09:50.999Z</time></trkpt><trkpt lat="43.76194045844227" lon="7.448442658583516"><ele>277.0</ele><time>2026-04-24T13:09:51.999Z</time></trkpt><trkpt lat="43.7620790094669" lon="7.448491267563091"><ele>277.0</ele><time>2026-04-24T13:09:52.999Z</time></trkpt><trkpt lat="43.762207506814676" lon="7.448574710541638"><ele>274.75</ele><time>2026-04-24T13:09:53.999Z</time></trkpt><trkpt lat="43.762326222459045" lon="7.448687363244446"><ele>272.5</ele><time>2026-04-24T13:09:54.999Z</time></trkpt><trkpt lat="43.76243950158707" lon="7.448820692417512"><ele>270.25</ele><time>2026-04-24T13:09:55.999Z</time></trkpt><trkpt lat="43.76255011482314" lon="7.448964051277128"><ele>268.0</ele><time>2026-04-24T13:09:56.999Z</time></trkpt><trkpt lat="43.76265524782903" lon="7.449118985295756"><ele>277.66666666666663</ele><time>2026-04-24T13:09:57.999Z</time></trkpt><trkpt lat="43.76276976634854" lon="7.449264878228605"><ele>287.3333333333333</ele><time>2026-04-24T13:09:58.999Z</time></trkpt><trkpt lat="43.762889083244055" lon="7.449393223658195"><ele>297.0</ele><time>2026-04-24T13:09:59.999Z</time></trkpt><trkpt lat="43.76300386560887" lon="7.449521735757324"><ele>288.5</ele><time>2026-04-24T13:10:00.999Z</time></trkpt><trkpt lat="43.76311949184212" lon="7.44963966242156"><ele>280.0</ele><time>2026-04-24T13:10:01.999Z</time></trkpt><trkpt lat="43.763242981795614" lon="7.449744127496367"><ele>271.5</ele><time>2026-04-24T13:10:02.999Z</time></trkpt><trkpt lat="43.763370752964654" lon="7.449840373592948"><ele>263.0</ele><time>2026-04-24T13:10:03.999Z</time></trkpt><trkpt lat="43.76349945375048" lon="7.449948888892591"><ele>272.0</ele><time>2026-04-24T13:10:04.999Z</time></trkpt><trkpt lat="43.76362607738097" lon="7.45007351919377"><ele>281.0</ele><time>2026-04-24T13:10:05.999Z</time></trkpt><trkpt lat="43.763751125485726" lon="7.450196073433957"><ele>290.0</ele><time>2026-04-24T13:10:06.999Z</time></trkpt><trkpt lat="43.76387234590909" lon="7.45029919108885"><ele>290.0</ele><time>2026-04-24T13:10:07.999Z</time></trkpt><trkpt lat="43.763977111105206" lon="7.450402577404312"><ele>290.0</ele><time>2026-04-24T13:10:08.999Z</time></trkpt><trkpt lat="43.764078839366654" lon="7.450481353941844"><ele>290.0</ele><time>2026-04-24T13:10:09.999Z</time></trkpt><trkpt lat="43.76415536389306" lon="7.450601846167919"><ele>290.0</ele><time>2026-04-24T13:10:10.999Z</time></trkpt><trkpt lat="43.764228019474025" lon="7.450717678975969"><ele>284.25</ele><time>2026-04-24T13:10:11.999Z</time></trkpt><trkpt lat="43.7643275094146" lon="7.450785457200763"><ele>278.5</ele><time>2026-04-24T13:10:12.999Z</time></trkpt><trkpt lat="43.76443820584173" lon="7.450828523747921"><ele>272.75</ele><time>2026-04-24T13:10:13.999Z</time></trkpt><trkpt lat="43.76455872253382" lon="7.450858149026103"><ele>267.0</ele><time>2026-04-24T13:10:14.999Z</time></trkpt><trkpt lat="43.76467407234099" lon="7.450902552037886"><ele>267.0</ele><time>2026-04-24T13:10:15.999Z</time></trkpt><trkpt lat="43.76477800099758" lon="7.4509678471894745"><ele>267.0</ele><time>2026-04-24T13:10:16.999Z</time></trkpt><trkpt lat="43.764877554601235" lon="7.451034186518061"><ele>267.0</ele><time>2026-04-24T13:10:17.999Z</time></trkpt><trkpt lat="43.76497417507421" lon="7.451093821113636"><ele>267.0</ele><time>2026-04-24T13:10:18.999Z</time></trkpt><trkpt lat="43.765064932677696" lon="7.451148585194801"><ele>267.0</ele><time>2026-04-24T13:10:19.999Z</time></trkpt><trkpt lat="43.76515754501831" lon="7.4511861093768434"><ele>265.4</ele><time>2026-04-24T13:10:20.999Z</time></trkpt><trkpt lat="43.76526337301648" lon="7.451198561901824"><ele>263.79999999999995</ele><time>2026-04-24T13:10:21.999Z</time></trkpt><trkpt lat="43.76536550025133" lon="7.451190106026049"><ele>262.2</ele><time>2026-04-24T13:10:22.999Z</time></trkpt><trkpt lat="43.76547511626612" lon="7.451157638848024"><ele>260.59999999999997</ele><time>2026-04-24T13:10:23.999Z</time></trkpt><trkpt lat="43.765588443912705" lon="7.45111627066936"><ele>259.0</ele><time>2026-04-24T13:10:24.999Z</time></trkpt><trkpt lat="43.765711760428324" lon="7.451085817798046"><ele>259.0</ele><time>2026-04-24T13:10:25.999Z</time></trkpt><trkpt lat="43.7658316309716" lon="7.451058428005404"><ele>259.0</ele><time>2026-04-24T13:10:26.999Z</time></trkpt><trkpt lat="43.765946496614156" lon="7.451020244792281"><ele>259.0</ele><time>2026-04-24T13:10:27.999Z</time></trkpt><trkpt lat="43.76605737281454" lon="7.4509844777676815"><ele>259.0</ele><time>2026-04-24T13:10:28.999Z</time></trkpt><trkpt lat="43.766170034035476" lon="7.450944621962139"><ele>258.25</ele><time>2026-04-24T13:10:29.999Z</time></trkpt><trkpt lat="43.76628610565465" lon="7.4509074601480565"><ele>257.5</ele><time>2026-04-24T13:10:30.999Z</time></trkpt><trkpt lat="43.76640660265103" lon="7.4508846579673005"><ele>256.75</ele><time>2026-04-24T13:10:31.999Z</time></trkpt><trkpt lat="43.76652303534658" lon="7.450887446675488"><ele>256.0</ele><time>2026-04-24T13:10:32.999Z</time></trkpt><trkpt lat="43.766625180003224" lon="7.450921115909103"><ele>256.0</ele><time>2026-04-24T13:10:33.999Z</time></trkpt><trkpt lat="43.76671408982836" lon="7.450994805395885"><ele>256.0</ele><time>2026-04-24T13:10:34.999Z</time></trkpt><trkpt lat="43.766787459701945" lon="7.451089214844317"><ele>256.0</ele><time>2026-04-24T13:10:35.999Z</time></trkpt><trkpt lat="43.7668698934817" lon="7.451158033603746"><ele>256.0</ele><time>2026-04-24T13:10:36.999Z</time></trkpt><trkpt lat="43.766968925060446" lon="7.451186132343188"><ele>256.0</ele><time>2026-04-24T13:10:37.999Z</time></trkpt><trkpt lat="43.76708047598969" lon="7.451180117169852"><ele>257.2</ele><time>2026-04-24T13:10:38.999Z</time></trkpt><trkpt lat="43.767188017627646" lon="7.451167276451092"><ele>258.40000000000003</ele><time>2026-04-24T13:10:39.999Z</time></trkpt><trkpt lat="43.76729065858818" lon="7.451169964072885"><ele>259.6</ele><time>2026-04-24T13:10:40.999Z</time></trkpt><trkpt lat="43.767387808565005" lon="7.451196990178689"><ele>260.8</ele><time>2026-04-24T13:10:41.999Z</time></trkpt><trkpt lat="43.76747946843966" lon="7.451237663779081"><ele>262.0</ele><time>2026-04-24T13:10:42.999Z</time></trkpt><trkpt lat="43.76756769625502" lon="7.451287887446175"><ele>259.8</ele><time>2026-04-24T13:10:43.999Z</time></trkpt><trkpt lat="43.76764792209901" lon="7.451325191792645"><ele>257.6</ele><time>2026-04-24T13:10:44.999Z</time></trkpt><trkpt lat="43.76773591530026" lon="7.4513094158576125"><ele>255.40000000000003</ele><time>2026-04-24T13:10:45.999Z</time></trkpt><trkpt lat="43.767833046931315" lon="7.451260819477831"><ele>253.20000000000002</ele><time>2026-04-24T13:10:46.999Z</time></trkpt><trkpt lat="43.767931821850574" lon="7.451207440456502"><ele>251.0</ele><time>2026-04-24T13:10:47.999Z</time></trkpt><trkpt lat="43.76802959268419" lon="7.45117209575937"><ele>251.0</ele><time>2026-04-24T13:10:48.999Z</time></trkpt><trkpt lat="43.76812585135784" lon="7.451152685711456"><ele>251.00000000000003</ele><time>2026-04-24T13:10:49.999Z</time></trkpt><trkpt lat="43.76822092937726" lon="7.45115094615553"><ele>251.00000000000003</ele><time>2026-04-24T13:10:50.999Z</time></trkpt><trkpt lat="43.76832074520354" lon="7.451150975136989"><ele>251.0</ele><time>2026-04-24T13:10:51.999Z</time></trkpt><trkpt lat="43.76841838818679" lon="7.45113310084086"><ele>251.0</ele><time>2026-04-24T13:10:52.999Z</time></trkpt><trkpt lat="43.768512023934804" lon="7.451089724493925"><ele>249.4</ele><time>2026-04-24T13:10:53.999Z</time></trkpt><trkpt lat="43.76860043612291" lon="7.45103492887364"><ele>247.8</ele><time>2026-04-24T13:10:54.999Z</time></trkpt><trkpt lat="43.768687696238324" lon="7.450990863463062"><ele>246.20000000000002</ele><time>2026-04-24T13:10:55.999Z</time></trkpt><trkpt lat="43.76877030419074" lon="7.451003379318747"><ele>244.60000000000002</ele><time>2026-04-24T13:10:56.999Z</time></trkpt><trkpt lat="43.76884889099243" lon="7.451053196270119"><ele>243.0</ele><time>2026-04-24T13:10:57.999Z</time></trkpt><trkpt lat="43.76892144601393" lon="7.4511295329458775"><ele>243.0</ele><time>2026-04-24T13:10:58.999Z</time></trkpt><trkpt lat="43.76898728570964" lon="7.451236745160208"><ele>243.0</ele><time>2026-04-24T13:10:59.999Z</time></trkpt><trkpt lat="43.76904836662268" lon="7.45135808284157"><ele>243.0</ele><time>2026-04-24T13:11:00.999Z</time></trkpt><trkpt lat="43.769104065076384" lon="7.451479613017631"><ele>243.0</ele><time>2026-04-24T13:11:01.999Z</time></trkpt><trkpt lat="43.76913463646574" lon="7.451594953848534"><ele>243.0</ele><time>2026-04-24T13:11:02.999Z</time></trkpt><trkpt lat="43.76911420769084" lon="7.451706770572829"><ele>240.8</ele><time>2026-04-24T13:11:03.999Z</time></trkpt><trkpt lat="43.769096718474515" lon="7.451816439233759"><ele>238.60000000000002</ele><time>2026-04-24T13:11:04.999Z</time></trkpt><trkpt lat="43.769002102040936" lon="7.451849253477846"><ele>236.39999999999998</ele><time>2026-04-24T13:11:05.999Z</time></trkpt><trkpt lat="43.768929990988056" lon="7.451936188219964"><ele>234.2</ele><time>2026-04-24T13:11:06.999Z</time></trkpt><trkpt lat="43.76884049423905" lon="7.452015006306791"><ele>232.0</ele><time>2026-04-24T13:11:07.999Z</time></trkpt><trkpt lat="43.768760899898794" lon="7.452118179753292"><ele>236.0</ele><time>2026-04-24T13:11:08.999Z</time></trkpt><trkpt lat="43.768678403344886" lon="7.452204891692894"><ele>240.0</ele><time>2026-04-24T13:11:09.999Z</time></trkpt><trkpt lat="43.76861743079071" lon="7.45234944349178"><ele>244.0</ele><time>2026-04-24T13:11:10.999Z</time></trkpt><trkpt lat="43.76855710372777" lon="7.452493174404075"><ele>248.0</ele><time>2026-04-24T13:11:11.999Z</time></trkpt><trkpt lat="43.76850333942736" lon="7.452638470632474"><ele>244.60000000000002</ele><time>2026-04-24T13:11:12.999Z</time></trkpt><trkpt lat="43.768448818589306" lon="7.452775084400335"><ele>241.20000000000002</ele><time>2026-04-24T13:11:13.999Z</time></trkpt><trkpt lat="43.768400454500984" lon="7.4529126246632345"><ele>237.8</ele><time>2026-04-24T13:11:14.999Z</time></trkpt><trkpt lat="43.76833455055129" lon="7.453029459587708"><ele>234.4</ele><time>2026-04-24T13:11:15.999Z</time></trkpt><trkpt lat="43.76826592298813" lon="7.4531446678390365"><ele>231.0</ele><time>2026-04-24T13:11:16.999Z</time></trkpt><trkpt lat="43.76817783614234" lon="7.453250582266202"><ele>231.0</ele><time>2026-04-24T13:11:17.999Z</time></trkpt><trkpt lat="43.768080031397915" lon="7.4533562177530035"><ele>231.0</ele><time>2026-04-24T13:11:18.999Z</time></trkpt><trkpt lat="43.76799232486366" lon="7.453475026408188"><ele>231.0</ele><time>2026-04-24T13:11:19.999Z</time></trkpt><trkpt lat="43.767884120349166" lon="7.453545027897949"><ele>231.0</ele><time>2026-04-24T13:11:20.999Z</time></trkpt><trkpt lat="43.7677815406433" lon="7.45361044940938"><ele>222.25</ele><time>2026-04-24T13:11:21.999Z</time></trkpt><trkpt lat="43.767671929739166" lon="7.453609585782883"><ele>213.5</ele><time>2026-04-24T13:11:22.999Z</time></trkpt><trkpt lat="43.76756417597457" lon="7.453664193919854"><ele>204.75</ele><time>2026-04-24T13:11:23.999Z</time></trkpt><trkpt lat="43.76745568777312" lon="7.453704986562252"><ele>196.0</ele><time>2026-04-24T13:11:24.999Z</time></trkpt><trkpt lat="43.76735160939384" lon="7.453787249576342"><ele>204.5</ele><time>2026-04-24T13:11:25.999Z</time></trkpt><trkpt lat="43.76725733047511" lon="7.4539091916998705"><ele>213.0</ele><time>2026-04-24T13:11:26.999Z</time></trkpt><trkpt lat="43.76716135167621" lon="7.454033098401582"><ele>221.5</ele><time>2026-04-24T13:11:27.999Z</time></trkpt><trkpt lat="43.76706348888796" lon="7.454140645774319"><ele>230.0</ele><time>2026-04-24T13:11:28.999Z</time></trkpt><trkpt lat="43.76694760084833" lon="7.454190852544749"><ele>228.6</ele><time>2026-04-24T13:11:29.999Z</time></trkpt><trkpt lat="43.766860358513554" lon="7.454279870046052"><ele>227.2</ele><time>2026-04-24T13:11:30.999Z</time></trkpt><trkpt lat="43.766781630984376" lon="7.454364018560456"><ele>225.8</ele><time>2026-04-24T13:11:31.999Z</time></trkpt><trkpt lat="43.76672890555094" lon="7.454485700022451"><ele>224.4</ele><time>2026-04-24T13:11:32.999Z</time></trkpt><trkpt lat="43.76669058250851" lon="7.454620507825488"><ele>223.0</ele><time>2026-04-24T13:11:33.999Z</time></trkpt><trkpt lat="43.766637424607836" lon="7.454741394857455"><ele>223.0</ele><time>2026-04-24T13:11:34.999Z</time></trkpt><trkpt lat="43.766576354501886" lon="7.454863639109721"><ele>223.0</ele><time>2026-04-24T13:11:35.999Z</time></trkpt><trkpt lat="43.76648037213279" lon="7.454933363474985"><ele>223.0</ele><time>2026-04-24T13:11:36.999Z</time></trkpt><trkpt lat="43.766381064365795" lon="7.455017839003199"><ele>223.0</ele><time>2026-04-24T13:11:37.999Z</time></trkpt><trkpt lat="43.76629422790002" lon="7.455117600266103"><ele>223.0</ele><time>2026-04-24T13:11:38.999Z</time></trkpt><trkpt lat="43.76620205129312" lon="7.455186886176441"><ele>223.0</ele><time>2026-04-24T13:11:39.999Z</time></trkpt><trkpt lat="43.766118212079135" lon="7.455256423968756"><ele>223.0</ele><time>2026-04-24T13:11:40.999Z</time></trkpt><trkpt lat="43.76603874540111" lon="7.455323636210102"><ele>223.0</ele><time>2026-04-24T13:11:41.999Z</time></trkpt><trkpt lat="43.76596041640757" lon="7.455386409208837"><ele>223.0</ele><time>2026-04-24T13:11:42.999Z</time></trkpt><trkpt lat="43.76587254836288" lon="7.455421941324685"><ele>223.0</ele><time>2026-04-24T13:11:43.999Z</time></trkpt><trkpt lat="43.7657764591279" lon="7.455485749881097"><ele>218.25</ele><time>2026-04-24T13:11:45Z</time></trkpt><trkpt lat="43.765681772246225" lon="7.455592920068456"><ele>213.5</ele><time>2026-04-24T13:11:46Z</time></trkpt><trkpt lat="43.765586689060214" lon="7.455691532475123"><ele>208.75</ele><time>2026-04-24T13:11:47Z</time></trkpt><trkpt lat="43.76550140089861" lon="7.45579963033264"><ele>204.0</ele><time>2026-04-24T13:11:48Z</time></trkpt><trkpt lat="43.76539635569253" lon="7.455885575199252"><ele>204.0</ele><time>2026-04-24T13:11:49Z</time></trkpt><trkpt lat="43.76529895595612" lon="7.455971416371674"><ele>204.0</ele><time>2026-04-24T13:11:50Z</time></trkpt><trkpt lat="43.7651829695598" lon="7.456042880524629"><ele>204.0</ele><time>2026-04-24T13:11:51Z</time></trkpt><trkpt lat="43.76507080613314" lon="7.4561305194779015"><ele>204.0</ele><time>2026-04-24T13:11:52Z</time></trkpt><trkpt lat="43.764959475968425" lon="7.456202980000516"><ele>205.75</ele><time>2026-04-24T13:11:53Z</time></trkpt><trkpt lat="43.764840851587635" lon="7.45625403487281"><ele>207.5</ele><time>2026-04-24T13:11:54Z</time></trkpt><trkpt lat="43.764730448873166" lon="7.456321966073923"><ele>209.25</ele><time>2026-04-24T13:11:55Z</time></trkpt><trkpt lat="43.76462267245912" lon="7.456375511119742"><ele>211.0</ele><time>2026-04-24T13:11:56Z</time></trkpt><trkpt lat="43.7645172936596" lon="7.456442629344668"><ele>211.0</ele><time>2026-04-24T13:11:57Z</time></trkpt><trkpt lat="43.764408344671516" lon="7.4564750981697205"><ele>211.0</ele><time>2026-04-24T13:11:58Z</time></trkpt><trkpt lat="43.76430488444793" lon="7.456520049530795"><ele>211.0</ele><time>2026-04-24T13:11:59Z</time></trkpt><trkpt lat="43.76420557953614" lon="7.4565742340620025"><ele>211.0</ele><time>2026-04-24T13:12:00Z</time></trkpt><trkpt lat="43.76411820503007" lon="7.456641079601309"><ele>211.0</ele><time>2026-04-24T13:12:01Z</time></trkpt><trkpt lat="43.764042415651225" lon="7.456723501346157"><ele>205.20000000000002</ele><time>2026-04-24T13:12:02Z</time></trkpt><trkpt lat="43.763972793158345" lon="7.456799316939246"><ele>199.4</ele><time>2026-04-24T13:12:03Z</time></trkpt><trkpt lat="43.76393848586371" lon="7.456900798727927"><ele>193.6</ele><time>2026-04-24T13:12:04Z</time></trkpt><trkpt lat="43.763952456888994" lon="7.45699759845281"><ele>187.8</ele><time>2026-04-24T13:12:05Z</time></trkpt><trkpt lat="43.76402913258445" lon="7.457140943292349"><ele>182.0</ele><time>2026-04-24T13:12:07Z</time></trkpt><trkpt lat="43.7641041356929" lon="7.457194763057418"><ele>180.0</ele><time>2026-04-24T13:12:08Z</time></trkpt><trkpt lat="43.764199760043105" lon="7.457257863258524"><ele>178.0</ele><time>2026-04-24T13:12:09Z</time></trkpt><trkpt lat="43.76429922096987" lon="7.4573357190305956"><ele>176.0</ele><time>2026-04-24T13:12:10Z</time></trkpt><trkpt lat="43.764391687518234" lon="7.457416592278841"><ele>174.0</ele><time>2026-04-24T13:12:11Z</time></trkpt><trkpt lat="43.764486212192665" lon="7.457507342545247"><ele>172.0</ele><time>2026-04-24T13:12:12Z</time></trkpt><trkpt lat="43.76458607141928" lon="7.457599114889518"><ele>176.16666666666669</ele><time>2026-04-24T13:12:13Z</time></trkpt><trkpt lat="43.764677247674854" lon="7.457688591725238"><ele>180.33333333333334</ele><time>2026-04-24T13:12:14Z</time></trkpt><trkpt lat="43.76475679717772" lon="7.457767829805145"><ele>184.5</ele><time>2026-04-24T13:12:15Z</time></trkpt><trkpt lat="43.764812053903505" lon="7.457851709427615"><ele>188.66666666666669</ele><time>2026-04-24T13:12:16Z</time></trkpt><trkpt lat="43.764834989553876" lon="7.4579400981277235"><ele>192.83333333333334</ele><time>2026-04-24T13:12:17Z</time></trkpt><trkpt lat="43.76480185546776" lon="7.458031112959302"><ele>197.0</ele><time>2026-04-24T13:12:18Z</time></trkpt><trkpt lat="43.764769783161" lon="7.458108729099584"><ele>197.00000000000003</ele><time>2026-04-24T13:12:19Z</time></trkpt><trkpt lat="43.76474245245358" lon="7.4581926832862475"><ele>197.0</ele><time>2026-04-24T13:12:20Z</time></trkpt><trkpt lat="43.76466411862387" lon="7.458195347950971"><ele>197.0</ele><time>2026-04-24T13:12:21Z</time></trkpt><trkpt lat="43.76458310187197" lon="7.458209486557907"><ele>197.0</ele><time>2026-04-24T13:12:22Z</time></trkpt><trkpt lat="43.76449581527657" lon="7.458239776132556"><ele>197.00000000000003</ele><time>2026-04-24T13:12:23Z</time></trkpt><trkpt lat="43.76440932412397" lon="7.458256487031284"><ele>197.0</ele><time>2026-04-24T13:12:24Z</time></trkpt><trkpt lat="43.76433407374611" lon="7.458288791022105"><ele>194.50000000000003</ele><time>2026-04-24T13:12:25Z</time></trkpt><trkpt lat="43.764260170034724" lon="7.458311678592558"><ele>192.0</ele><time>2026-04-24T13:12:26Z</time></trkpt><trkpt lat="43.76419657077533" lon="7.458389345328291"><ele>189.5</ele><time>2026-04-24T13:12:27Z</time></trkpt><trkpt lat="43.76415608368353" lon="7.458491509688797"><ele>187.0</ele><time>2026-04-24T13:12:28Z</time></trkpt><trkpt lat="43.76411770520754" lon="7.458609686648509"><ele>184.5</ele><time>2026-04-24T13:12:29Z</time></trkpt><trkpt lat="43.76407399152674" lon="7.458730880331691"><ele>182.0</ele><time>2026-04-24T13:12:30Z</time></trkpt><trkpt lat="43.764025180732695" lon="7.458817438980626"><ele>182.0</ele><time>2026-04-24T13:12:31Z</time></trkpt><trkpt lat="43.76396837809554" lon="7.458937489504048"><ele>182.0</ele><time>2026-04-24T13:12:32Z</time></trkpt><trkpt lat="43.763880319444674" lon="7.459021522138485"><ele>182.0</ele><time>2026-04-24T13:12:33Z</time></trkpt><trkpt lat="43.763806431192044" lon="7.459130615513907"><ele>182.0</ele><time>2026-04-24T13:12:34Z</time></trkpt><trkpt lat="43.76372476927747" lon="7.459222778017076"><ele>182.0</ele><time>2026-04-24T13:12:35Z</time></trkpt><trkpt lat="43.763655627965086" lon="7.4593130539045065"><ele>182.0</ele><time>2026-04-24T13:12:36Z</time></trkpt><trkpt lat="43.76360095807621" lon="7.459415616566448"><ele>182.0</ele><time>2026-04-24T13:12:37Z</time></trkpt><trkpt lat="43.76355299031831" lon="7.459521505196518"><ele>182.0</ele><time>2026-04-24T13:12:38Z</time></trkpt><trkpt lat="43.76351073180783" lon="7.459631056694731"><ele>182.0</ele><time>2026-04-24T13:12:39Z</time></trkpt><trkpt lat="43.763460064362974" lon="7.459729315167556"><ele>182.0</ele><time>2026-04-24T13:12:40Z</time></trkpt><trkpt lat="43.76343250399752" lon="7.459837871931806"><ele>182.0</ele><time>2026-04-24T13:12:41Z</time></trkpt><trkpt lat="43.763427014666796" lon="7.459959279287606"><ele>183.0</ele><time>2026-04-24T13:12:42Z</time></trkpt><trkpt lat="43.76347482150966" lon="7.460084474340782"><ele>184.0</ele><time>2026-04-24T13:12:43Z</time></trkpt><trkpt lat="43.76350933948396" lon="7.460203216929155"><ele>185.0</ele><time>2026-04-24T13:12:44Z</time></trkpt><trkpt lat="43.7635532491882" lon="7.460322335893554"><ele>186.0</ele><time>2026-04-24T13:12:45Z</time></trkpt><trkpt lat="43.76360486936775" lon="7.460418290093597"><ele>187.0</ele><time>2026-04-24T13:12:46Z</time></trkpt><trkpt lat="43.76366897281684" lon="7.460497249330809"><ele>187.0</ele><time>2026-04-24T13:12:47Z</time></trkpt><trkpt lat="43.763733212587304" lon="7.460574697872053"><ele>187.0</ele><time>2026-04-24T13:12:48Z</time></trkpt><trkpt lat="43.76379360899385" lon="7.460646629506933"><ele>187.0</ele><time>2026-04-24T13:12:49Z</time></trkpt><trkpt lat="43.76385050467961" lon="7.460737590738877"><ele>187.0</ele><time>2026-04-24T13:12:50Z</time></trkpt><trkpt lat="43.76388450132851" lon="7.460837125404501"><ele>187.0</ele><time>2026-04-24T13:12:51Z</time></trkpt><trkpt lat="43.76385050155217" lon="7.460950562556088"><ele>187.0</ele><time>2026-04-24T13:12:52Z</time></trkpt><trkpt lat="43.76381785470475" lon="7.461060811103372"><ele>187.0</ele><time>2026-04-24T13:12:53Z</time></trkpt><trkpt lat="43.763744572612836" lon="7.461157019707085"><ele>187.0</ele><time>2026-04-24T13:12:53.999Z</time></trkpt><trkpt lat="43.763696900026225" lon="7.461260049496574"><ele>187.0</ele><time>2026-04-24T13:12:54.999Z</time></trkpt><trkpt lat="43.76367684022654" lon="7.461374160786122"><ele>187.0</ele><time>2026-04-24T13:12:55.999Z</time></trkpt><trkpt lat="43.763656873607935" lon="7.4614843219009686"><ele>187.0</ele><time>2026-04-24T13:12:56.999Z</time></trkpt><trkpt lat="43.763651522737156" lon="7.461601517871317"><ele>187.0</ele><time>2026-04-24T13:12:57.999Z</time></trkpt><trkpt lat="43.76366143356093" lon="7.461713407753372"><ele>187.0</ele><time>2026-04-24T13:12:58.999Z</time></trkpt><trkpt lat="43.76369259509378" lon="7.461824511736736"><ele>187.0</ele><time>2026-04-24T13:12:59.999Z</time></trkpt><trkpt lat="43.76373438518941" lon="7.4619370697994105"><ele>187.0</ele><time>2026-04-24T13:13:00.999Z</time></trkpt><trkpt lat="43.76375046352237" lon="7.462056364546649"><ele>187.0</ele><time>2026-04-24T13:13:01.999Z</time></trkpt><trkpt lat="43.763754418677095" lon="7.462166318890575"><ele>187.0</ele><time>2026-04-24T13:13:02.999Z</time></trkpt><trkpt lat="43.76373480721328" lon="7.4622738230418975"><ele>187.0</ele><time>2026-04-24T13:13:03.999Z</time></trkpt><trkpt lat="43.76368650235542" lon="7.462362642908332"><ele>187.0</ele><time>2026-04-24T13:13:04.999Z</time></trkpt><trkpt lat="43.76360583577037" lon="7.46239896177257"><ele>187.0</ele><time>2026-04-24T13:13:05.999Z</time></trkpt><trkpt lat="43.763526910869196" lon="7.462473025183242"><ele>187.0</ele><time>2026-04-24T13:13:06.999Z</time></trkpt><trkpt lat="43.763458164912485" lon="7.462570765408787"><ele>187.0</ele><time>2026-04-24T13:13:07.999Z</time></trkpt><trkpt lat="43.76337962790064" lon="7.462681660113904"><ele>187.0</ele><time>2026-04-24T13:13:08.999Z</time></trkpt><trkpt lat="43.76328898944431" lon="7.462793031766955"><ele>181.5</ele><time>2026-04-24T13:13:09.999Z</time></trkpt><trkpt lat="43.763198381256025" lon="7.462924612229848"><ele>176.0</ele><time>2026-04-24T13:13:10.999Z</time></trkpt><trkpt lat="43.76311724174331" lon="7.46307342189766"><ele>170.5</ele><time>2026-04-24T13:13:11.999Z</time></trkpt><trkpt lat="43.76302534635967" lon="7.463210200098495"><ele>165.0</ele><time>2026-04-24T13:13:12.999Z</time></trkpt><trkpt lat="43.76293285846215" lon="7.463343805998412"><ele>165.0</ele><time>2026-04-24T13:13:13.999Z</time></trkpt><trkpt lat="43.76283211648307" lon="7.463469804582746"><ele>165.0</ele><time>2026-04-24T13:13:15Z</time></trkpt><trkpt lat="43.76271726335605" lon="7.463571054799226"><ele>165.0</ele><time>2026-04-24T13:13:16Z</time></trkpt><trkpt lat="43.762611292634034" lon="7.463684638044713"><ele>165.0</ele><time>2026-04-24T13:13:17Z</time></trkpt><trkpt lat="43.762526389778095" lon="7.463820182145079"><ele>162.5</ele><time>2026-04-24T13:13:18Z</time></trkpt><trkpt lat="43.76243820094643" lon="7.4639457003405365"><ele>160.0</ele><time>2026-04-24T13:13:19Z</time></trkpt><trkpt lat="43.762331453932305" lon="7.4640403976964596"><ele>157.5</ele><time>2026-04-24T13:13:20Z</time></trkpt><trkpt lat="43.76222990173207" lon="7.4641268922202455"><ele>155.0</ele><time>2026-04-24T13:13:21Z</time></trkpt><trkpt lat="43.76212146474427" lon="7.464209893173743"><ele>155.0</ele><time>2026-04-24T13:13:22Z</time></trkpt><trkpt lat="43.76202339670785" lon="7.46429794098724"><ele>155.0</ele><time>2026-04-24T13:13:23Z</time></trkpt><trkpt lat="43.76194571339145" lon="7.464423241616597"><ele>155.0</ele><time>2026-04-24T13:13:24Z</time></trkpt><trkpt lat="43.76187129521893" lon="7.464546711934923"><ele>155.0</ele><time>2026-04-24T13:13:25Z</time></trkpt><trkpt lat="43.761805413871166" lon="7.464667030694973"><ele>150.8</ele><time>2026-04-24T13:13:26Z</time></trkpt><trkpt lat="43.761733186196544" lon="7.464774359191995"><ele>146.6</ele><time>2026-04-24T13:13:27Z</time></trkpt><trkpt lat="43.76169644565012" lon="7.464912717023669"><ele>142.4</ele><time>2026-04-24T13:13:28Z</time></trkpt><trkpt lat="43.761641272448145" lon="7.465029082805947"><ele>138.2</ele><time>2026-04-24T13:13:29Z</time></trkpt><trkpt lat="43.761595734879194" lon="7.465156126697799"><ele>134.0</ele><time>2026-04-24T13:13:30Z</time></trkpt><trkpt lat="43.76153954826016" lon="7.4652666146263655"><ele>134.0</ele><time>2026-04-24T13:13:31Z</time></trkpt><trkpt lat="43.761468914712204" lon="7.465351246919538"><ele>134.0</ele><time>2026-04-24T13:13:32Z</time></trkpt><trkpt lat="43.761378427698425" lon="7.465408255657199"><ele>134.0</ele><time>2026-04-24T13:13:33Z</time></trkpt><trkpt lat="43.761287905002426" lon="7.465494334161781"><ele>134.0</ele><time>2026-04-24T13:13:34Z</time></trkpt><trkpt lat="43.761190789461764" lon="7.465578037729246"><ele>134.0</ele><time>2026-04-24T13:13:35Z</time></trkpt><trkpt lat="43.76110404421683" lon="7.4656722884097055"><ele>132.25</ele><time>2026-04-24T13:13:36Z</time></trkpt><trkpt lat="43.76102771206219" lon="7.465776326478344"><ele>130.5</ele><time>2026-04-24T13:13:37Z</time></trkpt><trkpt lat="43.760950199942336" lon="7.465890134804455"><ele>128.75</ele><time>2026-04-24T13:13:38Z</time></trkpt><trkpt lat="43.76085486950634" lon="7.465977568668521"><ele>127.0</ele><time>2026-04-24T13:13:39Z</time></trkpt><trkpt lat="43.7607523998061" lon="7.46605187204413"><ele>127.0</ele><time>2026-04-24T13:13:40Z</time></trkpt><trkpt lat="43.760643098715086" lon="7.466128313432494"><ele>127.0</ele><time>2026-04-24T13:13:41Z</time></trkpt><trkpt lat="43.76054318496219" lon="7.466214862136262"><ele>127.0</ele><time>2026-04-24T13:13:42Z</time></trkpt><trkpt lat="43.76044130775215" lon="7.466286363462788"><ele>127.0</ele><time>2026-04-24T13:13:43Z</time></trkpt><trkpt lat="43.76034657294628" lon="7.466356377000584"><ele>125.39999999999999</ele><time>2026-04-24T13:13:44Z</time></trkpt><trkpt lat="43.76025368513708" lon="7.466433674024366"><ele>123.79999999999998</ele><time>2026-04-24T13:13:45Z</time></trkpt><trkpt lat="43.760171655098254" lon="7.466518344918523"><ele>122.2</ele><time>2026-04-24T13:13:46Z</time></trkpt><trkpt lat="43.76009338602432" lon="7.466613933097525"><ele>120.6</ele><time>2026-04-24T13:13:47Z</time></trkpt><trkpt lat="43.76001343091048" lon="7.466719405026159"><ele>119.0</ele><time>2026-04-24T13:13:48Z</time></trkpt><trkpt lat="43.75993457814191" lon="7.466826217680201"><ele>119.0</ele><time>2026-04-24T13:13:49Z</time></trkpt><trkpt lat="43.759855384571296" lon="7.466923910163613"><ele>119.0</ele><time>2026-04-24T13:13:50Z</time></trkpt><trkpt lat="43.75977210351138" lon="7.467016956516547"><ele>119.0</ele><time>2026-04-24T13:13:51Z</time></trkpt><trkpt lat="43.759684770386" lon="7.467112601791585"><ele>119.0</ele><time>2026-04-24T13:13:52Z</time></trkpt><trkpt lat="43.75959089719123" lon="7.4672043338246"><ele>119.0</ele><time>2026-04-24T13:13:53Z</time></trkpt><trkpt lat="43.759490775554134" lon="7.467300620063891"><ele>116.75</ele><time>2026-04-24T13:13:54Z</time></trkpt><trkpt lat="43.75938271051931" lon="7.467406579096642"><ele>114.5</ele><time>2026-04-24T13:13:55Z</time></trkpt><trkpt lat="43.75927512193731" lon="7.467518142934004"><ele>112.25</ele><time>2026-04-24T13:13:56Z</time></trkpt><trkpt lat="43.759174821330674" lon="7.467641850648197"><ele>110.0</ele><time>2026-04-24T13:13:57Z</time></trkpt><trkpt lat="43.75907803622845" lon="7.467768326743643"><ele>110.0</ele><time>2026-04-24T13:13:58Z</time></trkpt><trkpt lat="43.75898663963023" lon="7.467898465439926"><ele>110.0</ele><time>2026-04-24T13:13:59Z</time></trkpt><trkpt lat="43.758902822636024" lon="7.46803029031685"><ele>110.0</ele><time>2026-04-24T13:14:00Z</time></trkpt><trkpt lat="43.75882147785935" lon="7.468162025082084"><ele>110.0</ele><time>2026-04-24T13:14:01Z</time></trkpt><trkpt lat="43.75874270257183" lon="7.468293313352707"><ele>108.6</ele><time>2026-04-24T13:14:02Z</time></trkpt><trkpt lat="43.75866962429078" lon="7.4684246863829955"><ele>107.2</ele><time>2026-04-24T13:14:03Z</time></trkpt><trkpt lat="43.758606896216655" lon="7.468548731222378"><ele>105.80000000000001</ele><time>2026-04-24T13:14:04Z</time></trkpt><trkpt lat="43.75856528850514" lon="7.4686396626913405"><ele>104.4</ele><time>2026-04-24T13:14:05Z</time></trkpt><trkpt lat="43.75853300093319" lon="7.468717106679396"><ele>103.0</ele><time>2026-04-24T13:14:06Z</time></trkpt><trkpt lat="43.758479523741336" lon="7.468819352992903"><ele>103.00000000000001</ele><time>2026-04-24T13:14:08Z</time></trkpt><trkpt lat="43.75845206828263" lon="7.468917020987571"><ele>103.0</ele><time>2026-04-24T13:14:10Z</time></trkpt><trkpt lat="43.75843814099542" lon="7.46903747341168"><ele>103.0</ele><time>2026-04-24T13:14:12Z</time></trkpt><trkpt lat="43.75844120609383" lon="7.46917181838327"><ele>103.0</ele><time>2026-04-24T13:14:14Z</time></trkpt><trkpt lat="43.75847841505839" lon="7.469272691475376"><ele>103.00000000000001</ele><time>2026-04-24T13:14:16Z</time></trkpt><trkpt lat="43.75849719342049" lon="7.469362299867346"><ele>103.0</ele><time>2026-04-24T13:14:18Z</time></trkpt><trkpt lat="43.758497005078574" lon="7.469474086351045"><ele>103.0</ele><time>2026-04-24T13:14:27Z</time></trkpt><trkpt lat="43.75842955890364" lon="7.469592601176259"><ele>103.0</ele><time>2026-04-24T13:14:29Z</time></trkpt><trkpt lat="43.75844972048961" lon="7.46969037853882"><ele>103.0</ele><time>2026-04-24T13:14:30Z</time></trkpt><trkpt lat="43.7585338703241" lon="7.4697439164765065"><ele>103.0</ele><time>2026-04-24T13:14:31Z</time></trkpt><trkpt lat="43.75861059330178" lon="7.469821898444916"><ele>103.0</ele><time>2026-04-24T13:14:32Z</time></trkpt><trkpt lat="43.75868903023635" lon="7.469931598129662"><ele>105.5</ele><time>2026-04-24T13:14:33Z</time></trkpt><trkpt lat="43.75877726936036" lon="7.47005403861906"><ele>108.0</ele><time>2026-04-24T13:14:34Z</time></trkpt><trkpt lat="43.7588676022105" lon="7.470156163855214"><ele>110.5</ele><time>2026-04-24T13:14:35Z</time></trkpt><trkpt lat="43.758961357531234" lon="7.470247716121075"><ele>113.0</ele><time>2026-04-24T13:14:36Z</time></trkpt><trkpt lat="43.75905030770713" lon="7.470323400550925"><ele>112.99999999999999</ele><time>2026-04-24T13:14:37Z</time></trkpt><trkpt lat="43.7591256323423" lon="7.470392531011405"><ele>113.0</ele><time>2026-04-24T13:14:38Z</time></trkpt><trkpt lat="43.759195476379595" lon="7.470452430212795"><ele>113.0</ele><time>2026-04-24T13:14:39Z</time></trkpt><trkpt lat="43.75925799382688" lon="7.470501876736452"><ele>113.0</ele><time>2026-04-24T13:14:40Z</time></trkpt><trkpt lat="43.75931885836707" lon="7.470545482034319"><ele>112.99999999999999</ele><time>2026-04-24T13:14:41Z</time></trkpt><trkpt lat="43.7593966181908" lon="7.470602410933538"><ele>113.0</ele><time>2026-04-24T13:14:42Z</time></trkpt><trkpt lat="43.759494210201645" lon="7.470649309526316"><ele>110.4</ele><time>2026-04-24T13:14:43Z</time></trkpt><trkpt lat="43.75959224451454" lon="7.470692765046238"><ele>107.80000000000001</ele><time>2026-04-24T13:14:44Z</time></trkpt><trkpt lat="43.75967760476388" lon="7.4707247862359445"><ele>105.2</ele><time>2026-04-24T13:14:45Z</time></trkpt><trkpt lat="43.7597612316211" lon="7.470753540110742"><ele>102.6</ele><time>2026-04-24T13:14:46Z</time></trkpt><trkpt lat="43.759845765722474" lon="7.470782129847575"><ele>100.0</ele><time>2026-04-24T13:14:47Z</time></trkpt><trkpt lat="43.75993266186842" lon="7.470802631578774"><ele>100.00000000000001</ele><time>2026-04-24T13:14:48Z</time></trkpt><trkpt lat="43.76002088638275" lon="7.470817517962888"><ele>100.0</ele><time>2026-04-24T13:14:49Z</time></trkpt><trkpt lat="43.76010506938725" lon="7.470827020287976"><ele>100.0</ele><time>2026-04-24T13:14:50Z</time></trkpt><trkpt lat="43.7601897461715" lon="7.470833716345267"><ele>100.0</ele><time>2026-04-24T13:14:51Z</time></trkpt><trkpt lat="43.76027357930824" lon="7.470834941777174"><ele>100.00000000000001</ele><time>2026-04-24T13:14:52Z</time></trkpt><trkpt lat="43.760358221560175" lon="7.470831926608707"><ele>100.0</ele><time>2026-04-24T13:14:53Z</time></trkpt><trkpt lat="43.76044667267445" lon="7.470833940593799"><ele>99.8</ele><time>2026-04-24T13:14:54Z</time></trkpt><trkpt lat="43.760536444514436" lon="7.470837541095923"><ele>99.6</ele><time>2026-04-24T13:14:55Z</time></trkpt><trkpt lat="43.76063331365835" lon="7.470847194849477"><ele>99.4</ele><time>2026-04-24T13:14:56Z</time></trkpt><trkpt lat="43.760734046806085" lon="7.470866694736658"><ele>99.2</ele><time>2026-04-24T13:14:57Z</time></trkpt><trkpt lat="43.7608337375654" lon="7.470895320081337"><ele>99.0</ele><time>2026-04-24T13:14:58Z</time></trkpt><trkpt lat="43.760930679202865" lon="7.4709263766820255"><ele>99.0</ele><time>2026-04-24T13:14:59Z</time></trkpt><trkpt lat="43.76102469594379" lon="7.470963665195247"><ele>99.0</ele><time>2026-04-24T13:15:00Z</time></trkpt><trkpt lat="43.76111813569852" lon="7.470995148151547"><ele>99.0</ele><time>2026-04-24T13:15:01Z</time></trkpt><trkpt lat="43.76121189362462" lon="7.47102153694126"><ele>99.0</ele><time>2026-04-24T13:15:02Z</time></trkpt><trkpt lat="43.7613053864923" lon="7.471039286990338"><ele>99.0</ele><time>2026-04-24T13:15:03Z</time></trkpt><trkpt lat="43.761394905953956" lon="7.471034866926775"><ele>97.6</ele><time>2026-04-24T13:15:04Z</time></trkpt><trkpt lat="43.76148531235958" lon="7.471009231104493"><ele>96.2</ele><time>2026-04-24T13:15:05Z</time></trkpt><trkpt lat="43.761582051418756" lon="7.470968997748298"><ele>94.8</ele><time>2026-04-24T13:15:06Z</time></trkpt><trkpt lat="43.76167756245608" lon="7.470912768629888"><ele>93.39999999999999</ele><time>2026-04-24T13:15:07Z</time></trkpt><trkpt lat="43.761765847939955" lon="7.470860793493419"><ele>92.0</ele><time>2026-04-24T13:15:08Z</time></trkpt><trkpt lat="43.76185556349258" lon="7.470817298778357"><ele>91.39999999999999</ele><time>2026-04-24T13:15:09Z</time></trkpt><trkpt lat="43.7619474309959" lon="7.470780640928463"><ele>90.8</ele><time>2026-04-24T13:15:10Z</time></trkpt><trkpt lat="43.76203591697185" lon="7.470747427640725"><ele>90.2</ele><time>2026-04-24T13:15:11Z</time></trkpt><trkpt lat="43.76212592947133" lon="7.47072521788021"><ele>89.6</ele><time>2026-04-24T13:15:12Z</time></trkpt><trkpt lat="43.76221436980489" lon="7.470717546967562"><ele>89.0</ele><time>2026-04-24T13:15:13Z</time></trkpt><trkpt lat="43.76230281556538" lon="7.470737374383294"><ele>89.0</ele><time>2026-04-24T13:15:14Z</time></trkpt><trkpt lat="43.76238558957874" lon="7.4707837033712226"><ele>89.0</ele><time>2026-04-24T13:15:15Z</time></trkpt><trkpt lat="43.76245977922339" lon="7.470863712999464"><ele>89.0</ele><time>2026-04-24T13:15:16Z</time></trkpt><trkpt lat="43.76251375125079" lon="7.470964068356346"><ele>89.0</ele><time>2026-04-24T13:15:17Z</time></trkpt><trkpt lat="43.76255151229226" lon="7.4710867067894995"><ele>89.0</ele><time>2026-04-24T13:15:18Z</time></trkpt><trkpt lat="43.762570286076375" lon="7.471225581068344"><ele>88.16666666666667</ele><time>2026-04-24T13:15:19Z</time></trkpt><trkpt lat="43.76257530238698" lon="7.471359708311127"><ele>87.33333333333334</ele><time>2026-04-24T13:15:20Z</time></trkpt><trkpt lat="43.76257135013738" lon="7.4714828811998615"><ele>86.5</ele><time>2026-04-24T13:15:21Z</time></trkpt><trkpt lat="43.76256124133636" lon="7.471596440400035"><ele>85.66666666666667</ele><time>2026-04-24T13:15:22Z</time></trkpt><trkpt lat="43.7625467327937" lon="7.471697025606689"><ele>84.83333333333333</ele><time>2026-04-24T13:15:23Z</time></trkpt><trkpt lat="43.762532887858626" lon="7.471794175983909"><ele>84.0</ele><time>2026-04-24T13:15:24Z</time></trkpt><trkpt lat="43.762516388132376" lon="7.471888581474761"><ele>84.0</ele><time>2026-04-24T13:15:25Z</time></trkpt><trkpt lat="43.76249807437657" lon="7.47199061729956"><ele>84.0</ele><time>2026-04-24T13:15:26Z</time></trkpt><trkpt lat="43.76247899167953" lon="7.472092250231962"><ele>84.0</ele><time>2026-04-24T13:15:27Z</time></trkpt><trkpt lat="43.76246181550237" lon="7.472187950988022"><ele>84.0</ele><time>2026-04-24T13:15:28Z</time></trkpt><trkpt lat="43.76244477343223" lon="7.472283817123934"><ele>84.0</ele><time>2026-04-24T13:15:29Z</time></trkpt><trkpt lat="43.76242563292134" lon="7.472373463731112"><ele>84.0</ele><time>2026-04-24T13:15:30Z</time></trkpt><trkpt lat="43.76240710794559" lon="7.472463459959765"><ele>84.0</ele><time>2026-04-24T13:15:31Z</time></trkpt><trkpt lat="43.762382786809084" lon="7.472561666063061"><ele>83.6</ele><time>2026-04-24T13:15:32Z</time></trkpt><trkpt lat="43.762351673927114" lon="7.472664922161096"><ele>83.2</ele><time>2026-04-24T13:15:33Z</time></trkpt><trkpt lat="43.76230672107395" lon="7.472768499213311"><ele>82.8</ele><time>2026-04-24T13:15:34Z</time></trkpt><trkpt lat="43.76225001195933" lon="7.472867203703383"><ele>82.39999999999999</ele><time>2026-04-24T13:15:35Z</time></trkpt><trkpt lat="43.762186256579334" lon="7.472962099585633"><ele>82.0</ele><time>2026-04-24T13:15:36Z</time></trkpt><trkpt lat="43.762110456957146" lon="7.473051018565016"><ele>82.8</ele><time>2026-04-24T13:15:37Z</time></trkpt><trkpt lat="43.762028030182854" lon="7.473130267258852"><ele>83.6</ele><time>2026-04-24T13:15:38Z</time></trkpt><trkpt lat="43.761939991009456" lon="7.473191032111077"><ele>84.39999999999999</ele><time>2026-04-24T13:15:39Z</time></trkpt><trkpt lat="43.76184744334997" lon="7.473230344841985"><ele>85.19999999999999</ele><time>2026-04-24T13:15:40Z</time></trkpt><trkpt lat="43.76175783040047" lon="7.473270346575968"><ele>86.0</ele><time>2026-04-24T13:15:41Z</time></trkpt><trkpt lat="43.76167573957558" lon="7.47333827950769"><ele>82.8</ele><time>2026-04-24T13:15:42Z</time></trkpt><trkpt lat="43.761602200403324" lon="7.473431035315811"><ele>79.6</ele><time>2026-04-24T13:15:43Z</time></trkpt><trkpt lat="43.76153603023809" lon="7.473548296853578"><ele>76.4</ele><time>2026-04-24T13:15:44Z</time></trkpt><trkpt lat="43.76148061032274" lon="7.473685896046445"><ele>73.2</ele><time>2026-04-24T13:15:45Z</time></trkpt><trkpt lat="43.76144259397075" lon="7.47383684842683"><ele>70.0</ele><time>2026-04-24T13:15:46Z</time></trkpt><trkpt lat="43.76142152481349" lon="7.473986915401457"><ele>70.0</ele><time>2026-04-24T13:15:47Z</time></trkpt><trkpt lat="43.761394572070934" lon="7.474128567225574"><ele>70.0</ele><time>2026-04-24T13:15:48Z</time></trkpt><trkpt lat="43.76135268691324" lon="7.474251285691771"><ele>70.0</ele><time>2026-04-24T13:15:49Z</time></trkpt><trkpt lat="43.76129507038692" lon="7.47436513451833"><ele>70.0</ele><time>2026-04-24T13:15:50Z</time></trkpt><trkpt lat="43.76122996537506" lon="7.4744678823863175"><ele>70.0</ele><time>2026-04-24T13:15:51Z</time></trkpt><trkpt lat="43.76116081124153" lon="7.474559777461092"><ele>71.4</ele><time>2026-04-24T13:15:52Z</time></trkpt><trkpt lat="43.76109339989801" lon="7.474654774618011"><ele>72.8</ele><time>2026-04-24T13:15:53Z</time></trkpt><trkpt lat="43.76102273503995" lon="7.474756834933662"><ele>74.2</ele><time>2026-04-24T13:15:54Z</time></trkpt><trkpt lat="43.760954229227615" lon="7.4748561695922255"><ele>75.6</ele><time>2026-04-24T13:15:55Z</time></trkpt><trkpt lat="43.76089080153564" lon="7.474958743268006"><ele>77.0</ele><time>2026-04-24T13:15:56Z</time></trkpt><trkpt lat="43.760833140144705" lon="7.475054304965471"><ele>76.16666666666667</ele><time>2026-04-24T13:15:57Z</time></trkpt><trkpt lat="43.76077751452425" lon="7.475143435594045"><ele>75.33333333333334</ele><time>2026-04-24T13:15:58Z</time></trkpt><trkpt lat="43.760724264585846" lon="7.475232035825379"><ele>74.5</ele><time>2026-04-24T13:15:59Z</time></trkpt><trkpt lat="43.76067548497011" lon="7.475320699997231"><ele>73.66666666666667</ele><time>2026-04-24T13:16:00Z</time></trkpt><trkpt lat="43.760623350753086" lon="7.47540860151084"><ele>72.83333333333333</ele><time>2026-04-24T13:16:01Z</time></trkpt><trkpt lat="43.76057030378739" lon="7.4755077061994015"><ele>72.0</ele><time>2026-04-24T13:16:02Z</time></trkpt><trkpt lat="43.76051338882564" lon="7.475584548816398"><ele>72.0</ele><time>2026-04-24T13:16:03Z</time></trkpt><trkpt lat="43.760460071184625" lon="7.475674823531117"><ele>72.0</ele><time>2026-04-24T13:16:04Z</time></trkpt><trkpt lat="43.760400581021564" lon="7.475770516514013"><ele>72.0</ele><time>2026-04-24T13:16:05Z</time></trkpt><trkpt lat="43.76033577704085" lon="7.47586813807164"><ele>72.0</ele><time>2026-04-24T13:16:06Z</time></trkpt><trkpt lat="43.76025650311941" lon="7.475954592668595"><ele>72.0</ele><time>2026-04-24T13:16:07Z</time></trkpt><trkpt lat="43.76015977331068" lon="7.4760284831250345"><ele>69.0</ele><time>2026-04-24T13:16:08Z</time></trkpt><trkpt lat="43.76004781258684" lon="7.476090201392385"><ele>66.0</ele><time>2026-04-24T13:16:09Z</time></trkpt><trkpt lat="43.7599255161563" lon="7.476163708986797"><ele>63.0</ele><time>2026-04-24T13:16:10Z</time></trkpt><trkpt lat="43.75981435689759" lon="7.476241718121361"><ele>60.0</ele><time>2026-04-24T13:16:11Z</time></trkpt><trkpt lat="43.75971097316535" lon="7.4763226872114"><ele>60.0</ele><time>2026-04-24T13:16:12Z</time></trkpt><trkpt lat="43.759617264546144" lon="7.476420405695581"><ele>60.0</ele><time>2026-04-24T13:16:13Z</time></trkpt><trkpt lat="43.75953780313581" lon="7.47653875539504"><ele>60.0</ele><time>2026-04-24T13:16:14Z</time></trkpt><trkpt lat="43.7594817177169" lon="7.47666202814633"><ele>60.0</ele><time>2026-04-24T13:16:15Z</time></trkpt><trkpt lat="43.75945263167089" lon="7.47678746524484"><ele>60.0</ele><time>2026-04-24T13:16:16Z</time></trkpt><trkpt lat="43.75945362891622" lon="7.476914953521606"><ele>60.0</ele><time>2026-04-24T13:16:17Z</time></trkpt><trkpt lat="43.75948499636374" lon="7.4770323351057"><ele>60.0</ele><time>2026-04-24T13:16:18Z</time></trkpt><trkpt lat="43.75954231891319" lon="7.477127341705746"><ele>60.0</ele><time>2026-04-24T13:16:19Z</time></trkpt><trkpt lat="43.75961709273973" lon="7.477214838541199"><ele>60.0</ele><time>2026-04-24T13:16:20Z</time></trkpt><trkpt lat="43.75969754240833" lon="7.477301954411201"><ele>60.0</ele><time>2026-04-24T13:16:21Z</time></trkpt><trkpt lat="43.75977644630259" lon="7.477381121613563"><ele>57.6</ele><time>2026-04-24T13:16:22Z</time></trkpt><trkpt lat="43.75985508157544" lon="7.477458206254264"><ele>55.2</ele><time>2026-04-24T13:16:23Z</time></trkpt><trkpt lat="43.75993072461221" lon="7.477537287443289"><ele>52.8</ele><time>2026-04-24T13:16:24Z</time></trkpt><trkpt lat="43.760006043517905" lon="7.477611630315157"><ele>50.4</ele><time>2026-04-24T13:16:25Z</time></trkpt><trkpt lat="43.760086718748624" lon="7.477675027254143"><ele>48.0</ele><time>2026-04-24T13:16:26Z</time></trkpt><trkpt lat="43.760168171862546" lon="7.477740234252118"><ele>46.199999999999996</ele><time>2026-04-24T13:16:27Z</time></trkpt><trkpt lat="43.76024994514047" lon="7.477808220738118"><ele>44.4</ele><time>2026-04-24T13:16:28Z</time></trkpt><trkpt lat="43.76033314307631" lon="7.477875986133188"><ele>42.599999999999994</ele><time>2026-04-24T13:16:29Z</time></trkpt><trkpt lat="43.76041546509445" lon="7.477944632868643"><ele>40.8</ele><time>2026-04-24T13:16:30Z</time></trkpt><trkpt lat="43.76049715497845" lon="7.47801292259416"><ele>39.0</ele><time>2026-04-24T13:16:31Z</time></trkpt><trkpt lat="43.76057382792849" lon="7.478074469974908"><ele>39.0</ele><time>2026-04-24T13:16:32Z</time></trkpt><trkpt lat="43.760647845514605" lon="7.478129974204693"><ele>39.0</ele><time>2026-04-24T13:16:33Z</time></trkpt><trkpt lat="43.76072082880859" lon="7.4781882103387245"><ele>39.0</ele><time>2026-04-24T13:16:34Z</time></trkpt><trkpt lat="43.76079265166907" lon="7.478246554975626"><ele>39.0</ele><time>2026-04-24T13:16:35Z</time></trkpt><trkpt lat="43.760866132567934" lon="7.478302658787869"><ele>39.0</ele><time>2026-04-24T13:16:36Z</time></trkpt><trkpt lat="43.760937631476786" lon="7.478359632701525"><ele>39.0</ele><time>2026-04-24T13:16:37Z</time></trkpt><trkpt lat="43.76101047738513" lon="7.478412831859707"><ele>39.0</ele><time>2026-04-24T13:16:38Z</time></trkpt><trkpt lat="43.76108371517122" lon="7.47846392618799"><ele>39.0</ele><time>2026-04-24T13:16:39Z</time></trkpt><trkpt lat="43.7611580454076" lon="7.478512967577089"><ele>39.0</ele><time>2026-04-24T13:16:40Z</time></trkpt><trkpt lat="43.76123240634882" lon="7.478556341116316"><ele>39.0</ele><time>2026-04-24T13:16:41Z</time></trkpt><trkpt lat="43.76130579346376" lon="7.478595513599181"><ele>39.0</ele><time>2026-04-24T13:16:42Z</time></trkpt><trkpt lat="43.761380041534835" lon="7.478633220780987"><ele>39.0</ele><time>2026-04-24T13:16:43Z</time></trkpt><trkpt lat="43.76145331358061" lon="7.478660991249515"><ele>39.0</ele><time>2026-04-24T13:16:44Z</time></trkpt><trkpt lat="43.761531739409705" lon="7.4786712539684554"><ele>39.0</ele><time>2026-04-24T13:16:45Z</time></trkpt><trkpt lat="43.76161112094645" lon="7.47866918393783"><ele>39.0</ele><time>2026-04-24T13:16:46Z</time></trkpt><trkpt lat="43.76169541612137" lon="7.478652958595509"><ele>39.0</ele><time>2026-04-24T13:16:47Z</time></trkpt><trkpt lat="43.76178302723064" lon="7.478629455579231"><ele>39.0</ele><time>2026-04-24T13:16:48Z</time></trkpt><trkpt lat="43.76186976909292" lon="7.478606191488411"><ele>39.0</ele><time>2026-04-24T13:16:49Z</time></trkpt><trkpt lat="43.76195631375847" lon="7.478583961980599"><ele>38.666666666666664</ele><time>2026-04-24T13:16:50Z</time></trkpt><trkpt lat="43.76204279529391" lon="7.478562970000411"><ele>38.333333333333336</ele><time>2026-04-24T13:16:51Z</time></trkpt><trkpt lat="43.76212960393689" lon="7.478547456267552"><ele>38.0</ele><time>2026-04-24T13:16:52Z</time></trkpt><trkpt lat="43.7622169922739" lon="7.478546494126174"><ele>37.66666666666667</ele><time>2026-04-24T13:16:53Z</time></trkpt><trkpt lat="43.76230170485093" lon="7.478564939364126"><ele>37.333333333333336</ele><time>2026-04-24T13:16:54Z</time></trkpt><trkpt lat="43.762383772546976" lon="7.47859925277421"><ele>37.0</ele><time>2026-04-24T13:16:55Z</time></trkpt><trkpt lat="43.762461993185376" lon="7.478647284552694"><ele>37.0</ele><time>2026-04-24T13:16:56Z</time></trkpt><trkpt lat="43.76253427803705" lon="7.4787031715002295"><ele>37.0</ele><time>2026-04-24T13:16:57Z</time></trkpt><trkpt lat="43.76260194587758" lon="7.478765103792598"><ele>37.0</ele><time>2026-04-24T13:16:58Z</time></trkpt><trkpt lat="43.76266514920786" lon="7.4788302252159875"><ele>37.0</ele><time>2026-04-24T13:16:59Z</time></trkpt><trkpt lat="43.76271556287039" lon="7.4788882607593274"><ele>37.0</ele><time>2026-04-24T13:17:00Z</time></trkpt><trkpt lat="43.76280124169641" lon="7.479001172367153"><ele>37.0</ele><time>2026-04-24T13:17:02Z</time></trkpt><trkpt lat="43.76287931264596" lon="7.479113058699643"><ele>35.833333333333336</ele><time>2026-04-24T13:17:04Z</time></trkpt><trkpt lat="43.762954918884994" lon="7.479216444537272"><ele>34.66666666666667</ele><time>2026-04-24T13:17:06Z</time></trkpt><trkpt lat="43.763041656048884" lon="7.479345822726176"><ele>33.5</ele><time>2026-04-24T13:17:08Z</time></trkpt><trkpt lat="43.76308837769839" lon="7.479418039690501"><ele>32.333333333333336</ele><time>2026-04-24T13:17:09Z</time></trkpt><trkpt lat="43.763137072818765" lon="7.479489345543763"><ele>31.166666666666668</ele><time>2026-04-24T13:17:10Z</time></trkpt><trkpt lat="43.76318781516851" lon="7.479560885910466"><ele>30.0</ele><time>2026-04-24T13:17:11Z</time></trkpt><trkpt lat="43.763235421402754" lon="7.4796297290540625"><ele>30.0</ele><time>2026-04-24T13:17:12Z</time></trkpt><trkpt lat="43.76328242202825" lon="7.479695913805969"><ele>30.0</ele><time>2026-04-24T13:17:13Z</time></trkpt><trkpt lat="43.76332639388773" lon="7.479761021853555"><ele>30.0</ele><time>2026-04-24T13:17:14Z</time></trkpt><trkpt lat="43.76339769657846" lon="7.479868003351303"><ele>30.0</ele><time>2026-04-24T13:17:16Z</time></trkpt><trkpt lat="43.763446531530924" lon="7.479934917411172"><ele>30.0</ele><time>2026-04-24T13:17:18Z</time></trkpt><trkpt lat="43.763501590620855" lon="7.480022601174297"><ele>30.0</ele><time>2026-04-24T13:17:21Z</time></trkpt><trkpt lat="43.76354501546605" lon="7.480114826908964"><ele>28.833333333333332</ele><time>2026-04-24T13:17:23Z</time></trkpt><trkpt lat="43.76359296276271" lon="7.48019042262289"><ele>27.666666666666668</ele><time>2026-04-24T13:17:26Z</time></trkpt><trkpt lat="43.76364251669033" lon="7.480267832090516"><ele>26.5</ele><time>2026-04-24T13:17:30Z</time></trkpt><trkpt lat="43.763682889592616" lon="7.480369492996021"><ele>25.333333333333336</ele><time>2026-04-24T13:17:33Z</time></trkpt><trkpt lat="43.76377901191003" lon="7.480481680577572"><ele>24.166666666666668</ele><time>2026-04-24T13:17:35Z</time></trkpt><trkpt lat="43.76382610205462" lon="7.480541860946396"><ele>23.0</ele><time>2026-04-24T13:17:36Z</time></trkpt><trkpt lat="43.76387118375659" lon="7.4806091965894"><ele>22.5</ele><time>2026-04-24T13:17:37Z</time></trkpt><trkpt lat="43.7639125594967" lon="7.480676802537694"><ele>22.0</ele><time>2026-04-24T13:17:38Z</time></trkpt><trkpt lat="43.76396413469285" lon="7.480752786945322"><ele>21.5</ele><time>2026-04-24T13:17:40Z</time></trkpt><trkpt lat="43.76402228681899" lon="7.480846091688036"><ele>21.0</ele><time>2026-04-24T13:17:43Z</time></trkpt><trkpt lat="43.7640687744427" lon="7.480924976673109"><ele>20.5</ele><time>2026-04-24T13:17:45Z</time></trkpt><trkpt lat="43.76412229466728" lon="7.481022979450602"><ele>20.0</ele><time>2026-04-24T13:17:48Z</time></trkpt><trkpt lat="43.764160730948035" lon="7.481093130294082"><ele>20.0</ele><time>2026-04-24T13:17:50Z</time></trkpt><trkpt lat="43.764204437813405" lon="7.4811647603078635"><ele>20.0</ele><time>2026-04-24T13:17:52Z</time></trkpt><trkpt lat="43.76426104267496" lon="7.4812545913163975"><ele>20.0</ele><time>2026-04-24T13:17:54Z</time></trkpt><trkpt lat="43.76430552058669" lon="7.481329125162061"><ele>20.0</ele><time>2026-04-24T13:17:55Z</time></trkpt><trkpt lat="43.76434855614434" lon="7.481408003567048"><ele>20.0</ele><time>2026-04-24T13:17:56Z</time></trkpt><trkpt lat="43.76441167219076" lon="7.481527029983845"><ele>20.0</ele><time>2026-04-24T13:17:58Z</time></trkpt><trkpt lat="43.76445331199486" lon="7.481612073128031"><ele>20.166666666666668</ele><time>2026-04-24T13:18:00Z</time></trkpt><trkpt lat="43.76449213497741" lon="7.48169176778299"><ele>20.333333333333336</ele><time>2026-04-24T13:18:02Z</time></trkpt><trkpt lat="43.76453284622816" lon="7.4817653790076495"><ele>20.5</ele><time>2026-04-24T13:18:04Z</time></trkpt><trkpt lat="43.76457768639216" lon="7.481839134536719"><ele>20.666666666666668</ele><time>2026-04-24T13:18:06Z</time></trkpt><trkpt lat="43.76460871956231" lon="7.481929491874214"><ele>20.833333333333332</ele><time>2026-04-24T13:18:09Z</time></trkpt><trkpt lat="43.76466402126735" lon="7.481988491127795"><ele>21.0</ele><time>2026-04-24T13:18:13Z</time></trkpt><trkpt lat="43.76472840992654" lon="7.482117063978796"><ele>20.5</ele><time>2026-04-24T13:18:15Z</time></trkpt><trkpt lat="43.764777355346034" lon="7.482242896353452"><ele>20.0</ele><time>2026-04-24T13:18:17Z</time></trkpt><trkpt lat="43.76480750919768" lon="7.48233026356169"><ele>19.5</ele><time>2026-04-24T13:18:19Z</time></trkpt><trkpt lat="43.76484681116458" lon="7.482440277455063"><ele>19.0</ele><time>2026-04-24T13:18:21Z</time></trkpt><trkpt lat="43.76486029401919" lon="7.482527486421726"><ele>18.5</ele><time>2026-04-24T13:18:23Z</time></trkpt><trkpt lat="43.76487987922777" lon="7.482645907699331"><ele>18.0</ele><time>2026-04-24T13:18:26Z</time></trkpt><trkpt lat="43.764898400446434" lon="7.4827325495550525"><ele>18.000000000000004</ele><time>2026-04-24T13:18:28Z</time></trkpt><trkpt lat="43.76491283911456" lon="7.482834315911809"><ele>18.0</ele><time>2026-04-24T13:18:30Z</time></trkpt><trkpt lat="43.76492299784863" lon="7.482923642617614"><ele>18.0</ele><time>2026-04-24T13:18:32Z</time></trkpt><trkpt lat="43.76493661148055" lon="7.483026066219963"><ele>18.0</ele><time>2026-04-24T13:18:35Z</time></trkpt><trkpt lat="43.76494111023422" lon="7.4831201696198075"><ele>18.0</ele><time>2026-04-24T13:18:41Z</time></trkpt><trkpt lat="43.76495529325896" lon="7.483229147348587"><ele>18.000000000000004</ele><time>2026-04-24T13:18:44Z</time></trkpt><trkpt lat="43.7649639969112" lon="7.483347312890394"><ele>18.0</ele><time>2026-04-24T13:18:48Z</time></trkpt><trkpt lat="43.76497478918152" lon="7.4834515684627965"><ele>17.571428571428573</ele><time>2026-04-24T13:18:51Z</time></trkpt><trkpt lat="43.76498721603713" lon="7.483545115423981"><ele>17.142857142857142</ele><time>2026-04-24T13:18:55Z</time></trkpt><trkpt lat="43.76499136934661" lon="7.483645085569165"><ele>16.714285714285715</ele><time>2026-04-24T13:19:01Z</time></trkpt><trkpt lat="43.76499138649392" lon="7.483745733779245"><ele>16.285714285714285</ele><time>2026-04-24T13:19:04Z</time></trkpt><trkpt lat="43.764995104268856" lon="7.4838387763595335"><ele>15.857142857142858</ele><time>2026-04-24T13:19:07Z</time></trkpt><trkpt lat="43.76500039426106" lon="7.48393514485438"><ele>15.428571428571429</ele><time>2026-04-24T13:19:10Z</time></trkpt><trkpt lat="43.76500431215912" lon="7.484041647359803"><ele>15.0</ele><time>2026-04-24T13:19:11.999Z</time></trkpt><trkpt lat="43.76500292762086" lon="7.484166999253891"><ele>14.5</ele><time>2026-04-24T13:19:13.999Z</time></trkpt><trkpt lat="43.76500577765655" lon="7.484301376348014"><ele>14.0</ele><time>2026-04-24T13:19:15.999Z</time></trkpt><trkpt lat="43.76500777565683" lon="7.484420692871553"><ele>13.5</ele><time>2026-04-24T13:19:17.999Z</time></trkpt><trkpt lat="43.765007604582486" lon="7.484533832950927"><ele>13.0</ele><time>2026-04-24T13:19:19.999Z</time></trkpt><trkpt lat="43.76499873591482" lon="7.484659640797958"><ele>12.5</ele><time>2026-04-24T13:19:21.999Z</time></trkpt><trkpt lat="43.76500047083665" lon="7.48477517195874"><ele>12.0</ele><time>2026-04-24T13:19:23.999Z</time></trkpt><trkpt lat="43.76500052379355" lon="7.48486727373436"><ele>11.833333333333334</ele><time>2026-04-24T13:19:26.999Z</time></trkpt><trkpt lat="43.76500984236569" lon="7.484964046965874"><ele>11.666666666666666</ele><time>2026-04-24T13:19:50.999Z</time></trkpt><trkpt lat="43.76502434562905" lon="7.485090529055101"><ele>11.5</ele><time>2026-04-24T13:19:56Z</time></trkpt><trkpt lat="43.76502527077808" lon="7.485217288547139"><ele>11.333333333333332</ele><time>2026-04-24T13:19:58Z</time></trkpt><trkpt lat="43.765038049793596" lon="7.4853290951003535"><ele>11.166666666666666</ele><time>2026-04-24T13:20:13Z</time></trkpt><trkpt lat="43.76504985917224" lon="7.485456485312836"><ele>11.0</ele><time>2026-04-24T13:20:16Z</time></trkpt><trkpt lat="43.765073078288715" lon="7.485567627237473"><ele>11.0</ele><time>2026-04-24T13:20:18Z</time></trkpt><trkpt lat="43.76509052369153" lon="7.485657232706612"><ele>11.0</ele><time>2026-04-24T13:20:20Z</time></trkpt><trkpt lat="43.76511752156893" lon="7.485757714034805"><ele>11.0</ele><time>2026-04-24T13:20:22Z</time></trkpt><trkpt lat="43.76514086277113" lon="7.485848490788765"><ele>11.0</ele><time>2026-04-24T13:20:24Z</time></trkpt><trkpt lat="43.76516302882716" lon="7.485937892583391"><ele>11.0</ele><time>2026-04-24T13:20:26Z</time></trkpt><trkpt lat="43.76518771394203" lon="7.486034414772231"><ele>11.0</ele><time>2026-04-24T13:20:28Z</time></trkpt><trkpt lat="43.76521626130957" lon="7.486135824234417"><ele>11.0</ele><time>2026-04-24T13:20:31Z</time></trkpt><trkpt lat="43.76523771278044" lon="7.486232642347074"><ele>10.4</ele><time>2026-04-24T13:20:36Z</time></trkpt><trkpt lat="43.76526138890963" lon="7.486330477727309"><ele>9.8</ele><time>2026-04-24T13:20:39Z</time></trkpt><trkpt lat="43.765297425550756" lon="7.48645973398509"><ele>9.200000000000001</ele><time>2026-04-24T13:20:44Z</time></trkpt><trkpt lat="43.765354253656966" lon="7.486615594640386"><ele>8.600000000000001</ele><time>2026-04-24T13:20:46Z</time></trkpt><trkpt lat="43.76542503437042" lon="7.48674668648748"><ele>8.0</ele><time>2026-04-24T13:20:48Z</time></trkpt><trkpt lat="43.76549223540693" lon="7.486870323129957"><ele>8.0</ele><time>2026-04-24T13:20:50Z</time></trkpt><trkpt lat="43.76554739830939" lon="7.486985238175087"><ele>8.0</ele><time>2026-04-24T13:20:52Z</time></trkpt><trkpt lat="43.765605536925904" lon="7.487113890144554"><ele>8.0</ele><time>2026-04-24T13:20:54Z</time></trkpt><trkpt lat="43.765675255408425" lon="7.487239039589203"><ele>8.0</ele><time>2026-04-24T13:20:56Z</time></trkpt><trkpt lat="43.76572730396001" lon="7.487359121941361"><ele>8.0</ele><time>2026-04-24T13:20:58Z</time></trkpt><trkpt lat="43.76577294235156" lon="7.487496911338531"><ele>8.200000000000001</ele><time>2026-04-24T13:21:00Z</time></trkpt><trkpt lat="43.76583048612451" lon="7.487632898410005"><ele>8.4</ele><time>2026-04-24T13:21:02Z</time></trkpt><trkpt lat="43.76591274746273" lon="7.487724267939323"><ele>8.600000000000001</ele><time>2026-04-24T13:21:04Z</time></trkpt><trkpt lat="43.766015533027016" lon="7.487822663404144"><ele>8.8</ele><time>2026-04-24T13:21:06Z</time></trkpt><trkpt lat="43.766063841170464" lon="7.487895149336912"><ele>9.0</ele><time>2026-04-24T13:21:07Z</time></trkpt><trkpt lat="43.766115072678346" lon="7.487975320459012"><ele>9.0</ele><time>2026-04-24T13:21:08Z</time></trkpt><trkpt lat="43.76617910939722" lon="7.488060786591563"><ele>9.0</ele><time>2026-04-24T13:21:09Z</time></trkpt><trkpt lat="43.766252580283556" lon="7.488163758811101"><ele>9.0</ele><time>2026-04-24T13:21:10Z</time></trkpt><trkpt lat="43.766330659950974" lon="7.488265697419779"><ele>9.0</ele><time>2026-04-24T13:21:11Z</time></trkpt><trkpt lat="43.766402914070525" lon="7.48835651926778"><ele>9.0</ele><time>2026-04-24T13:21:12Z</time></trkpt><trkpt lat="43.766478153617285" lon="7.488447461270697"><ele>9.0</ele><time>2026-04-24T13:21:13Z</time></trkpt><trkpt lat="43.76655345481485" lon="7.488535988654201"><ele>9.0</ele><time>2026-04-24T13:21:14Z</time></trkpt><trkpt lat="43.76664371788217" lon="7.4886287915507195"><ele>9.0</ele><time>2026-04-24T13:21:15Z</time></trkpt><trkpt lat="43.76674189827967" lon="7.488723445129071"><ele>9.0</ele><time>2026-04-24T13:21:16Z</time></trkpt><trkpt lat="43.76683155473778" lon="7.488815018118662"><ele>9.0</ele><time>2026-04-24T13:21:17Z</time></trkpt><trkpt lat="43.76691796021188" lon="7.4889064612422"><ele>8.166666666666666</ele><time>2026-04-24T13:21:17.999Z</time></trkpt><trkpt lat="43.76699566988589" lon="7.488987438595382"><ele>7.333333333333333</ele><time>2026-04-24T13:21:18.999Z</time></trkpt><trkpt lat="43.76707047892583" lon="7.489058994030887"><ele>6.5</ele><time>2026-04-24T13:21:19.999Z</time></trkpt><trkpt lat="43.767135406237394" lon="7.489124024958754"><ele>5.666666666666666</ele><time>2026-04-24T13:21:20.999Z</time></trkpt><trkpt lat="43.767188907139115" lon="7.489191111379472"><ele>4.833333333333333</ele><time>2026-04-24T13:21:21.999Z</time></trkpt><trkpt lat="43.767259140225896" lon="7.48927944947915"><ele>4.0</ele><time>2026-04-24T13:21:23.999Z</time></trkpt><trkpt lat="43.767305167694595" lon="7.489356642565994"><ele>4.0</ele><time>2026-04-24T13:21:25.999Z</time></trkpt><trkpt lat="43.767384237527914" lon="7.489445271208358"><ele>4.0</ele><time>2026-04-24T13:21:27.999Z</time></trkpt><trkpt lat="43.76744218813612" lon="7.4895081990984655"><ele>4.0</ele><time>2026-04-24T13:21:28.999Z</time></trkpt><trkpt lat="43.767519321965324" lon="7.489585309813114"><ele>4.0</ele><time>2026-04-24T13:21:29.999Z</time></trkpt><trkpt lat="43.767589614848596" lon="7.489664702063495"><ele>4.0</ele><time>2026-04-24T13:21:30.999Z</time></trkpt><trkpt lat="43.767662535607116" lon="7.4897418515820355"><ele>4.5</ele><time>2026-04-24T13:21:31.999Z</time></trkpt><trkpt lat="43.76775601818775" lon="7.489838870668107"><ele>5.0</ele><time>2026-04-24T13:21:32.999Z</time></trkpt><trkpt lat="43.76786130121787" lon="7.4899589974667835"><ele>5.5</ele><time>2026-04-24T13:21:33.999Z</time></trkpt><trkpt lat="43.76795626583001" lon="7.490084629954588"><ele>6.0</ele><time>2026-04-24T13:21:34.999Z</time></trkpt><trkpt lat="43.7680472929759" lon="7.490215744570676"><ele>6.0</ele><time>2026-04-24T13:21:35.999Z</time></trkpt><trkpt lat="43.76814034615466" lon="7.490348371971164"><ele>6.0</ele><time>2026-04-24T13:21:36.999Z</time></trkpt><trkpt lat="43.768235795476976" lon="7.490483311279974"><ele>6.0</ele><time>2026-04-24T13:21:37.999Z</time></trkpt><trkpt lat="43.76832669422857" lon="7.490616199395423"><ele>6.0</ele><time>2026-04-24T13:21:38.999Z</time></trkpt><trkpt lat="43.768412160865175" lon="7.490743650414109"><ele>6.75</ele><time>2026-04-24T13:21:39.999Z</time></trkpt><trkpt lat="43.76849802112497" lon="7.490865332520096"><ele>7.5</ele><time>2026-04-24T13:21:40.999Z</time></trkpt><trkpt lat="43.768581284786" lon="7.490987937465721"><ele>8.25</ele><time>2026-04-24T13:21:41.999Z</time></trkpt><trkpt lat="43.768664821157635" lon="7.491107392142619"><ele>9.0</ele><time>2026-04-24T13:21:42.999Z</time></trkpt><trkpt lat="43.76874613173531" lon="7.491222697984804"><ele>8.2</ele><time>2026-04-24T13:21:43.999Z</time></trkpt><trkpt lat="43.76882174940027" lon="7.491330285603634"><ele>7.4</ele><time>2026-04-24T13:21:44.999Z</time></trkpt><trkpt lat="43.76889009025647" lon="7.491434014122489"><ele>6.6</ele><time>2026-04-24T13:21:45.999Z</time></trkpt><trkpt lat="43.76895823847963" lon="7.491531159821471"><ele>5.8</ele><time>2026-04-24T13:21:46.999Z</time></trkpt><trkpt lat="43.76902732218159" lon="7.491625200148387"><ele>5.0</ele><time>2026-04-24T13:21:47.999Z</time></trkpt><trkpt lat="43.76909153481297" lon="7.491714959912951"><ele>5.0</ele><time>2026-04-24T13:21:48.999Z</time></trkpt><trkpt lat="43.769151452002305" lon="7.491799570714842"><ele>5.0</ele><time>2026-04-24T13:21:49.999Z</time></trkpt><trkpt lat="43.769206505932125" lon="7.491880750428829"><ele>5.0</ele><time>2026-04-24T13:21:50.999Z</time></trkpt><trkpt lat="43.76926156228345" lon="7.4919614399273256"><ele>5.0</ele><time>2026-04-24T13:21:51.999Z</time></trkpt><trkpt lat="43.76931898744087" lon="7.492044498155034"><ele>5.0</ele><time>2026-04-24T13:21:52.999Z</time></trkpt><trkpt lat="43.76937736100737" lon="7.492126174894734"><ele>5.0</ele><time>2026-04-24T13:21:53.999Z</time></trkpt><trkpt lat="43.769436180409315" lon="7.492211582725212"><ele>5.5</ele><time>2026-04-24T13:21:54.999Z</time></trkpt><trkpt lat="43.769495842035184" lon="7.492298166506127"><ele>6.0</ele><time>2026-04-24T13:21:55.999Z</time></trkpt><trkpt lat="43.7695559708441" lon="7.492386788892094"><ele>6.5</ele><time>2026-04-24T13:21:56.999Z</time></trkpt><trkpt lat="43.76961753370113" lon="7.4924752653802935"><ele>7.0</ele><time>2026-04-24T13:21:57.999Z</time></trkpt><trkpt lat="43.76968029682989" lon="7.492564102614375"><ele>7.499999999999999</ele><time>2026-04-24T13:21:58.999Z</time></trkpt><trkpt lat="43.76974752307841" lon="7.492658352195803"><ele>8.0</ele><time>2026-04-24T13:21:59.999Z</time></trkpt><trkpt lat="43.76981703323544" lon="7.492759219232619"><ele>7.999999999999999</ele><time>2026-04-24T13:22:00.999Z</time></trkpt><trkpt lat="43.76988472447147" lon="7.4928603695217175"><ele>8.0</ele><time>2026-04-24T13:22:01.999Z</time></trkpt><trkpt lat="43.769946784186594" lon="7.492960396841966"><ele>8.0</ele><time>2026-04-24T13:22:02.999Z</time></trkpt><trkpt lat="43.770004177382184" lon="7.4930513397484555"><ele>8.0</ele><time>2026-04-24T13:22:03.999Z</time></trkpt><trkpt lat="43.77005742660749" lon="7.493137589089675"><ele>7.999999999999999</ele><time>2026-04-24T13:22:04.999Z</time></trkpt><trkpt lat="43.7701131545024" lon="7.493212120030884"><ele>8.0</ele><time>2026-04-24T13:22:05.999Z</time></trkpt><trkpt lat="43.770169157771434" lon="7.493304221097135"><ele>9.0</ele><time>2026-04-24T13:22:07Z</time></trkpt><trkpt lat="43.77022584106938" lon="7.4933988860044725"><ele>10.0</ele><time>2026-04-24T13:22:08Z</time></trkpt><trkpt lat="43.770281120947494" lon="7.493499518510524"><ele>11.0</ele><time>2026-04-24T13:22:09Z</time></trkpt><trkpt lat="43.77033711978546" lon="7.493608068855765"><ele>12.0</ele><time>2026-04-24T13:22:10Z</time></trkpt><trkpt lat="43.77039088868224" lon="7.49371837209882"><ele>13.0</ele><time>2026-04-24T13:22:11Z</time></trkpt><trkpt lat="43.77043779575013" lon="7.493816872217562"><ele>13.166666666666666</ele><time>2026-04-24T13:22:12Z</time></trkpt><trkpt lat="43.77048517054387" lon="7.493910094342231"><ele>13.333333333333332</ele><time>2026-04-24T13:22:13Z</time></trkpt><trkpt lat="43.770529386879836" lon="7.4939985442967165"><ele>13.5</ele><time>2026-04-24T13:22:14Z</time></trkpt><trkpt lat="43.77057773901536" lon="7.494087560120077"><ele>13.666666666666668</ele><time>2026-04-24T13:22:15Z</time></trkpt><trkpt lat="43.770625934523366" lon="7.494179969466636"><ele>13.833333333333334</ele><time>2026-04-24T13:22:16Z</time></trkpt><trkpt lat="43.77067990438382" lon="7.494280253312722"><ele>14.0</ele><time>2026-04-24T13:22:17Z</time></trkpt><trkpt lat="43.770738444985966" lon="7.49438122095003"><ele>14.0</ele><time>2026-04-24T13:22:18Z</time></trkpt><trkpt lat="43.77079706773207" lon="7.494479269789148"><ele>13.999999999999998</ele><time>2026-04-24T13:22:19Z</time></trkpt><trkpt lat="43.770856515823155" lon="7.494569646666189"><ele>13.999999999999998</ele><time>2026-04-24T13:22:20Z</time></trkpt><trkpt lat="43.77091894635604" lon="7.494662542405403"><ele>14.0</ele><time>2026-04-24T13:22:21Z</time></trkpt><trkpt lat="43.7709838779212" lon="7.494763421076423"><ele>14.0</ele><time>2026-04-24T13:22:22Z</time></trkpt><trkpt lat="43.77104552298691" lon="7.494872074361506"><ele>14.0</ele><time>2026-04-24T13:22:23Z</time></trkpt><trkpt lat="43.77110665254272" lon="7.494993916830858"><ele>13.999999999999998</ele><time>2026-04-24T13:22:24Z</time></trkpt><trkpt lat="43.771169145077835" lon="7.495120000846174"><ele>13.999999999999998</ele><time>2026-04-24T13:22:25Z</time></trkpt><trkpt lat="43.77123223476821" lon="7.495240116738025"><ele>14.0</ele><time>2026-04-24T13:22:26Z</time></trkpt><trkpt lat="43.77128894474313" lon="7.495353442213498"><ele>14.0</ele><time>2026-04-24T13:22:27Z</time></trkpt><trkpt lat="43.77134252887609" lon="7.495464151994253"><ele>14.0</ele><time>2026-04-24T13:22:28Z</time></trkpt><trkpt lat="43.77139444683779" lon="7.495566878326382"><ele>13.999999999999998</ele><time>2026-04-24T13:22:29Z</time></trkpt><trkpt lat="43.7714496150185" lon="7.4956708160471415"><ele>13.999999999999998</ele><time>2026-04-24T13:22:30Z</time></trkpt><trkpt lat="43.77150970210585" lon="7.4957802234854025"><ele>14.0</ele><time>2026-04-24T13:22:31Z</time></trkpt><trkpt lat="43.771570306012656" lon="7.495894240295196"><ele>14.0</ele><time>2026-04-24T13:22:32Z</time></trkpt><trkpt lat="43.77162713313572" lon="7.49600389842974"><ele>14.000000000000002</ele><time>2026-04-24T13:22:33Z</time></trkpt><trkpt lat="43.771676490028916" lon="7.496100442596909"><ele>14.0</ele><time>2026-04-24T13:22:34Z</time></trkpt><trkpt lat="43.77171661169429" lon="7.496178167900096"><ele>14.0</ele><time>2026-04-24T13:22:35Z</time></trkpt><trkpt lat="43.77176327840013" lon="7.496272949069943"><ele>14.0</ele><time>2026-04-24T13:22:37Z</time></trkpt><trkpt lat="43.77179254369936" lon="7.496375394322875"><ele>14.000000000000002</ele><time>2026-04-24T13:22:44Z</time></trkpt><trkpt lat="43.77172312300116" lon="7.496429791663619"><ele>14.0</ele><time>2026-04-24T13:22:46Z</time></trkpt><trkpt lat="43.77166299106058" lon="7.4965094376343595"><ele>13.666666666666668</ele><time>2026-04-24T13:22:47Z</time></trkpt><trkpt lat="43.771604321494245" lon="7.496550534269856"><ele>13.333333333333334</ele><time>2026-04-24T13:22:48Z</time></trkpt><trkpt lat="43.771547619043695" lon="7.496621305657951"><ele>13.0</ele><time>2026-04-24T13:22:50Z</time></trkpt><trkpt lat="43.77157115487998" lon="7.4968011026788215"><ele>12.666666666666668</ele><time>2026-04-24T13:23:06Z</time></trkpt><trkpt lat="43.771623992468236" lon="7.496899922530614"><ele>12.333333333333334</ele><time>2026-04-24T13:23:08Z</time></trkpt><trkpt lat="43.771665313804576" lon="7.496995664588928"><ele>12.0</ele><time>2026-04-24T13:23:11Z</time></trkpt><trkpt lat="43.77171403125015" lon="7.497101482763585"><ele>12.5</ele><time>2026-04-24T13:23:14Z</time></trkpt><trkpt lat="43.77178434023802" lon="7.497226510396261"><ele>13.0</ele><time>2026-04-24T13:23:16Z</time></trkpt><trkpt lat="43.771826004651935" lon="7.497314651203391"><ele>13.5</ele><time>2026-04-24T13:23:17Z</time></trkpt><trkpt lat="43.771873214516745" lon="7.497407196573971"><ele>14.0</ele><time>2026-04-24T13:23:18Z</time></trkpt><trkpt lat="43.77191607856815" lon="7.497491420826722"><ele>14.5</ele><time>2026-04-24T13:23:19Z</time></trkpt><trkpt lat="43.771958743293226" lon="7.497578930836109"><ele>15.0</ele><time>2026-04-24T13:23:20Z</time></trkpt><trkpt lat="43.77199816957441" lon="7.497653263276004"><ele>15.0</ele><time>2026-04-24T13:23:21Z</time></trkpt><trkpt lat="43.772063733181525" lon="7.497780593186615"><ele>15.0</ele><time>2026-04-24T13:23:23Z</time></trkpt><trkpt lat="43.77212876989546" lon="7.4979035822055335"><ele>15.0</ele><time>2026-04-24T13:23:24.998Z</time></trkpt><trkpt lat="43.77219219065898" lon="7.498054552907526"><ele>15.0</ele><time>2026-04-24T13:23:26.998Z</time></trkpt><trkpt lat="43.77221100342572" lon="7.498148048238965"><ele>15.0</ele><time>2026-04-24T13:23:27.998Z</time></trkpt><trkpt lat="43.77222220923865" lon="7.49824981860351"><ele>13.2</ele><time>2026-04-24T13:23:28.998Z</time></trkpt><trkpt lat="43.772236403611586" lon="7.498345654041782"><ele>11.4</ele><time>2026-04-24T13:23:29.998Z</time></trkpt><trkpt lat="43.7722763870855" lon="7.498502884417214"><ele>9.6</ele><time>2026-04-24T13:23:31.998Z</time></trkpt><trkpt lat="43.77233793488256" lon="7.498644196585319"><ele>7.8</ele><time>2026-04-24T13:23:33.998Z</time></trkpt><trkpt lat="43.77240733054982" lon="7.498783137116532"><ele>6.0</ele><time>2026-04-24T13:23:35.998Z</time></trkpt><trkpt lat="43.77244522400738" lon="7.498856746917923"><ele>5.833333333333333</ele><time>2026-04-24T13:23:36.998Z</time></trkpt><trkpt lat="43.77248390587858" lon="7.498935032988913"><ele>5.666666666666667</ele><time>2026-04-24T13:23:37.998Z</time></trkpt><trkpt lat="43.772523153247036" lon="7.499013144542994"><ele>5.5</ele><time>2026-04-24T13:23:38.999Z</time></trkpt><trkpt lat="43.772562629482145" lon="7.499090519597491"><ele>5.333333333333334</ele><time>2026-04-24T13:23:39.999Z</time></trkpt><trkpt lat="43.77259901761264" lon="7.499162189148051"><ele>5.166666666666667</ele><time>2026-04-24T13:23:40.999Z</time></trkpt><trkpt lat="43.772667139471295" lon="7.499298110381015"><ele>5.0</ele><time>2026-04-24T13:23:42.999Z</time></trkpt><trkpt lat="43.77274084101119" lon="7.499431478880488"><ele>6.166666666666667</ele><time>2026-04-24T13:23:44.999Z</time></trkpt><trkpt lat="43.77277843120755" lon="7.499503496399808"><ele>7.333333333333334</ele><time>2026-04-24T13:23:45.999Z</time></trkpt><trkpt lat="43.77281858325616" lon="7.499575225781384"><ele>8.5</ele><time>2026-04-24T13:23:46.999Z</time></trkpt><trkpt lat="43.77285876748331" lon="7.499650592775963"><ele>9.666666666666666</ele><time>2026-04-24T13:23:47.999Z</time></trkpt><trkpt lat="43.772900273693054" lon="7.499723890673041"><ele>10.833333333333334</ele><time>2026-04-24T13:23:48.999Z</time></trkpt><trkpt lat="43.77294480825475" lon="7.499785979735399"><ele>12.0</ele><time>2026-04-24T13:23:49.999Z</time></trkpt><trkpt lat="43.77303195308113" lon="7.499919553000109"><ele>12.0</ele><time>2026-04-24T13:23:51.999Z</time></trkpt><trkpt lat="43.77307774245458" lon="7.500000262044914"><ele>12.0</ele><time>2026-04-24T13:23:52.999Z</time></trkpt><trkpt lat="43.77311768718318" lon="7.500089158619998"><ele>12.0</ele><time>2026-04-24T13:23:53.999Z</time></trkpt><trkpt lat="43.773150512385534" lon="7.500168865678515"><ele>12.0</ele><time>2026-04-24T13:23:54.999Z</time></trkpt><trkpt lat="43.77320924759143" lon="7.500310874358691"><ele>12.0</ele><time>2026-04-24T13:23:56.999Z</time></trkpt><trkpt lat="43.77325828275253" lon="7.500443239012683"><ele>12.0</ele><time>2026-04-24T13:23:58.999Z</time></trkpt><trkpt lat="43.773320645116236" lon="7.500589713500804"><ele>11.833333333333334</ele><time>2026-04-24T13:24:00.999Z</time></trkpt><trkpt lat="43.77335439189122" lon="7.500669534230795"><ele>11.666666666666666</ele><time>2026-04-24T13:24:01.999Z</time></trkpt><trkpt lat="43.77338985183594" lon="7.50075070769384"><ele>11.5</ele><time>2026-04-24T13:24:02.999Z</time></trkpt><trkpt lat="43.773428787648385" lon="7.500839270569225"><ele>11.333333333333332</ele><time>2026-04-24T13:24:03.999Z</time></trkpt><trkpt lat="43.7734662459328" lon="7.500923819999078"><ele>11.166666666666666</ele><time>2026-04-24T13:24:04.999Z</time></trkpt><trkpt lat="43.77349776278975" lon="7.5010006150367925"><ele>11.0</ele><time>2026-04-24T13:24:05.999Z</time></trkpt><trkpt lat="43.773551834159775" lon="7.501140790573904"><ele>11.0</ele><time>2026-04-24T13:24:07.999Z</time></trkpt><trkpt lat="43.77358961119783" lon="7.501236229187078"><ele>11.0</ele><time>2026-04-24T13:24:09.999Z</time></trkpt><trkpt lat="43.7736253510492" lon="7.501333368397944"><ele>11.0</ele><time>2026-04-24T13:24:33Z</time></trkpt><trkpt lat="43.77366296066829" lon="7.501422254456234"><ele>11.0</ele><time>2026-04-24T13:24:35Z</time></trkpt><trkpt lat="43.77371614188361" lon="7.501544751981644"><ele>11.0</ele><time>2026-04-24T13:24:37Z</time></trkpt><trkpt lat="43.77377130457342" lon="7.501680385834538"><ele>11.0</ele><time>2026-04-24T13:24:39Z</time></trkpt><trkpt lat="43.773815710552526" lon="7.501815914228826"><ele>10.857142857142858</ele><time>2026-04-24T13:24:41Z</time></trkpt><trkpt lat="43.7738414122909" lon="7.501899630218215"><ele>10.714285714285714</ele><time>2026-04-24T13:24:42Z</time></trkpt><trkpt lat="43.77386902429686" lon="7.501991168167497"><ele>10.571428571428571</ele><time>2026-04-24T13:24:43Z</time></trkpt><trkpt lat="43.77389647959585" lon="7.502079246312049"><ele>10.428571428571429</ele><time>2026-04-24T13:24:44Z</time></trkpt><trkpt lat="43.77392044238929" lon="7.502162478047523"><ele>10.285714285714286</ele><time>2026-04-24T13:24:45Z</time></trkpt><trkpt lat="43.773942053099624" lon="7.502246193729389"><ele>10.142857142857142</ele><time>2026-04-24T13:24:46Z</time></trkpt><trkpt lat="43.773964289832826" lon="7.502329673387827"><ele>10.0</ele><time>2026-04-24T13:24:47Z</time></trkpt><trkpt lat="43.77400868587787" lon="7.50247904721748"><ele>10.0</ele><time>2026-04-24T13:24:49Z</time></trkpt><trkpt lat="43.774049665024876" lon="7.502618240416387"><ele>10.0</ele><time>2026-04-24T13:24:51Z</time></trkpt><trkpt lat="43.774082361454866" lon="7.502739183991416"><ele>10.0</ele><time>2026-04-24T13:24:53Z</time></trkpt><trkpt lat="43.77411769622839" lon="7.502855821965242"><ele>10.0</ele><time>2026-04-24T13:24:55Z</time></trkpt><trkpt lat="43.774149549826554" lon="7.502965692848962"><ele>10.0</ele><time>2026-04-24T13:24:57Z</time></trkpt><trkpt lat="43.774173453164124" lon="7.50305107594082"><ele>10.0</ele><time>2026-04-24T13:24:59Z</time></trkpt><trkpt lat="43.774206489219914" lon="7.503155899348442"><ele>9.5</ele><time>2026-04-24T13:25:02Z</time></trkpt><trkpt lat="43.77422981645663" lon="7.5032400248269875"><ele>9.0</ele><time>2026-04-24T13:25:04Z</time></trkpt><trkpt lat="43.77426166261033" lon="7.503346582463322"><ele>8.5</ele><time>2026-04-24T13:25:07Z</time></trkpt><trkpt lat="43.774284811273525" lon="7.503442597162484"><ele>8.0</ele><time>2026-04-24T13:25:10Z</time></trkpt><trkpt lat="43.77431075504692" lon="7.503524796201798"><ele>7.500000000000001</ele><time>2026-04-24T13:25:13Z</time></trkpt><trkpt lat="43.774353747157825" lon="7.5036029994553255"><ele>7.0</ele><time>2026-04-24T13:25:28Z</time></trkpt><trkpt lat="43.77439627602462" lon="7.50374349071709"><ele>8.166666666666668</ele><time>2026-04-24T13:25:29.999Z</time></trkpt><trkpt lat="43.77442827044747" lon="7.503851953401824"><ele>9.333333333333334</ele><time>2026-04-24T13:25:31.999Z</time></trkpt><trkpt lat="43.77444875995924" lon="7.503979921141556"><ele>10.5</ele><time>2026-04-24T13:25:33.999Z</time></trkpt><trkpt lat="43.77447278859192" lon="7.504063966848285"><ele>11.666666666666668</ele><time>2026-04-24T13:25:34.999Z</time></trkpt><trkpt lat="43.774512127375985" lon="7.5041738850684325"><ele>12.833333333333334</ele><time>2026-04-24T13:25:36.999Z</time></trkpt><trkpt lat="43.77453521096938" lon="7.504257271374428"><ele>14.0</ele><time>2026-04-24T13:25:38.999Z</time></trkpt><trkpt lat="43.77456622916861" lon="7.504358504868818"><ele>14.000000000000002</ele><time>2026-04-24T13:25:41.999Z</time></trkpt><trkpt lat="43.77459465819412" lon="7.50446476272349"><ele>14.0</ele><time>2026-04-24T13:25:44.999Z</time></trkpt><trkpt lat="43.77462823155529" lon="7.504570406126087"><ele>14.0</ele><time>2026-04-24T13:25:47.999Z</time></trkpt><trkpt lat="43.77465698769629" lon="7.504661937952908"><ele>14.0</ele><time>2026-04-24T13:25:58.999Z</time></trkpt><trkpt lat="43.774687561977416" lon="7.504773513470424"><ele>14.000000000000002</ele><time>2026-04-24T13:26:02.999Z</time></trkpt><trkpt lat="43.77471589650971" lon="7.50486446804234"><ele>14.0</ele><time>2026-04-24T13:26:12Z</time></trkpt><trkpt lat="43.774740319770906" lon="7.504983535651309"><ele>13.333333333333334</ele><time>2026-04-24T13:26:15Z</time></trkpt><trkpt lat="43.77475057415373" lon="7.50509818694023"><ele>12.666666666666668</ele><time>2026-04-24T13:26:17Z</time></trkpt><trkpt lat="43.77476587936031" lon="7.505210552272877"><ele>12.0</ele><time>2026-04-24T13:26:19Z</time></trkpt><trkpt lat="43.774837277955235" lon="7.505227480570259"><ele>11.333333333333334</ele><time>2026-04-24T13:26:21Z</time></trkpt><trkpt lat="43.774876728034705" lon="7.505114851546844"><ele>10.666666666666668</ele><time>2026-04-24T13:26:23Z</time></trkpt><trkpt lat="43.77494882337889" lon="7.5050725545831956"><ele>10.0</ele><time>2026-04-24T13:26:25Z</time></trkpt><trkpt lat="43.77501809615023" lon="7.505037959868871"><ele>10.0</ele><time>2026-04-24T13:26:27Z</time></trkpt><trkpt lat="43.77508099923032" lon="7.505007428417699"><ele>10.0</ele><time>2026-04-24T13:26:30Z</time></trkpt></trkseg><trkseg><trkpt lat="43.774955653012896" lon="7.505163216914225"><ele>10.0</ele><time>2026-04-24T14:05:01.706Z</time></trkpt><trkpt lat="43.77501440860736" lon="7.505121633486402"><ele>10.0</ele><time>2026-04-24T14:05:02.706Z</time></trkpt><trkpt lat="43.775073733761175" lon="7.504995192133552"><ele>10.0</ele><time>2026-04-24T14:05:05.993Z</time></trkpt><trkpt lat="43.77515560432638" lon="7.504949506138302"><ele>10.0</ele><time>2026-04-24T14:06:06.999Z</time></trkpt><trkpt lat="43.77524165859479" lon="7.504894888287978"><ele>10.0</ele><time>2026-04-24T14:06:09.999Z</time></trkpt><trkpt lat="43.77532663251891" lon="7.50485458091579"><ele>10.0</ele><time>2026-04-24T14:06:11.999Z</time></trkpt><trkpt lat="43.77538566697355" lon="7.504798210093264"><ele>10.333333333333334</ele><time>2026-04-24T14:06:13.999Z</time></trkpt><trkpt lat="43.77544923007158" lon="7.504732398825464"><ele>10.666666666666668</ele><time>2026-04-24T14:06:15.999Z</time></trkpt><trkpt lat="43.77552783878047" lon="7.504674671939857"><ele>11.0</ele><time>2026-04-24T14:06:17.999Z</time></trkpt><trkpt lat="43.77561590629571" lon="7.504596107037206"><ele>11.333333333333334</ele><time>2026-04-24T14:06:19.999Z</time></trkpt><trkpt lat="43.77568650370027" lon="7.504542811042241"><ele>11.666666666666666</ele><time>2026-04-24T14:06:21.999Z</time></trkpt><trkpt lat="43.77572472158034" lon="7.50446158911833"><ele>12.0</ele><time>2026-04-24T14:06:27.999Z</time></trkpt><trkpt lat="43.775785253159405" lon="7.504500420480578"><ele>12.0</ele><time>2026-04-24T14:06:29.999Z</time></trkpt><trkpt lat="43.77581913102697" lon="7.504600440603792"><ele>12.0</ele><time>2026-04-24T14:06:31.999Z</time></trkpt><trkpt lat="43.7758784136263" lon="7.504646576352042"><ele>12.0</ele><time>2026-04-24T14:06:38.999Z</time></trkpt><trkpt lat="43.77588506015784" lon="7.504770968749713"><ele>12.0</ele><time>2026-04-24T14:06:41.999Z</time></trkpt><trkpt lat="43.77589923876018" lon="7.504864964545225"><ele>12.0</ele><time>2026-04-24T14:06:42.999Z</time></trkpt><trkpt lat="43.77591760061741" lon="7.504974356519263"><ele>12.0</ele><time>2026-04-24T14:06:44.999Z</time></trkpt><trkpt lat="43.775947167220885" lon="7.505121798109326"><ele>12.0</ele><time>2026-04-24T14:06:46.999Z</time></trkpt><trkpt lat="43.77596841706948" lon="7.505210114724658"><ele>12.0</ele><time>2026-04-24T14:06:47.999Z</time></trkpt><trkpt lat="43.77597074321638" lon="7.505353918320334"><ele>12.0</ele><time>2026-04-24T14:06:49.999Z</time></trkpt><trkpt lat="43.775996148043625" lon="7.505491862429738"><ele>12.0</ele><time>2026-04-24T14:06:51.999Z</time></trkpt><trkpt lat="43.77601966788304" lon="7.505619365404024"><ele>12.0</ele><time>2026-04-24T14:07:01.999Z</time></trkpt><trkpt lat="43.77603913810616" lon="7.5057549277386375"><ele>14.6</ele><time>2026-04-24T14:07:03.999Z</time></trkpt><trkpt lat="43.77606987689721" lon="7.505858137657406"><ele>17.2</ele><time>2026-04-24T14:07:05.999Z</time></trkpt><trkpt lat="43.776155647520795" lon="7.505904705225531"><ele>19.8</ele><time>2026-04-24T14:07:07.999Z</time></trkpt><trkpt lat="43.776239026991824" lon="7.505947742079541"><ele>22.4</ele><time>2026-04-24T14:07:09.999Z</time></trkpt><trkpt lat="43.77632786904574" lon="7.505948768269681"><ele>25.0</ele><time>2026-04-24T14:07:12.999Z</time></trkpt><trkpt lat="43.77642326446684" lon="7.505910360863559"><ele>25.0</ele><time>2026-04-24T14:07:15.999Z</time></trkpt><trkpt lat="43.776447137797916" lon="7.505796988723906"><ele>25.0</ele><time>2026-04-24T14:07:17.999Z</time></trkpt><trkpt lat="43.7765007699641" lon="7.505551502941042"><ele>25.0</ele><time>2026-04-24T14:07:24.999Z</time></trkpt><trkpt lat="43.77654543504535" lon="7.505458291217352"><ele>25.0</ele><time>2026-04-24T14:07:26.999Z</time></trkpt><trkpt lat="43.776579930367205" lon="7.505331726824458"><ele>25.0</ele><time>2026-04-24T14:07:41.999Z</time></trkpt><trkpt lat="43.776596682897676" lon="7.50522997072131"><ele>24.166666666666668</ele><time>2026-04-24T14:07:43.999Z</time></trkpt><trkpt lat="43.776647114253834" lon="7.505152877438305"><ele>23.333333333333336</ele><time>2026-04-24T14:07:45.999Z</time></trkpt><trkpt lat="43.77669778779245" lon="7.505062063820466"><ele>22.5</ele><time>2026-04-24T14:07:47.999Z</time></trkpt><trkpt lat="43.776765851452986" lon="7.504971728953204"><ele>21.666666666666668</ele><time>2026-04-24T14:07:49.999Z</time></trkpt><trkpt lat="43.77685363406067" lon="7.504885535993606"><ele>20.833333333333336</ele><time>2026-04-24T14:07:51.999Z</time></trkpt><trkpt lat="43.7769096940625" lon="7.504825911729386"><ele>20.0</ele><time>2026-04-24T14:07:52.999Z</time></trkpt><trkpt lat="43.776962320098214" lon="7.50476946935663"><ele>21.4</ele><time>2026-04-24T14:07:53.999Z</time></trkpt><trkpt lat="43.77704404570599" lon="7.504644705619712"><ele>22.8</ele><time>2026-04-24T14:07:55.999Z</time></trkpt><trkpt lat="43.777106869894055" lon="7.504585425208692"><ele>24.200000000000003</ele><time>2026-04-24T14:07:56.999Z</time></trkpt><trkpt lat="43.77715887209908" lon="7.504513649033202"><ele>25.6</ele><time>2026-04-24T14:07:57.999Z</time></trkpt><trkpt lat="43.77726390684031" lon="7.5044148724082715"><ele>27.0</ele><time>2026-04-24T14:07:59.999Z</time></trkpt><trkpt lat="43.777328230014" lon="7.504386430757474"><ele>27.0</ele><time>2026-04-24T14:08:00.999Z</time></trkpt><trkpt lat="43.77738070969593" lon="7.504332824736708"><ele>27.000000000000004</ele><time>2026-04-24T14:08:01.999Z</time></trkpt><trkpt lat="43.777485477905294" lon="7.5043364973217885"><ele>27.000000000000004</ele><time>2026-04-24T14:08:03.999Z</time></trkpt><trkpt lat="43.77757825185931" lon="7.504338279611253"><ele>27.0</ele><time>2026-04-24T14:08:05.999Z</time></trkpt><trkpt lat="43.77766724970936" lon="7.504380150044523"><ele>27.0</ele><time>2026-04-24T14:08:08.999Z</time></trkpt><trkpt lat="43.7777759370952" lon="7.504428898150609"><ele>27.166666666666668</ele><time>2026-04-24T14:08:10.999Z</time></trkpt><trkpt lat="43.77784224755957" lon="7.5044566836127515"><ele>27.333333333333336</ele><time>2026-04-24T14:08:11.999Z</time></trkpt><trkpt lat="43.777918286375645" lon="7.50448851432581"><ele>27.5</ele><time>2026-04-24T14:08:12.999Z</time></trkpt><trkpt lat="43.77798168970099" lon="7.504494937335506"><ele>27.666666666666668</ele><time>2026-04-24T14:08:13.999Z</time></trkpt><trkpt lat="43.77809522627483" lon="7.504541632363189"><ele>27.833333333333336</ele><time>2026-04-24T14:08:15.999Z</time></trkpt><trkpt lat="43.77817250462703" lon="7.504565913433214"><ele>28.0</ele><time>2026-04-24T14:08:16.999Z</time></trkpt><trkpt lat="43.778247685293074" lon="7.504617949602308"><ele>30.833333333333336</ele><time>2026-04-24T14:08:17.999Z</time></trkpt><trkpt lat="43.77832252179645" lon="7.504656039336767"><ele>33.66666666666667</ele><time>2026-04-24T14:08:18.999Z</time></trkpt><trkpt lat="43.77840104639975" lon="7.504695129649514"><ele>36.5</ele><time>2026-04-24T14:08:19.999Z</time></trkpt><trkpt lat="43.7784732889721" lon="7.504748269393316"><ele>39.333333333333336</ele><time>2026-04-24T14:08:20.999Z</time></trkpt><trkpt lat="43.77853236320008" lon="7.504828583193278"><ele>42.166666666666664</ele><time>2026-04-24T14:08:21.999Z</time></trkpt><trkpt lat="43.77859205583681" lon="7.5048932241747695"><ele>45.0</ele><time>2026-04-24T14:08:22.999Z</time></trkpt><trkpt lat="43.77871303464145" lon="7.504959285988209"><ele>45.0</ele><time>2026-04-24T14:08:24.999Z</time></trkpt><trkpt lat="43.77877640368611" lon="7.504984800835061"><ele>45.0</ele><time>2026-04-24T14:08:25.999Z</time></trkpt><trkpt lat="43.77888892081178" lon="7.504958004868965"><ele>45.0</ele><time>2026-04-24T14:08:27.999Z</time></trkpt><trkpt lat="43.77894503927988" lon="7.504917232518912"><ele>45.0</ele><time>2026-04-24T14:08:28.999Z</time></trkpt><trkpt lat="43.77906349440144" lon="7.504874278962177"><ele>45.0</ele><time>2026-04-24T14:08:30.999Z</time></trkpt><trkpt lat="43.779144972861154" lon="7.504855162671649"><ele>45.0</ele><time>2026-04-24T14:08:32.999Z</time></trkpt><trkpt lat="43.77920832845226" lon="7.504855979559989"><ele>45.0</ele><time>2026-04-24T14:08:36.999Z</time></trkpt><trkpt lat="43.77933081627226" lon="7.504858927338565"><ele>45.0</ele><time>2026-04-24T14:08:38.999Z</time></trkpt><trkpt lat="43.77940222918826" lon="7.50486239730041"><ele>45.0</ele><time>2026-04-24T14:08:39.999Z</time></trkpt><trkpt lat="43.779479836889074" lon="7.504846704987568"><ele>45.0</ele><time>2026-04-24T14:08:40.999Z</time></trkpt><trkpt lat="43.77960147068391" lon="7.504850906628402"><ele>45.0</ele><time>2026-04-24T14:08:42.999Z</time></trkpt><trkpt lat="43.77966812053329" lon="7.504845623314193"><ele>46.8</ele><time>2026-04-24T14:08:43.999Z</time></trkpt><trkpt lat="43.779737527041796" lon="7.5048666493116345"><ele>48.6</ele><time>2026-04-24T14:08:44.999Z</time></trkpt><trkpt lat="43.77979929349393" lon="7.504843305962846"><ele>50.400000000000006</ele><time>2026-04-24T14:08:45.999Z</time></trkpt><trkpt lat="43.77992003045099" lon="7.504838603404794"><ele>52.2</ele><time>2026-04-24T14:08:47.999Z</time></trkpt><trkpt lat="43.78004540678918" lon="7.504855979547482"><ele>54.0</ele><time>2026-04-24T14:08:49.999Z</time></trkpt><trkpt lat="43.780120976249606" lon="7.504852349775641"><ele>58.0</ele><time>2026-04-24T14:08:50.999Z</time></trkpt><trkpt lat="43.780206723022026" lon="7.504843108960894"><ele>62.00000000000001</ele><time>2026-04-24T14:08:51.999Z</time></trkpt><trkpt lat="43.78029831061057" lon="7.504828519564201"><ele>66.0</ele><time>2026-04-24T14:08:52.999Z</time></trkpt><trkpt lat="43.78039126570742" lon="7.504781758604886"><ele>70.0</ele><time>2026-04-24T14:08:53.999Z</time></trkpt><trkpt lat="43.78047838328202" lon="7.504717645729156"><ele>74.0</ele><time>2026-04-24T14:08:54.999Z</time></trkpt><trkpt lat="43.78056051928991" lon="7.504677002550648"><ele>74.0</ele><time>2026-04-24T14:08:55.999Z</time></trkpt><trkpt lat="43.78064139465538" lon="7.504632937181281"><ele>74.0</ele><time>2026-04-24T14:08:56.999Z</time></trkpt><trkpt lat="43.78072601528601" lon="7.504611857030373"><ele>74.0</ele><time>2026-04-24T14:08:57.999Z</time></trkpt><trkpt lat="43.78077954409926" lon="7.504559805572481"><ele>74.0</ele><time>2026-04-24T14:08:58.999Z</time></trkpt><trkpt lat="43.78085817295977" lon="7.504523757709489"><ele>74.0</ele><time>2026-04-24T14:09:00.999Z</time></trkpt><trkpt lat="43.78092785622243" lon="7.504514795327462"><ele>74.0</ele><time>2026-04-24T14:09:04.999Z</time></trkpt><trkpt lat="43.78086761685561" lon="7.504604884924717"><ele>74.0</ele><time>2026-04-24T14:09:09.999Z</time></trkpt><trkpt lat="43.78080766002489" lon="7.504648220359247"><ele>74.0</ele><time>2026-04-24T14:09:10.999Z</time></trkpt><trkpt lat="43.78072294423672" lon="7.5046676428619605"><ele>74.0</ele><time>2026-04-24T14:09:11.999Z</time></trkpt><trkpt lat="43.78062438823831" lon="7.5047196665276985"><ele>74.0</ele><time>2026-04-24T14:09:12.999Z</time></trkpt><trkpt lat="43.78053728009707" lon="7.5047704819112635"><ele>74.0</ele><time>2026-04-24T14:09:13.999Z</time></trkpt><trkpt lat="43.78045246118831" lon="7.504820213878465"><ele>74.0</ele><time>2026-04-24T14:09:14.999Z</time></trkpt><trkpt lat="43.78035498789672" lon="7.50487587286245"><ele>74.0</ele><time>2026-04-24T14:09:15.999Z</time></trkpt><trkpt lat="43.78024177286164" lon="7.504942118030211"><ele>74.0</ele><time>2026-04-24T14:09:16.998Z</time></trkpt><trkpt lat="43.78012658719982" lon="7.505010150631109"><ele>74.0</ele><time>2026-04-24T14:09:17.998Z</time></trkpt><trkpt lat="43.78002471417552" lon="7.505070333819899"><ele>74.0</ele><time>2026-04-24T14:09:18.998Z</time></trkpt><trkpt lat="43.77992711766582" lon="7.5051281115218025"><ele>69.0</ele><time>2026-04-24T14:09:19.998Z</time></trkpt><trkpt lat="43.779830346547556" lon="7.5051935234695115"><ele>64.0</ele><time>2026-04-24T14:09:20.998Z</time></trkpt><trkpt lat="43.77972847176745" lon="7.505256630330079"><ele>59.0</ele><time>2026-04-24T14:09:21.998Z</time></trkpt><trkpt lat="43.7796141644817" lon="7.5053172715464544"><ele>54.0</ele><time>2026-04-24T14:09:22.998Z</time></trkpt><trkpt lat="43.77949148586109" lon="7.505372153987757"><ele>55.0</ele><time>2026-04-24T14:09:23.998Z</time></trkpt><trkpt lat="43.77938159048508" lon="7.505419261248998"><ele>56.00000000000001</ele><time>2026-04-24T14:09:24.998Z</time></trkpt><trkpt lat="43.779286096147594" lon="7.505459548802503"><ele>57.00000000000001</ele><time>2026-04-24T14:09:25.998Z</time></trkpt><trkpt lat="43.77920553564405" lon="7.505493363010349"><ele>58.0</ele><time>2026-04-24T14:09:26.998Z</time></trkpt><trkpt lat="43.779139360242034" lon="7.50552044418299"><ele>59.0</ele><time>2026-04-24T14:09:27.998Z</time></trkpt><trkpt lat="43.77905067816994" lon="7.505562346770777"><ele>59.0</ele><time>2026-04-24T14:09:29.998Z</time></trkpt><trkpt lat="43.77898488296535" lon="7.5055891507099695"><ele>59.0</ele><time>2026-04-24T14:09:31.999Z</time></trkpt><trkpt lat="43.77893230396191" lon="7.505662607199595"><ele>59.0</ele><time>2026-04-24T14:09:34.999Z</time></trkpt><trkpt lat="43.77894763191825" lon="7.505753769293433"><ele>59.0</ele><time>2026-04-24T14:12:01.999Z</time></trkpt><trkpt lat="43.77900986977332" lon="7.5058058151133835"><ele>59.0</ele><time>2026-04-24T14:12:03.999Z</time></trkpt><trkpt lat="43.77907428273738" lon="7.505832031495686"><ele>59.0</ele><time>2026-04-24T14:12:04.999Z</time></trkpt><trkpt lat="43.77916226834893" lon="7.505834067975812"><ele>59.0</ele><time>2026-04-24T14:12:05.999Z</time></trkpt><trkpt lat="43.779233845201375" lon="7.505842221530949"><ele>59.00000000000001</ele><time>2026-04-24T14:12:06.999Z</time></trkpt><trkpt lat="43.779308933674464" lon="7.505853622767717"><ele>59.0</ele><time>2026-04-24T14:12:07.999Z</time></trkpt><trkpt lat="43.779383180106414" lon="7.505867288017555"><ele>59.0</ele><time>2026-04-24T14:12:08.999Z</time></trkpt><trkpt lat="43.77946435852569" lon="7.505886147985798"><ele>59.0</ele><time>2026-04-24T14:12:09.999Z</time></trkpt><trkpt lat="43.77954619495979" lon="7.505908692502758"><ele>59.00000000000001</ele><time>2026-04-24T14:12:10.999Z</time></trkpt><trkpt lat="43.77962347055908" lon="7.505949941810782"><ele>59.0</ele><time>2026-04-24T14:12:11.999Z</time></trkpt><trkpt lat="43.77969481749673" lon="7.505996425962974"><ele>58.6</ele><time>2026-04-24T14:12:12.999Z</time></trkpt><trkpt lat="43.77975991052414" lon="7.506061001344478"><ele>58.2</ele><time>2026-04-24T14:12:13.999Z</time></trkpt><trkpt lat="43.77982210671326" lon="7.5061529892485295"><ele>57.800000000000004</ele><time>2026-04-24T14:12:14.999Z</time></trkpt><trkpt lat="43.779886271817006" lon="7.506270043927093"><ele>57.400000000000006</ele><time>2026-04-24T14:12:15.999Z</time></trkpt><trkpt lat="43.77996151477073" lon="7.506357705036819"><ele>57.0</ele><time>2026-04-24T14:12:16.999Z</time></trkpt><trkpt lat="43.78005071950118" lon="7.5064374376107335"><ele>57.0</ele><time>2026-04-24T14:12:17.999Z</time></trkpt><trkpt lat="43.78015199342782" lon="7.506513856208769"><ele>57.0</ele><time>2026-04-24T14:12:18.999Z</time></trkpt><trkpt lat="43.78024617460779" lon="7.506613524263208"><ele>57.0</ele><time>2026-04-24T14:12:19.999Z</time></trkpt><trkpt lat="43.78033476938725" lon="7.5066939990418495"><ele>57.0</ele><time>2026-04-24T14:12:20.999Z</time></trkpt><trkpt lat="43.78042581138812" lon="7.506748736299491"><ele>57.0</ele><time>2026-04-24T14:12:21.999Z</time></trkpt><trkpt lat="43.78049769528631" lon="7.5068301699237425"><ele>56.0</ele><time>2026-04-24T14:12:22.999Z</time></trkpt><trkpt lat="43.78058184625709" lon="7.506881639000693"><ele>55.0</ele><time>2026-04-24T14:12:23.999Z</time></trkpt><trkpt lat="43.78064502623925" lon="7.506979020491629"><ele>54.0</ele><time>2026-04-24T14:12:24.999Z</time></trkpt><trkpt lat="43.78071771070021" lon="7.507054987426661"><ele>53.0</ele><time>2026-04-24T14:12:25.999Z</time></trkpt><trkpt lat="43.78076934364136" lon="7.507139159909237"><ele>52.0</ele><time>2026-04-24T14:12:26.999Z</time></trkpt><trkpt lat="43.78081348030194" lon="7.507209667587665"><ele>51.0</ele><time>2026-04-24T14:12:28Z</time></trkpt><trkpt lat="43.780902214761284" lon="7.507336679686709"><ele>51.0</ele><time>2026-04-24T14:12:30Z</time></trkpt><trkpt lat="43.78097253134119" lon="7.507388651226822"><ele>51.0</ele><time>2026-04-24T14:12:31Z</time></trkpt><trkpt lat="43.78103862322071" lon="7.5074110314549864"><ele>51.0</ele><time>2026-04-24T14:12:32Z</time></trkpt><trkpt lat="43.781105243752926" lon="7.50739627482398"><ele>51.0</ele><time>2026-04-24T14:12:33Z</time></trkpt><trkpt lat="43.78118165127705" lon="7.507394078064128"><ele>51.0</ele><time>2026-04-24T14:12:34Z</time></trkpt><trkpt lat="43.78126327564924" lon="7.507374913714733"><ele>51.0</ele><time>2026-04-24T14:12:35Z</time></trkpt><trkpt lat="43.78135063198598" lon="7.507353594861276"><ele>55.666666666666664</ele><time>2026-04-24T14:12:36Z</time></trkpt><trkpt lat="43.78143209258137" lon="7.507348509676628"><ele>60.33333333333333</ele><time>2026-04-24T14:12:37Z</time></trkpt><trkpt lat="43.781502777999236" lon="7.507373154377247"><ele>65.0</ele><time>2026-04-24T14:12:38Z</time></trkpt><trkpt lat="43.78154923986347" lon="7.507439832143368"><ele>69.66666666666666</ele><time>2026-04-24T14:12:39Z</time></trkpt><trkpt lat="43.7816114003987" lon="7.507494545399849"><ele>74.33333333333333</ele><time>2026-04-24T14:12:40Z</time></trkpt><trkpt lat="43.78167428904389" lon="7.507575152717751"><ele>79.0</ele><time>2026-04-24T14:12:41Z</time></trkpt><trkpt lat="43.781738567166386" lon="7.5076492330412545"><ele>79.0</ele><time>2026-04-24T14:12:42Z</time></trkpt><trkpt lat="43.781798356514294" lon="7.507721236766174"><ele>79.0</ele><time>2026-04-24T14:12:43Z</time></trkpt><trkpt lat="43.78186401210392" lon="7.507782567792996"><ele>79.0</ele><time>2026-04-24T14:12:44Z</time></trkpt><trkpt lat="43.78193388195752" lon="7.507840936080133"><ele>79.0</ele><time>2026-04-24T14:12:45Z</time></trkpt><trkpt lat="43.78201391474516" lon="7.507882072905264"><ele>79.0</ele><time>2026-04-24T14:12:46Z</time></trkpt><trkpt lat="43.78210882656969" lon="7.507913394930898"><ele>79.0</ele><time>2026-04-24T14:12:47Z</time></trkpt><trkpt lat="43.78221005220147" lon="7.507947284417438"><ele>75.60000000000001</ele><time>2026-04-24T14:12:48Z</time></trkpt><trkpt lat="43.782308574562855" lon="7.507980203539554"><ele>72.2</ele><time>2026-04-24T14:12:49Z</time></trkpt><trkpt lat="43.78239950752859" lon="7.508013182558963"><ele>68.80000000000001</ele><time>2026-04-24T14:12:50Z</time></trkpt><trkpt lat="43.78248810549607" lon="7.508053116008183"><ele>65.4</ele><time>2026-04-24T14:12:51Z</time></trkpt><trkpt lat="43.782586809517504" lon="7.5080785153368295"><ele>62.0</ele><time>2026-04-24T14:12:52Z</time></trkpt><trkpt lat="43.78269148165699" lon="7.508096962463496"><ele>62.0</ele><time>2026-04-24T14:12:53Z</time></trkpt><trkpt lat="43.782799262762715" lon="7.508119214865731"><ele>62.0</ele><time>2026-04-24T14:12:54Z</time></trkpt><trkpt lat="43.782911633391905" lon="7.508142014524599"><ele>62.0</ele><time>2026-04-24T14:12:55Z</time></trkpt><trkpt lat="43.78303186953684" lon="7.508168943670469"><ele>62.0</ele><time>2026-04-24T14:12:56Z</time></trkpt><trkpt lat="43.783149632906465" lon="7.508190068722814"><ele>62.0</ele><time>2026-04-24T14:12:57Z</time></trkpt><trkpt lat="43.78325634959377" lon="7.508205927500986"><ele>62.0</ele><time>2026-04-24T14:12:58Z</time></trkpt><trkpt lat="43.783361302764526" lon="7.508217273063097"><ele>62.0</ele><time>2026-04-24T14:12:59Z</time></trkpt><trkpt lat="43.78347030594622" lon="7.508235593876001"><ele>62.0</ele><time>2026-04-24T14:13:00Z</time></trkpt><trkpt lat="43.783587955583855" lon="7.508261443851389"><ele>62.0</ele><time>2026-04-24T14:13:01Z</time></trkpt><trkpt lat="43.783703833509115" lon="7.508293769736119"><ele>65.2</ele><time>2026-04-24T14:13:02Z</time></trkpt><trkpt lat="43.783811726363375" lon="7.508330055098814"><ele>68.4</ele><time>2026-04-24T14:13:03Z</time></trkpt><trkpt lat="43.78391633356691" lon="7.50836399557656"><ele>71.6</ele><time>2026-04-24T14:13:04Z</time></trkpt><trkpt lat="43.78401152667034" lon="7.508394561573861"><ele>74.8</ele><time>2026-04-24T14:13:05Z</time></trkpt><trkpt lat="43.784105184671084" lon="7.508414347763104"><ele>78.0</ele><time>2026-04-24T14:13:06Z</time></trkpt><trkpt lat="43.78419215613324" lon="7.508421650134645"><ele>78.0</ele><time>2026-04-24T14:13:07Z</time></trkpt><trkpt lat="43.78426437681643" lon="7.508431755486177"><ele>78.0</ele><time>2026-04-24T14:13:08Z</time></trkpt><trkpt lat="43.78436819564586" lon="7.508485522755293"><ele>78.0</ele><time>2026-04-24T14:13:10Z</time></trkpt><trkpt lat="43.78440520431482" lon="7.508633034768944"><ele>78.0</ele><time>2026-04-24T14:13:12Z</time></trkpt><trkpt lat="43.78439378774784" lon="7.508729259172728"><ele>78.0</ele><time>2026-04-24T14:13:13Z</time></trkpt><trkpt lat="43.78436490830191" lon="7.5088144527114045"><ele>78.0</ele><time>2026-04-24T14:13:14Z</time></trkpt><trkpt lat="43.784343479872504" lon="7.508902309284222"><ele>78.2</ele><time>2026-04-24T14:13:15Z</time></trkpt><trkpt lat="43.784344404428" lon="7.508989814820589"><ele>78.4</ele><time>2026-04-24T14:13:16Z</time></trkpt><trkpt lat="43.78440152175817" lon="7.509131068406098"><ele>78.60000000000001</ele><time>2026-04-24T14:13:18Z</time></trkpt><trkpt lat="43.78446263422799" lon="7.509199335003585"><ele>78.8</ele><time>2026-04-24T14:13:19Z</time></trkpt><trkpt lat="43.7845408510696" lon="7.509282364501013"><ele>79.0</ele><time>2026-04-24T14:13:20Z</time></trkpt><trkpt lat="43.784629628967785" lon="7.509380526637403"><ele>79.0</ele><time>2026-04-24T14:13:21Z</time></trkpt><trkpt lat="43.78471352728775" lon="7.509479217956575"><ele>79.0</ele><time>2026-04-24T14:13:22Z</time></trkpt><trkpt lat="43.78479487719497" lon="7.5095890749868985"><ele>79.0</ele><time>2026-04-24T14:13:23Z</time></trkpt><trkpt lat="43.78488139483288" lon="7.509707407793464"><ele>79.0</ele><time>2026-04-24T14:13:24Z</time></trkpt><trkpt lat="43.78497161097025" lon="7.509829957304416"><ele>78.5</ele><time>2026-04-24T14:13:25Z</time></trkpt><trkpt lat="43.78505785910759" lon="7.509953765389195"><ele>78.0</ele><time>2026-04-24T14:13:26Z</time></trkpt><trkpt lat="43.78514261846365" lon="7.510080440708793"><ele>77.5</ele><time>2026-04-24T14:13:27Z</time></trkpt><trkpt lat="43.78522124887745" lon="7.510208154243455"><ele>77.0</ele><time>2026-04-24T14:13:28Z</time></trkpt><trkpt lat="43.78529640946324" lon="7.510335027015783"><ele>72.5</ele><time>2026-04-24T14:13:28.999Z</time></trkpt><trkpt lat="43.785365960562316" lon="7.510473056060549"><ele>68.0</ele><time>2026-04-24T14:13:29.999Z</time></trkpt><trkpt lat="43.785434530025434" lon="7.510619186087415"><ele>63.5</ele><time>2026-04-24T14:13:30.999Z</time></trkpt><trkpt lat="43.78549700204197" lon="7.510781001832978"><ele>59.0</ele><time>2026-04-24T14:13:31.999Z</time></trkpt><trkpt lat="43.78556108307189" lon="7.510935400099718"><ele>59.0</ele><time>2026-04-24T14:13:32.999Z</time></trkpt><trkpt lat="43.785627744889844" lon="7.511080472566217"><ele>59.0</ele><time>2026-04-24T14:13:33.999Z</time></trkpt><trkpt lat="43.78568931468112" lon="7.511220075114348"><ele>59.0</ele><time>2026-04-24T14:13:34.999Z</time></trkpt><trkpt lat="43.78574156621557" lon="7.511353726074294"><ele>59.0</ele><time>2026-04-24T14:13:35.999Z</time></trkpt><trkpt lat="43.78579775565613" lon="7.5114808078551025"><ele>57.2</ele><time>2026-04-24T14:13:36.999Z</time></trkpt><trkpt lat="43.78584984790679" lon="7.511599963833167"><ele>55.400000000000006</ele><time>2026-04-24T14:13:37.999Z</time></trkpt><trkpt lat="43.78590068925691" lon="7.511714858578005"><ele>53.6</ele><time>2026-04-24T14:13:38.999Z</time></trkpt><trkpt lat="43.78594046413015" lon="7.511814722196945"><ele>51.8</ele><time>2026-04-24T14:13:39.999Z</time></trkpt><trkpt lat="43.78597756030885" lon="7.511893371372059"><ele>50.0</ele><time>2026-04-24T14:13:40.999Z</time></trkpt><trkpt lat="43.78602924472016" lon="7.51203735874568"><ele>52.00000000000001</ele><time>2026-04-24T14:13:42.999Z</time></trkpt><trkpt lat="43.78609132578009" lon="7.512143047325427"><ele>54.0</ele><time>2026-04-24T14:13:53.999Z</time></trkpt><trkpt lat="43.78611986481155" lon="7.512223816800197"><ele>56.0</ele><time>2026-04-24T14:13:54.999Z</time></trkpt><trkpt lat="43.78614875240099" lon="7.512332992515788"><ele>58.0</ele><time>2026-04-24T14:13:55.999Z</time></trkpt><trkpt lat="43.78618629149202" lon="7.512456342780594"><ele>60.00000000000001</ele><time>2026-04-24T14:13:56.999Z</time></trkpt><trkpt lat="43.786212187587566" lon="7.512581857564252"><ele>62.0</ele><time>2026-04-24T14:13:57.999Z</time></trkpt><trkpt lat="43.786269287251464" lon="7.5126944056577365"><ele>62.0</ele><time>2026-04-24T14:13:58.999Z</time></trkpt><trkpt lat="43.78631841952025" lon="7.512828940835828"><ele>62.0</ele><time>2026-04-24T14:13:59.999Z</time></trkpt><trkpt lat="43.786351116175126" lon="7.5129655202014"><ele>62.0</ele><time>2026-04-24T14:14:01Z</time></trkpt><trkpt lat="43.78639545138079" lon="7.513077722646793"><ele>62.0</ele><time>2026-04-24T14:14:02Z</time></trkpt><trkpt lat="43.7864457867668" lon="7.513167907902256"><ele>62.0</ele><time>2026-04-24T14:14:03Z</time></trkpt><trkpt lat="43.78649924549869" lon="7.513256644019091"><ele>60.8</ele><time>2026-04-24T14:14:04Z</time></trkpt><trkpt lat="43.78657026245213" lon="7.51330826751393"><ele>59.6</ele><time>2026-04-24T14:14:05Z</time></trkpt><trkpt lat="43.78664867394657" lon="7.51335486963914"><ele>58.39999999999999</ele><time>2026-04-24T14:14:06Z</time></trkpt><trkpt lat="43.78673668520659" lon="7.513376363647058"><ele>57.199999999999996</ele><time>2026-04-24T14:14:07Z</time></trkpt><trkpt lat="43.786837247072405" lon="7.513407648126726"><ele>56.0</ele><time>2026-04-24T14:14:08Z</time></trkpt><trkpt lat="43.78693552909572" lon="7.513393312864949"><ele>56.0</ele><time>2026-04-24T14:14:09Z</time></trkpt><trkpt lat="43.787022915460355" lon="7.513405755078192"><ele>55.99999999999999</ele><time>2026-04-24T14:14:10Z</time></trkpt><trkpt lat="43.78711751259242" lon="7.513415814417573"><ele>55.99999999999999</ele><time>2026-04-24T14:14:11Z</time></trkpt><trkpt lat="43.78721991598168" lon="7.513442118855389"><ele>56.0</ele><time>2026-04-24T14:14:12Z</time></trkpt><trkpt lat="43.78732785469909" lon="7.5134826850347975"><ele>56.0</ele><time>2026-04-24T14:14:13Z</time></trkpt><trkpt lat="43.787428984862544" lon="7.513546066774471"><ele>56.00000000000001</ele><time>2026-04-24T14:14:14Z</time></trkpt><trkpt lat="43.78752466490836" lon="7.513570945791237"><ele>56.0</ele><time>2026-04-24T14:14:15Z</time></trkpt><trkpt lat="43.787591061688936" lon="7.513636845157571"><ele>56.0</ele><time>2026-04-24T14:14:16Z</time></trkpt><trkpt lat="43.787618801186845" lon="7.513720123006829"><ele>56.0</ele><time>2026-04-24T14:14:17Z</time></trkpt><trkpt lat="43.787618465888904" lon="7.51381821429575"><ele>56.00000000000001</ele><time>2026-04-24T14:14:18Z</time></trkpt><trkpt lat="43.78757536487085" lon="7.5139279717349075"><ele>56.0</ele><time>2026-04-24T14:14:19Z</time></trkpt><trkpt lat="43.787548433257875" lon="7.514049353284586"><ele>54.8</ele><time>2026-04-24T14:14:20Z</time></trkpt><trkpt lat="43.78747374644307" lon="7.514147384532296"><ele>53.599999999999994</ele><time>2026-04-24T14:14:21Z</time></trkpt><trkpt lat="43.787396587717225" lon="7.514246533437899"><ele>52.4</ele><time>2026-04-24T14:14:22Z</time></trkpt><trkpt lat="43.78732093916314" lon="7.5143562379152815"><ele>51.2</ele><time>2026-04-24T14:14:23Z</time></trkpt><trkpt lat="43.78723697439062" lon="7.51446655600373"><ele>50.0</ele><time>2026-04-24T14:14:24Z</time></trkpt><trkpt lat="43.787155788839726" lon="7.51457565271501"><ele>53.6</ele><time>2026-04-24T14:14:25Z</time></trkpt><trkpt lat="43.78708148148447" lon="7.514678806374653"><ele>57.2</ele><time>2026-04-24T14:14:26Z</time></trkpt><trkpt lat="43.78702184050463" lon="7.514772058845819"><ele>60.8</ele><time>2026-04-24T14:14:27Z</time></trkpt><trkpt lat="43.78697708336808" lon="7.514873194671039"><ele>64.4</ele><time>2026-04-24T14:14:28Z</time></trkpt><trkpt lat="43.78694589354905" lon="7.514986153269038"><ele>68.0</ele><time>2026-04-24T14:14:29Z</time></trkpt><trkpt lat="43.78693378767644" lon="7.515104597439963"><ele>68.0</ele><time>2026-04-24T14:14:30Z</time></trkpt><trkpt lat="43.78693428692936" lon="7.51524550844254"><ele>68.0</ele><time>2026-04-24T14:14:31Z</time></trkpt><trkpt lat="43.786947739679974" lon="7.5153980960761135"><ele>68.0</ele><time>2026-04-24T14:14:32Z</time></trkpt><trkpt lat="43.78695980618118" lon="7.515549968242081"><ele>68.0</ele><time>2026-04-24T14:14:33Z</time></trkpt><trkpt lat="43.78693654972738" lon="7.515678712775197"><ele>68.0</ele><time>2026-04-24T14:14:34Z</time></trkpt><trkpt lat="43.78687059201631" lon="7.515771601104528"><ele>64.2</ele><time>2026-04-24T14:14:35Z</time></trkpt><trkpt lat="43.786814910931604" lon="7.515856537300686"><ele>60.4</ele><time>2026-04-24T14:14:36Z</time></trkpt><trkpt lat="43.78674002412743" lon="7.515926991114006"><ele>56.6</ele><time>2026-04-24T14:14:37Z</time></trkpt><trkpt lat="43.78665464229889" lon="7.516010943698248"><ele>52.800000000000004</ele><time>2026-04-24T14:14:38Z</time></trkpt><trkpt lat="43.786570690423346" lon="7.516103080691407"><ele>49.0</ele><time>2026-04-24T14:14:39Z</time></trkpt><trkpt lat="43.78651229514455" lon="7.5162323045741894"><ele>51.400000000000006</ele><time>2026-04-24T14:14:40Z</time></trkpt><trkpt lat="43.78645768992491" lon="7.516348743005332"><ele>53.8</ele><time>2026-04-24T14:14:41Z</time></trkpt><trkpt lat="43.786409509977815" lon="7.516478676850354"><ele>56.199999999999996</ele><time>2026-04-24T14:14:42Z</time></trkpt><trkpt lat="43.786339944131164" lon="7.516600627410635"><ele>58.599999999999994</ele><time>2026-04-24T14:14:43Z</time></trkpt><trkpt lat="43.7862865778625" lon="7.516737408410003"><ele>61.0</ele><time>2026-04-24T14:14:44Z</time></trkpt><trkpt lat="43.78625280601341" lon="7.516870890542964"><ele>61.0</ele><time>2026-04-24T14:14:45Z</time></trkpt><trkpt lat="43.78625197732653" lon="7.5170041519072495"><ele>60.99999999999999</ele><time>2026-04-24T14:14:46Z</time></trkpt><trkpt lat="43.786228450774935" lon="7.517141642014322"><ele>60.99999999999999</ele><time>2026-04-24T14:14:47Z</time></trkpt><trkpt lat="43.78625774736336" lon="7.517296297815084"><ele>61.0</ele><time>2026-04-24T14:14:48Z</time></trkpt><trkpt lat="43.786263833874045" lon="7.517465451224827"><ele>61.0</ele><time>2026-04-24T14:14:49Z</time></trkpt><trkpt lat="43.78628214254235" lon="7.517612901894951"><ele>60.49999999999999</ele><time>2026-04-24T14:14:50Z</time></trkpt><trkpt lat="43.78630199138418" lon="7.517732153504658"><ele>60.0</ele><time>2026-04-24T14:14:51Z</time></trkpt><trkpt lat="43.78634572058055" lon="7.517818989738672"><ele>59.5</ele><time>2026-04-24T14:14:52Z</time></trkpt><trkpt lat="43.78640739072326" lon="7.51785590802969"><ele>59.0</ele><time>2026-04-24T14:14:53Z</time></trkpt><trkpt lat="43.786479715173705" lon="7.517883877933819"><ele>58.49999999999999</ele><time>2026-04-24T14:14:54Z</time></trkpt><trkpt lat="43.786556017853094" lon="7.517874173904381"><ele>58.0</ele><time>2026-04-24T14:14:55Z</time></trkpt><trkpt lat="43.78663963505902" lon="7.51784707145752"><ele>58.0</ele><time>2026-04-24T14:14:56Z</time></trkpt><trkpt lat="43.78672889731468" lon="7.517794292735037"><ele>58.0</ele><time>2026-04-24T14:14:57Z</time></trkpt><trkpt lat="43.786816459729664" lon="7.517741038005115"><ele>58.0</ele><time>2026-04-24T14:14:58Z</time></trkpt><trkpt lat="43.78689702186591" lon="7.517725575741473"><ele>58.0</ele><time>2026-04-24T14:14:59Z</time></trkpt><trkpt lat="43.78696074879775" lon="7.517766113791325"><ele>58.0</ele><time>2026-04-24T14:15:00Z</time></trkpt><trkpt lat="43.787033709208075" lon="7.517898306879652"><ele>61.599999999999994</ele><time>2026-04-24T14:15:02Z</time></trkpt><trkpt lat="43.78703768163449" lon="7.51801091349638"><ele>65.19999999999999</ele><time>2026-04-24T14:15:03Z</time></trkpt><trkpt lat="43.787028488841585" lon="7.51814500316225"><ele>68.8</ele><time>2026-04-24T14:15:04Z</time></trkpt><trkpt lat="43.787035410134855" lon="7.518306531531019"><ele>72.39999999999999</ele><time>2026-04-24T14:15:05Z</time></trkpt><trkpt lat="43.787044010478" lon="7.518496497930223"><ele>76.0</ele><time>2026-04-24T14:15:06Z</time></trkpt><trkpt lat="43.78704794860845" lon="7.518696899778882"><ele>75.6</ele><time>2026-04-24T14:15:07Z</time></trkpt><trkpt lat="43.787055160646304" lon="7.518878061883133"><ele>75.19999999999999</ele><time>2026-04-24T14:15:08Z</time></trkpt><trkpt lat="43.787067584900505" lon="7.51903673911079"><ele>74.80000000000001</ele><time>2026-04-24T14:15:09Z</time></trkpt><trkpt lat="43.78709442749747" lon="7.519172018067358"><ele>74.4</ele><time>2026-04-24T14:15:10Z</time></trkpt><trkpt lat="43.78714375744047" lon="7.519289111522772"><ele>74.0</ele><time>2026-04-24T14:15:11Z</time></trkpt><trkpt lat="43.78721535434251" lon="7.519405131440009"><ele>74.0</ele><time>2026-04-24T14:15:12Z</time></trkpt><trkpt lat="43.787274178785026" lon="7.519534007684565"><ele>74.0</ele><time>2026-04-24T14:15:13Z</time></trkpt><trkpt lat="43.787327063678134" lon="7.519632208350017"><ele>74.0</ele><time>2026-04-24T14:15:14Z</time></trkpt><trkpt lat="43.78733146062894" lon="7.519731902676757"><ele>74.0</ele><time>2026-04-24T14:15:15Z</time></trkpt><trkpt lat="43.7872965019961" lon="7.5198211164709345"><ele>74.0</ele><time>2026-04-24T14:15:16Z</time></trkpt><trkpt lat="43.787242391451585" lon="7.519884251524729"><ele>74.0</ele><time>2026-04-24T14:15:17Z</time></trkpt><trkpt lat="43.78717291811636" lon="7.519933552243933"><ele>73.33333333333334</ele><time>2026-04-24T14:15:18Z</time></trkpt><trkpt lat="43.78709751965475" lon="7.519992058566939"><ele>72.66666666666667</ele><time>2026-04-24T14:15:19Z</time></trkpt><trkpt lat="43.787020550217974" lon="7.520062767857273"><ele>72.0</ele><time>2026-04-24T14:15:20Z</time></trkpt><trkpt lat="43.78695031321702" lon="7.52013424996462"><ele>71.33333333333333</ele><time>2026-04-24T14:15:21Z</time></trkpt><trkpt lat="43.7868924729959" lon="7.520201157556278"><ele>70.66666666666666</ele><time>2026-04-24T14:15:22Z</time></trkpt><trkpt lat="43.786842186036544" lon="7.5202810955419634"><ele>70.0</ele><time>2026-04-24T14:15:23Z</time></trkpt><trkpt lat="43.78680798305079" lon="7.5203671914303545"><ele>70.85714285714286</ele><time>2026-04-24T14:15:24Z</time></trkpt><trkpt lat="43.78678469643133" lon="7.5204554451347585"><ele>71.71428571428572</ele><time>2026-04-24T14:15:25Z</time></trkpt><trkpt lat="43.786773397745655" lon="7.520559168810616"><ele>72.57142857142857</ele><time>2026-04-24T14:15:26Z</time></trkpt><trkpt lat="43.7867694353857" lon="7.520656449225402"><ele>73.42857142857143</ele><time>2026-04-24T14:15:27Z</time></trkpt><trkpt lat="43.78677482823133" lon="7.520744320828906"><ele>74.28571428571429</ele><time>2026-04-24T14:15:28Z</time></trkpt><trkpt lat="43.78680396421403" lon="7.520867108196275"><ele>75.14285714285714</ele><time>2026-04-24T14:15:30Z</time></trkpt><trkpt lat="43.78680087380007" lon="7.520958912625559"><ele>76.0</ele><time>2026-04-24T14:15:33Z</time></trkpt><trkpt lat="43.78686268780809" lon="7.521018233598506"><ele>76.0</ele><time>2026-04-24T14:15:42.999Z</time></trkpt><trkpt lat="43.78689330846664" lon="7.52109458817846"><ele>76.0</ele><time>2026-04-24T14:15:43.999Z</time></trkpt><trkpt lat="43.78693168783417" lon="7.521197713740015"><ele>76.0</ele><time>2026-04-24T14:15:44.999Z</time></trkpt><trkpt lat="43.786974516955304" lon="7.521317929099006"><ele>76.0</ele><time>2026-04-24T14:15:45.999Z</time></trkpt><trkpt lat="43.78702056571777" lon="7.5214335780788595"><ele>76.0</ele><time>2026-04-24T14:15:46.999Z</time></trkpt><trkpt lat="43.78705984620372" lon="7.521551541611901"><ele>76.0</ele><time>2026-04-24T14:15:47.999Z</time></trkpt><trkpt lat="43.787072249642385" lon="7.521674867587361"><ele>74.8</ele><time>2026-04-24T14:15:48.999Z</time></trkpt><trkpt lat="43.787102761344784" lon="7.5217745010196"><ele>73.6</ele><time>2026-04-24T14:15:49.999Z</time></trkpt><trkpt lat="43.78705304701887" lon="7.521873083220946"><ele>72.4</ele><time>2026-04-24T14:15:50.999Z</time></trkpt><trkpt lat="43.78702111378957" lon="7.5219803486496355"><ele>71.2</ele><time>2026-04-24T14:15:51.999Z</time></trkpt><trkpt lat="43.787006938799955" lon="7.522112687334304"><ele>70.0</ele><time>2026-04-24T14:15:52.999Z</time></trkpt><trkpt lat="43.786970260359496" lon="7.522253180686506"><ele>69.6</ele><time>2026-04-24T14:15:53.999Z</time></trkpt><trkpt lat="43.786934510954445" lon="7.5224014317966255"><ele>69.2</ele><time>2026-04-24T14:15:54.999Z</time></trkpt><trkpt lat="43.786904570368335" lon="7.522544699482811"><ele>68.8</ele><time>2026-04-24T14:15:55.999Z</time></trkpt><trkpt lat="43.78686881425052" lon="7.522674825870594"><ele>68.4</ele><time>2026-04-24T14:15:56.999Z</time></trkpt><trkpt lat="43.78687792950621" lon="7.522811099120307"><ele>68.0</ele><time>2026-04-24T14:15:57.999Z</time></trkpt><trkpt lat="43.7868781478521" lon="7.5229601542252755"><ele>68.0</ele><time>2026-04-24T14:15:58.999Z</time></trkpt><trkpt lat="43.78688739121195" lon="7.523119320109941"><ele>68.0</ele><time>2026-04-24T14:16:00Z</time></trkpt><trkpt lat="43.78688734204309" lon="7.523291677015281"><ele>68.0</ele><time>2026-04-24T14:16:01Z</time></trkpt><trkpt lat="43.78690041628718" lon="7.523484660767645"><ele>68.0</ele><time>2026-04-24T14:16:02Z</time></trkpt><trkpt lat="43.786923259220124" lon="7.523684021206825"><ele>67.75</ele><time>2026-04-24T14:16:03Z</time></trkpt><trkpt lat="43.786949026953735" lon="7.523874253281417"><ele>67.5</ele><time>2026-04-24T14:16:04Z</time></trkpt><trkpt lat="43.78696547772036" lon="7.524072647042325"><ele>67.25</ele><time>2026-04-24T14:16:05Z</time></trkpt><trkpt lat="43.786991692309435" lon="7.524256226496089"><ele>67.0</ele><time>2026-04-24T14:16:06Z</time></trkpt><trkpt lat="43.78700896906997" lon="7.524430674811264"><ele>67.25</ele><time>2026-04-24T14:16:07Z</time></trkpt><trkpt lat="43.78700453967255" lon="7.524598071165656"><ele>67.5</ele><time>2026-04-24T14:16:08Z</time></trkpt><trkpt lat="43.7869896425801" lon="7.524771479605614"><ele>67.75</ele><time>2026-04-24T14:16:09Z</time></trkpt><trkpt lat="43.78698257163416" lon="7.524931110599025"><ele>68.0</ele><time>2026-04-24T14:16:10Z</time></trkpt><trkpt lat="43.786967207697394" lon="7.52512089963593"><ele>68.0</ele><time>2026-04-24T14:16:11Z</time></trkpt><trkpt lat="43.786957428343264" lon="7.525312489611775"><ele>68.0</ele><time>2026-04-24T14:16:12Z</time></trkpt><trkpt lat="43.786937244990334" lon="7.525497006012828"><ele>68.0</ele><time>2026-04-24T14:16:13Z</time></trkpt><trkpt lat="43.786886180141764" lon="7.52567539523326"><ele>68.0</ele><time>2026-04-24T14:16:14Z</time></trkpt><trkpt lat="43.78686378677115" lon="7.52587479689381"><ele>61.5</ele><time>2026-04-24T14:16:15Z</time></trkpt><trkpt lat="43.786815089595564" lon="7.526055195755037"><ele>55.0</ele><time>2026-04-24T14:16:16Z</time></trkpt><trkpt lat="43.78679091311408" lon="7.526253471899114"><ele>48.5</ele><time>2026-04-24T14:16:17Z</time></trkpt><trkpt lat="43.78674836607689" lon="7.526431527872156"><ele>42.0</ele><time>2026-04-24T14:16:18Z</time></trkpt><trkpt lat="43.78669436369733" lon="7.526620982824956"><ele>42.0</ele><time>2026-04-24T14:16:19Z</time></trkpt><trkpt lat="43.78664018136798" lon="7.5267995581392055"><ele>42.0</ele><time>2026-04-24T14:16:20Z</time></trkpt><trkpt lat="43.786583833009296" lon="7.52697058328561"><ele>42.0</ele><time>2026-04-24T14:16:21Z</time></trkpt><trkpt lat="43.78653874788187" lon="7.527136472415001"><ele>42.0</ele><time>2026-04-24T14:16:22Z</time></trkpt><trkpt lat="43.786490585635384" lon="7.527292007396286"><ele>44.8</ele><time>2026-04-24T14:16:23Z</time></trkpt><trkpt lat="43.78642972816223" lon="7.5274256355004985"><ele>47.6</ele><time>2026-04-24T14:16:24Z</time></trkpt><trkpt lat="43.78638029068256" lon="7.527556721255358"><ele>50.39999999999999</ele><time>2026-04-24T14:16:25Z</time></trkpt><trkpt lat="43.78633060011941" lon="7.527679593834672"><ele>53.199999999999996</ele><time>2026-04-24T14:16:26Z</time></trkpt><trkpt lat="43.78629339358868" lon="7.527803843320957"><ele>56.0</ele><time>2026-04-24T14:16:27Z</time></trkpt><trkpt lat="43.78625106519829" lon="7.5279097161927195"><ele>56.833333333333336</ele><time>2026-04-24T14:16:28Z</time></trkpt><trkpt lat="43.786212614833225" lon="7.527992942159222"><ele>57.66666666666667</ele><time>2026-04-24T14:16:29Z</time></trkpt><trkpt lat="43.78615754370592" lon="7.528103664541307"><ele>58.5</ele><time>2026-04-24T14:16:31Z</time></trkpt><trkpt lat="43.78610872691664" lon="7.528162148611646"><ele>59.33333333333333</ele><time>2026-04-24T14:16:37Z</time></trkpt><trkpt lat="43.78604192392185" lon="7.528246656477582"><ele>60.166666666666664</ele><time>2026-04-24T14:16:39Z</time></trkpt><trkpt lat="43.786038275209634" lon="7.52837998664169"><ele>61.0</ele><time>2026-04-24T14:16:40Z</time></trkpt><trkpt lat="43.78602171952601" lon="7.528490359443446"><ele>60.99999999999999</ele><time>2026-04-24T14:16:41Z</time></trkpt><trkpt lat="43.78601592153372" lon="7.528579446044446"><ele>61.0</ele><time>2026-04-24T14:16:42Z</time></trkpt><trkpt lat="43.78600913993246" lon="7.528678077392608"><ele>61.0</ele><time>2026-04-24T14:16:43Z</time></trkpt><trkpt lat="43.7860074261096" lon="7.5287946058844915"><ele>61.0</ele><time>2026-04-24T14:16:44Z</time></trkpt><trkpt lat="43.7860073202824" lon="7.52891336395144"><ele>60.99999999999999</ele><time>2026-04-24T14:16:45Z</time></trkpt><trkpt lat="43.78599762173574" lon="7.529036444888751"><ele>61.0</ele><time>2026-04-24T14:16:46Z</time></trkpt><trkpt lat="43.786034149429014" lon="7.529159026888111"><ele>60.8</ele><time>2026-04-24T14:16:47Z</time></trkpt><trkpt lat="43.78610547467771" lon="7.52927412103766"><ele>60.599999999999994</ele><time>2026-04-24T14:16:48Z</time></trkpt><trkpt lat="43.786165365193554" lon="7.529377417661235"><ele>60.4</ele><time>2026-04-24T14:16:49Z</time></trkpt><trkpt lat="43.78621127771891" lon="7.529487638069467"><ele>60.2</ele><time>2026-04-24T14:16:50Z</time></trkpt><trkpt lat="43.78621867744606" lon="7.529615643987724"><ele>60.0</ele><time>2026-04-24T14:16:52Z</time></trkpt><trkpt lat="43.78615852639216" lon="7.529785356992909"><ele>60.0</ele><time>2026-04-24T14:16:54Z</time></trkpt><trkpt lat="43.78611556284417" lon="7.529874234854486"><ele>60.0</ele><time>2026-04-24T14:16:55Z</time></trkpt><trkpt lat="43.78606731332792" lon="7.52997347814786"><ele>60.0</ele><time>2026-04-24T14:16:56Z</time></trkpt><trkpt lat="43.78601790176666" lon="7.530074021833299"><ele>60.0</ele><time>2026-04-24T14:16:57Z</time></trkpt><trkpt lat="43.785964999388696" lon="7.53018627286088"><ele>60.0</ele><time>2026-04-24T14:16:58Z</time></trkpt><trkpt lat="43.785925771898015" lon="7.530313492833423"><ele>60.0</ele><time>2026-04-24T14:16:59Z</time></trkpt><trkpt lat="43.78587887267383" lon="7.530430493853093"><ele>59.833333333333336</ele><time>2026-04-24T14:17:00Z</time></trkpt><trkpt lat="43.785827060475285" lon="7.530539649469776"><ele>59.66666666666667</ele><time>2026-04-24T14:17:01Z</time></trkpt><trkpt lat="43.78581138011592" lon="7.53064304514771"><ele>59.5</ele><time>2026-04-24T14:17:02Z</time></trkpt><trkpt lat="43.7857752828742" lon="7.530721230075036"><ele>59.333333333333336</ele><time>2026-04-24T14:17:03Z</time></trkpt><trkpt lat="43.78576158635928" lon="7.530823420727419"><ele>59.16666666666667</ele><time>2026-04-24T14:17:04Z</time></trkpt><trkpt lat="43.785716102958745" lon="7.5309542540770105"><ele>59.0</ele><time>2026-04-24T14:17:06Z</time></trkpt><trkpt lat="43.785683645324006" lon="7.531072871648747"><ele>59.00000000000001</ele><time>2026-04-24T14:17:08Z</time></trkpt><trkpt lat="43.78564868663351" lon="7.531215473700316"><ele>59.0</ele><time>2026-04-24T14:17:10Z</time></trkpt><trkpt lat="43.78563216583489" lon="7.531304422985961"><ele>59.0</ele><time>2026-04-24T14:17:11Z</time></trkpt><trkpt lat="43.785615249471626" lon="7.531392630781307"><ele>59.0</ele><time>2026-04-24T14:17:12Z</time></trkpt><trkpt lat="43.785600754251135" lon="7.531493134513627"><ele>59.00000000000001</ele><time>2026-04-24T14:17:13Z</time></trkpt><trkpt lat="43.78558091621057" lon="7.531593713365586"><ele>59.0</ele><time>2026-04-24T14:17:14Z</time></trkpt><trkpt lat="43.785559298658065" lon="7.531699112505707"><ele>62.6</ele><time>2026-04-24T14:17:15Z</time></trkpt><trkpt lat="43.7855387324937" lon="7.531818577216959"><ele>66.2</ele><time>2026-04-24T14:17:16Z</time></trkpt><trkpt lat="43.78551843785875" lon="7.531961774594692"><ele>69.80000000000001</ele><time>2026-04-24T14:17:17Z</time></trkpt><trkpt lat="43.78549502521192" lon="7.532111998371614"><ele>73.4</ele><time>2026-04-24T14:17:18Z</time></trkpt><trkpt lat="43.78547102392506" lon="7.532236676450509"><ele>77.0</ele><time>2026-04-24T14:17:19Z</time></trkpt><trkpt lat="43.785443892745874" lon="7.532358432658962"><ele>76.0</ele><time>2026-04-24T14:17:20Z</time></trkpt><trkpt lat="43.78541185201324" lon="7.53246208182418"><ele>75.0</ele><time>2026-04-24T14:17:21Z</time></trkpt><trkpt lat="43.785376477329535" lon="7.532551638905138"><ele>74.0</ele><time>2026-04-24T14:17:22Z</time></trkpt><trkpt lat="43.78532844294666" lon="7.532630607981293"><ele>73.0</ele><time>2026-04-24T14:17:23Z</time></trkpt><trkpt lat="43.78520716870529" lon="7.532779711834646"><ele>72.0</ele><time>2026-04-24T14:17:25Z</time></trkpt><trkpt lat="43.78516762369533" lon="7.532893420088785"><ele>72.0</ele><time>2026-04-24T14:17:26Z</time></trkpt><trkpt lat="43.78512660962853" lon="7.532998689269307"><ele>72.0</ele><time>2026-04-24T14:17:27Z</time></trkpt><trkpt lat="43.785090285939134" lon="7.533129268875264"><ele>72.0</ele><time>2026-04-24T14:17:28Z</time></trkpt><trkpt lat="43.78506171487179" lon="7.533259187282157"><ele>72.0</ele><time>2026-04-24T14:17:29Z</time></trkpt><trkpt lat="43.785021649321735" lon="7.533394065637789"><ele>72.0</ele><time>2026-04-24T14:17:30Z</time></trkpt><trkpt lat="43.784988363978314" lon="7.533522691728936"><ele>72.0</ele><time>2026-04-24T14:17:31Z</time></trkpt><trkpt lat="43.78493252397097" lon="7.5336127153144865"><ele>72.0</ele><time>2026-04-24T14:17:32Z</time></trkpt><trkpt lat="43.78486304014892" lon="7.533684196770347"><ele>72.0</ele><time>2026-04-24T14:17:33Z</time></trkpt><trkpt lat="43.78478196395368" lon="7.533742575122858"><ele>72.0</ele><time>2026-04-24T14:17:34Z</time></trkpt><trkpt lat="43.784715514443704" lon="7.533793626390196"><ele>72.0</ele><time>2026-04-24T14:17:35Z</time></trkpt><trkpt lat="43.78465867506296" lon="7.533853647679621"><ele>72.0</ele><time>2026-04-24T14:17:36Z</time></trkpt><trkpt lat="43.78460129677156" lon="7.53392756016611"><ele>77.0</ele><time>2026-04-24T14:17:37Z</time></trkpt><trkpt lat="43.784547912022084" lon="7.534012526506685"><ele>82.0</ele><time>2026-04-24T14:17:38Z</time></trkpt><trkpt lat="43.78450465740628" lon="7.534120444986168"><ele>87.0</ele><time>2026-04-24T14:17:39Z</time></trkpt><trkpt lat="43.78446986501239" lon="7.534242069710818"><ele>92.0</ele><time>2026-04-24T14:17:40Z</time></trkpt><trkpt lat="43.78443597004893" lon="7.534373223279169"><ele>97.0</ele><time>2026-04-24T14:17:40.999Z</time></trkpt><trkpt lat="43.784401390856154" lon="7.534510317196728"><ele>99.39999999999999</ele><time>2026-04-24T14:17:41.999Z</time></trkpt><trkpt lat="43.78437268901467" lon="7.53463094311534"><ele>101.8</ele><time>2026-04-24T14:17:42.999Z</time></trkpt><trkpt lat="43.78434171151068" lon="7.534750965581841"><ele>104.2</ele><time>2026-04-24T14:17:43.999Z</time></trkpt><trkpt lat="43.78431226433598" lon="7.5348735893772725"><ele>106.6</ele><time>2026-04-24T14:17:44.999Z</time></trkpt><trkpt lat="43.784279299202275" lon="7.534986966838936"><ele>109.0</ele><time>2026-04-24T14:17:45.999Z</time></trkpt><trkpt lat="43.7842354702654" lon="7.535092200231346"><ele>101.0</ele><time>2026-04-24T14:17:46.999Z</time></trkpt><trkpt lat="43.78419144906773" lon="7.535187980741698"><ele>93.0</ele><time>2026-04-24T14:17:47.999Z</time></trkpt><trkpt lat="43.78415472187291" lon="7.5352679407308845"><ele>85.0</ele><time>2026-04-24T14:17:48.999Z</time></trkpt><trkpt lat="43.784117552947315" lon="7.535345742939243"><ele>77.0</ele><time>2026-04-24T14:17:49.999Z</time></trkpt><trkpt lat="43.78408615448296" lon="7.5354333415014345"><ele>69.0</ele><time>2026-04-24T14:17:50.999Z</time></trkpt><trkpt lat="43.784073033252305" lon="7.535529718163915"><ele>61.0</ele><time>2026-04-24T14:17:51.999Z</time></trkpt><trkpt lat="43.78407792882414" lon="7.535623041164049"><ele>53.0</ele><time>2026-04-24T14:17:52.999Z</time></trkpt><trkpt lat="43.784129554340915" lon="7.535694037020693"><ele>52.599999999999994</ele><time>2026-04-24T14:17:53.999Z</time></trkpt><trkpt lat="43.78420030001123" lon="7.535739578157347"><ele>52.199999999999996</ele><time>2026-04-24T14:17:54.999Z</time></trkpt><trkpt lat="43.7842986475556" lon="7.535774680702314"><ele>51.8</ele><time>2026-04-24T14:17:56Z</time></trkpt><trkpt lat="43.78440140315972" lon="7.535810952633775"><ele>51.4</ele><time>2026-04-24T14:17:57Z</time></trkpt><trkpt lat="43.784488360574045" lon="7.535849922298161"><ele>51.0</ele><time>2026-04-24T14:17:58Z</time></trkpt><trkpt lat="43.78455979852407" lon="7.535891304744837"><ele>58.333333333333336</ele><time>2026-04-24T14:17:59Z</time></trkpt><trkpt lat="43.78463088352223" lon="7.535937838765105"><ele>65.66666666666667</ele><time>2026-04-24T14:18:00Z</time></trkpt><trkpt lat="43.78469848098728" lon="7.535989915785702"><ele>73.0</ele><time>2026-04-24T14:18:01Z</time></trkpt><trkpt lat="43.78476589868708" lon="7.5360620955590125"><ele>80.33333333333334</ele><time>2026-04-24T14:18:02Z</time></trkpt><trkpt lat="43.78481840202286" lon="7.536148771000645"><ele>87.66666666666667</ele><time>2026-04-24T14:18:03Z</time></trkpt><trkpt lat="43.784862938645915" lon="7.536246331829245"><ele>95.0</ele><time>2026-04-24T14:18:04Z</time></trkpt><trkpt lat="43.784896730056666" lon="7.536348130889936"><ele>95.0</ele><time>2026-04-24T14:18:05Z</time></trkpt><trkpt lat="43.784916143415906" lon="7.536457603637288"><ele>95.0</ele><time>2026-04-24T14:18:06Z</time></trkpt><trkpt lat="43.784921541913434" lon="7.5365697856929055"><ele>95.0</ele><time>2026-04-24T14:18:07Z</time></trkpt><trkpt lat="43.78492578182088" lon="7.536683765787359"><ele>95.0</ele><time>2026-04-24T14:18:08Z</time></trkpt><trkpt lat="43.784930382613176" lon="7.536792469739375"><ele>95.0</ele><time>2026-04-24T14:18:09Z</time></trkpt><trkpt lat="43.78494292585469" lon="7.536899504049194"><ele>95.0</ele><time>2026-04-24T14:18:10Z</time></trkpt><trkpt lat="43.7849641340712" lon="7.537003051266518"><ele>93.6</ele><time>2026-04-24T14:18:11Z</time></trkpt><trkpt lat="43.78500718107003" lon="7.537094559041868"><ele>92.2</ele><time>2026-04-24T14:18:12Z</time></trkpt><trkpt lat="43.785071784528945" lon="7.537176527499998"><ele>90.80000000000001</ele><time>2026-04-24T14:18:13Z</time></trkpt><trkpt lat="43.785151122212206" lon="7.537252609440636"><ele>89.4</ele><time>2026-04-24T14:18:14Z</time></trkpt><trkpt lat="43.78523176541691" lon="7.537333107836096"><ele>88.0</ele><time>2026-04-24T14:18:15Z</time></trkpt><trkpt lat="43.78530983149146" lon="7.537426655901817"><ele>93.0</ele><time>2026-04-24T14:18:16Z</time></trkpt><trkpt lat="43.78537456347865" lon="7.537544207696503"><ele>98.0</ele><time>2026-04-24T14:18:17Z</time></trkpt><trkpt lat="43.78543581743132" lon="7.537671337044746"><ele>103.00000000000001</ele><time>2026-04-24T14:18:18Z</time></trkpt><trkpt lat="43.78549823947456" lon="7.537795583893779"><ele>108.0</ele><time>2026-04-24T14:18:19Z</time></trkpt><trkpt lat="43.78555487318901" lon="7.537914213506238"><ele>113.0</ele><time>2026-04-24T14:18:20Z</time></trkpt><trkpt lat="43.78560303763741" lon="7.538032180827264"><ele>113.0</ele><time>2026-04-24T14:18:21Z</time></trkpt><trkpt lat="43.78564375490446" lon="7.538149927044136"><ele>113.00000000000001</ele><time>2026-04-24T14:18:22Z</time></trkpt><trkpt lat="43.78568568820778" lon="7.538262205196917"><ele>113.00000000000001</ele><time>2026-04-24T14:18:23Z</time></trkpt><trkpt lat="43.78573204468526" lon="7.5383783015196375"><ele>113.0</ele><time>2026-04-24T14:18:24Z</time></trkpt><trkpt lat="43.785787378833504" lon="7.538492404146103"><ele>113.0</ele><time>2026-04-24T14:18:25Z</time></trkpt><trkpt lat="43.78585455929157" lon="7.53860281497218"><ele>113.0</ele><time>2026-04-24T14:18:26Z</time></trkpt><trkpt lat="43.785924910834154" lon="7.538716364013921"><ele>113.00000000000001</ele><time>2026-04-24T14:18:27Z</time></trkpt><trkpt lat="43.785989555213504" lon="7.538833413794626"><ele>113.00000000000001</ele><time>2026-04-24T14:18:28Z</time></trkpt><trkpt lat="43.78604565244226" lon="7.53894485330466"><ele>113.0</ele><time>2026-04-24T14:18:29Z</time></trkpt><trkpt lat="43.7860945681267" lon="7.539056107060026"><ele>113.0</ele><time>2026-04-24T14:18:30Z</time></trkpt><trkpt lat="43.786135755040604" lon="7.5391774653305434"><ele>115.2</ele><time>2026-04-24T14:18:31Z</time></trkpt><trkpt lat="43.78618006621056" lon="7.539302103383001"><ele>117.4</ele><time>2026-04-24T14:18:32Z</time></trkpt><trkpt lat="43.786223530354654" lon="7.53943020909311"><ele>119.60000000000001</ele><time>2026-04-24T14:18:33Z</time></trkpt><trkpt lat="43.78627616534344" lon="7.539548465257686"><ele>121.80000000000001</ele><time>2026-04-24T14:18:34Z</time></trkpt><trkpt lat="43.786326182494754" lon="7.53965939544011"><ele>124.0</ele><time>2026-04-24T14:18:35Z</time></trkpt><trkpt lat="43.78637840654265" lon="7.539760085028046"><ele>124.00000000000001</ele><time>2026-04-24T14:18:36Z</time></trkpt><trkpt lat="43.786434081775454" lon="7.539852432820959"><ele>124.0</ele><time>2026-04-24T14:18:37Z</time></trkpt><trkpt lat="43.7864898460563" lon="7.539936522880772"><ele>124.0</ele><time>2026-04-24T14:18:38Z</time></trkpt><trkpt lat="43.786545467493326" lon="7.5400214709777496"><ele>124.0</ele><time>2026-04-24T14:18:39Z</time></trkpt><trkpt lat="43.786599538322754" lon="7.54010226538584"><ele>124.00000000000001</ele><time>2026-04-24T14:18:40Z</time></trkpt><trkpt lat="43.78665556291973" lon="7.540186892553088"><ele>124.0</ele><time>2026-04-24T14:18:41Z</time></trkpt><trkpt lat="43.78670863780975" lon="7.540278729000499"><ele>122.50000000000001</ele><time>2026-04-24T14:18:42Z</time></trkpt><trkpt lat="43.786744968595634" lon="7.540386471901512"><ele>121.0</ele><time>2026-04-24T14:18:43Z</time></trkpt><trkpt lat="43.78675267709449" lon="7.540507065519626"><ele>119.5</ele><time>2026-04-24T14:18:44Z</time></trkpt><trkpt lat="43.786714773094786" lon="7.540622560446512"><ele>118.0</ele><time>2026-04-24T14:18:45Z</time></trkpt><trkpt lat="43.7866877944719" lon="7.5407390009008886"><ele>116.50000000000001</ele><time>2026-04-24T14:18:46Z</time></trkpt><trkpt lat="43.78664856439208" lon="7.54085913056353"><ele>115.0</ele><time>2026-04-24T14:18:47Z</time></trkpt><trkpt lat="43.78663794591335" lon="7.5409845101695545"><ele>115.0</ele><time>2026-04-24T14:18:48Z</time></trkpt><trkpt lat="43.78664100441503" lon="7.541109830569966"><ele>115.0</ele><time>2026-04-24T14:18:49Z</time></trkpt><trkpt lat="43.78664970866963" lon="7.541238370998802"><ele>115.0</ele><time>2026-04-24T14:18:50Z</time></trkpt><trkpt lat="43.78665095790342" lon="7.541369734634584"><ele>115.0</ele><time>2026-04-24T14:18:51Z</time></trkpt><trkpt lat="43.786641366833855" lon="7.541506546160803"><ele>115.0</ele><time>2026-04-24T14:18:52Z</time></trkpt><trkpt lat="43.78663583877794" lon="7.541648019531708"><ele>116.8</ele><time>2026-04-24T14:18:53Z</time></trkpt><trkpt lat="43.78663010729643" lon="7.541790463951937"><ele>118.6</ele><time>2026-04-24T14:18:54Z</time></trkpt><trkpt lat="43.786625771393126" lon="7.541926506248885"><ele>120.4</ele><time>2026-04-24T14:18:55Z</time></trkpt><trkpt lat="43.78662187055734" lon="7.542052812663155"><ele>122.2</ele><time>2026-04-24T14:18:56Z</time></trkpt><trkpt lat="43.78661886221899" lon="7.542173308613304"><ele>124.0</ele><time>2026-04-24T14:18:57Z</time></trkpt><trkpt lat="43.78661543400537" lon="7.5422906798499"><ele>125.4</ele><time>2026-04-24T14:18:58Z</time></trkpt><trkpt lat="43.78661040519135" lon="7.542412315221848"><ele>126.80000000000001</ele><time>2026-04-24T14:18:59Z</time></trkpt><trkpt lat="43.78660500910797" lon="7.54253999612452"><ele>128.2</ele><time>2026-04-24T14:19:00Z</time></trkpt><trkpt lat="43.78659827279652" lon="7.542675803180385"><ele>129.6</ele><time>2026-04-24T14:19:01Z</time></trkpt><trkpt lat="43.78658891247963" lon="7.542810250120598"><ele>131.0</ele><time>2026-04-24T14:19:02Z</time></trkpt><trkpt lat="43.78657871773258" lon="7.5429428463822354"><ele>132.2</ele><time>2026-04-24T14:19:03Z</time></trkpt><trkpt lat="43.78656679442726" lon="7.5430712614482145"><ele>133.39999999999998</ele><time>2026-04-24T14:19:04Z</time></trkpt><trkpt lat="43.78655372297982" lon="7.543202602371744"><ele>134.6</ele><time>2026-04-24T14:19:05Z</time></trkpt><trkpt lat="43.78653874915262" lon="7.543318447219202"><ele>135.79999999999998</ele><time>2026-04-24T14:19:06Z</time></trkpt><trkpt lat="43.78651223983852" lon="7.543438736256285"><ele>137.0</ele><time>2026-04-24T14:19:07Z</time></trkpt><trkpt lat="43.786477106476" lon="7.543572005604136"><ele>140.25</ele><time>2026-04-24T14:19:08Z</time></trkpt><trkpt lat="43.786437599048604" lon="7.5437150932178945"><ele>143.5</ele><time>2026-04-24T14:19:09Z</time></trkpt><trkpt lat="43.786392774709185" lon="7.5438720471870155"><ele>146.75</ele><time>2026-04-24T14:19:10Z</time></trkpt><trkpt lat="43.78634736862983" lon="7.54402872219275"><ele>150.0</ele><time>2026-04-24T14:19:11Z</time></trkpt><trkpt lat="43.78629809928547" lon="7.544198521979326"><ele>150.0</ele><time>2026-04-24T14:19:12Z</time></trkpt><trkpt lat="43.786249237755015" lon="7.544363354672524"><ele>150.0</ele><time>2026-04-24T14:19:13Z</time></trkpt><trkpt lat="43.786204763502006" lon="7.544500324873569"><ele>150.0</ele><time>2026-04-24T14:19:14Z</time></trkpt><trkpt lat="43.78617773172392" lon="7.544627104866684"><ele>150.0</ele><time>2026-04-24T14:19:15Z</time></trkpt><trkpt lat="43.78613750431243" lon="7.54473454310579"><ele>150.0</ele><time>2026-04-24T14:19:16Z</time></trkpt><trkpt lat="43.78609669937436" lon="7.544849603406576"><ele>149.6</ele><time>2026-04-24T14:19:17Z</time></trkpt><trkpt lat="43.78604850338572" lon="7.544974222751134"><ele>149.2</ele><time>2026-04-24T14:19:18Z</time></trkpt><trkpt lat="43.78599898477417" lon="7.545100241614701"><ele>148.8</ele><time>2026-04-24T14:19:19Z</time></trkpt><trkpt lat="43.7859480976461" lon="7.545231652462254"><ele>148.4</ele><time>2026-04-24T14:19:20Z</time></trkpt><trkpt lat="43.785894269340986" lon="7.545367908367488"><ele>148.0</ele><time>2026-04-24T14:19:21Z</time></trkpt><trkpt lat="43.785842062311644" lon="7.545510543611819"><ele>148.0</ele><time>2026-04-24T14:19:22Z</time></trkpt><trkpt lat="43.78578972967328" lon="7.5456640233501915"><ele>148.0</ele><time>2026-04-24T14:19:23Z</time></trkpt><trkpt lat="43.78573392001652" lon="7.545814703385423"><ele>148.0</ele><time>2026-04-24T14:19:24Z</time></trkpt><trkpt lat="43.785667952650996" lon="7.545971154107081"><ele>148.0</ele><time>2026-04-24T14:19:25Z</time></trkpt><trkpt lat="43.78560622526472" lon="7.546131016017757"><ele>153.0</ele><time>2026-04-24T14:19:26Z</time></trkpt><trkpt lat="43.785542354344315" lon="7.546304628843386"><ele>158.0</ele><time>2026-04-24T14:19:27Z</time></trkpt><trkpt lat="43.78548970410595" lon="7.546451579922224"><ele>163.0</ele><time>2026-04-24T14:19:28Z</time></trkpt><trkpt lat="43.785430710768765" lon="7.546596432300767"><ele>168.0</ele><time>2026-04-24T14:19:29Z</time></trkpt><trkpt lat="43.7853695520758" lon="7.546756300704219"><ele>168.0</ele><time>2026-04-24T14:19:30Z</time></trkpt><trkpt lat="43.78530451580473" lon="7.54692771007642"><ele>168.0</ele><time>2026-04-24T14:19:31Z</time></trkpt><trkpt lat="43.7852424683559" lon="7.547103050416017"><ele>168.0</ele><time>2026-04-24T14:19:32Z</time></trkpt><trkpt lat="43.78516573408988" lon="7.5472588724029395"><ele>168.0</ele><time>2026-04-24T14:19:33Z</time></trkpt><trkpt lat="43.78510553801286" lon="7.5474163351182915"><ele>166.25</ele><time>2026-04-24T14:19:34Z</time></trkpt><trkpt lat="43.7850475102486" lon="7.547569076056842"><ele>164.5</ele><time>2026-04-24T14:19:35Z</time></trkpt><trkpt lat="43.785003361032224" lon="7.547710648236094"><ele>162.75</ele><time>2026-04-24T14:19:36Z</time></trkpt><trkpt lat="43.78494876026827" lon="7.547846897520923"><ele>161.0</ele><time>2026-04-24T14:19:37Z</time></trkpt><trkpt lat="43.78489127331534" lon="7.547993183171876"><ele>161.0</ele><time>2026-04-24T14:19:38Z</time></trkpt><trkpt lat="43.784833587601746" lon="7.548139376784694"><ele>161.0</ele><time>2026-04-24T14:19:39Z</time></trkpt><trkpt lat="43.784777305554" lon="7.548284236667396"><ele>161.0</ele><time>2026-04-24T14:19:40Z</time></trkpt><trkpt lat="43.78471981287939" lon="7.548431458061206"><ele>161.0</ele><time>2026-04-24T14:19:41Z</time></trkpt><trkpt lat="43.784666438658626" lon="7.548577536909542"><ele>165.0</ele><time>2026-04-24T14:19:42Z</time></trkpt><trkpt lat="43.78460427015968" lon="7.548730248799636"><ele>169.0</ele><time>2026-04-24T14:19:43Z</time></trkpt><trkpt lat="43.78454473409651" lon="7.548895881184801"><ele>173.0</ele><time>2026-04-24T14:19:44Z</time></trkpt><trkpt lat="43.78448819486814" lon="7.549047986210287"><ele>177.0</ele><time>2026-04-24T14:19:45Z</time></trkpt><trkpt lat="43.784442394240166" lon="7.549179835032793"><ele>177.0</ele><time>2026-04-24T14:19:46Z</time></trkpt><trkpt lat="43.78439732451209" lon="7.54930062598376"><ele>177.0</ele><time>2026-04-24T14:19:47Z</time></trkpt><trkpt lat="43.78436146571475" lon="7.549425841389966"><ele>177.0</ele><time>2026-04-24T14:19:48Z</time></trkpt><trkpt lat="43.784326811928885" lon="7.549559309874611"><ele>177.0</ele><time>2026-04-24T14:19:49Z</time></trkpt><trkpt lat="43.784299601715226" lon="7.549700507056005"><ele>177.0</ele><time>2026-04-24T14:19:50Z</time></trkpt><trkpt lat="43.78426741863827" lon="7.549854302762903"><ele>171.0</ele><time>2026-04-24T14:19:51Z</time></trkpt><trkpt lat="43.78423958063455" lon="7.550017160449663"><ele>165.0</ele><time>2026-04-24T14:19:52Z</time></trkpt><trkpt lat="43.784222186131046" lon="7.550175274091999"><ele>159.0</ele><time>2026-04-24T14:19:53Z</time></trkpt><trkpt lat="43.784208660181086" lon="7.550322434864719"><ele>153.0</ele><time>2026-04-24T14:19:54Z</time></trkpt><trkpt lat="43.7842024921769" lon="7.550458611151883"><ele>147.0</ele><time>2026-04-24T14:19:55Z</time></trkpt><trkpt lat="43.78421210518936" lon="7.550582088926802"><ele>145.83333333333334</ele><time>2026-04-24T14:19:56Z</time></trkpt><trkpt lat="43.78424171502363" lon="7.550694379387232"><ele>144.66666666666666</ele><time>2026-04-24T14:19:57Z</time></trkpt><trkpt lat="43.784296230097524" lon="7.550784204692062"><ele>143.5</ele><time>2026-04-24T14:19:58Z</time></trkpt><trkpt lat="43.784357279398" lon="7.550847484334784"><ele>142.33333333333331</ele><time>2026-04-24T14:19:59Z</time></trkpt><trkpt lat="43.78442866564048" lon="7.550868751954496"><ele>141.16666666666666</ele><time>2026-04-24T14:20:00Z</time></trkpt><trkpt lat="43.78449922231913" lon="7.5508483870329"><ele>140.0</ele><time>2026-04-24T14:20:01Z</time></trkpt><trkpt lat="43.784564355898766" lon="7.550794084949769"><ele>139.0</ele><time>2026-04-24T14:20:02Z</time></trkpt><trkpt lat="43.78462563984711" lon="7.550712365482723"><ele>138.0</ele><time>2026-04-24T14:20:03Z</time></trkpt><trkpt lat="43.78468938968133" lon="7.550613110779199"><ele>137.0</ele><time>2026-04-24T14:20:04Z</time></trkpt><trkpt lat="43.78476921489439" lon="7.550503418969296"><ele>136.0</ele><time>2026-04-24T14:20:05Z</time></trkpt><trkpt lat="43.784848985814016" lon="7.550380578507536"><ele>135.0</ele><time>2026-04-24T14:20:06Z</time></trkpt><trkpt lat="43.78493136104505" lon="7.550237390863482"><ele>134.5</ele><time>2026-04-24T14:20:07Z</time></trkpt><trkpt lat="43.78501438206512" lon="7.550096546410352"><ele>134.0</ele><time>2026-04-24T14:20:08Z</time></trkpt><trkpt lat="43.78510106537151" lon="7.549966252761866"><ele>133.5</ele><time>2026-04-24T14:20:09Z</time></trkpt><trkpt lat="43.7851862690608" lon="7.549842034763346"><ele>133.0</ele><time>2026-04-24T14:20:10Z</time></trkpt><trkpt lat="43.78527128600554" lon="7.549719901189857"><ele>133.0</ele><time>2026-04-24T14:20:11Z</time></trkpt><trkpt lat="43.78536011597435" lon="7.5496040190326665"><ele>133.0</ele><time>2026-04-24T14:20:12Z</time></trkpt><trkpt lat="43.78545449224923" lon="7.549500151780544"><ele>133.0</ele><time>2026-04-24T14:20:13Z</time></trkpt><trkpt lat="43.785551508122296" lon="7.549405362664605"><ele>133.0</ele><time>2026-04-24T14:20:14Z</time></trkpt><trkpt lat="43.78564475368333" lon="7.549310168615132"><ele>134.20000000000002</ele><time>2026-04-24T14:20:15Z</time></trkpt><trkpt lat="43.78573851619824" lon="7.549220114076878"><ele>135.4</ele><time>2026-04-24T14:20:16Z</time></trkpt><trkpt lat="43.78582673620792" lon="7.549135354489216"><ele>136.60000000000002</ele><time>2026-04-24T14:20:17Z</time></trkpt><trkpt lat="43.78591024450561" lon="7.5490519703669605"><ele>137.8</ele><time>2026-04-24T14:20:18Z</time></trkpt><trkpt lat="43.785991137888246" lon="7.548959775717363"><ele>139.0</ele><time>2026-04-24T14:20:19Z</time></trkpt><trkpt lat="43.78606827837625" lon="7.548862317974873"><ele>139.0</ele><time>2026-04-24T14:20:20Z</time></trkpt><trkpt lat="43.78614466946636" lon="7.548757754744785"><ele>139.0</ele><time>2026-04-24T14:20:21Z</time></trkpt><trkpt lat="43.78621867325117" lon="7.548652655432938"><ele>139.0</ele><time>2026-04-24T14:20:22Z</time></trkpt><trkpt lat="43.78630442295645" lon="7.54857158311113"><ele>139.0</ele><time>2026-04-24T14:20:23Z</time></trkpt><trkpt lat="43.78637447184259" lon="7.54848059545902"><ele>139.0</ele><time>2026-04-24T14:20:24Z</time></trkpt><trkpt lat="43.78644406387321" lon="7.548393080327581"><ele>140.33333333333334</ele><time>2026-04-24T14:20:25Z</time></trkpt><trkpt lat="43.786510801940985" lon="7.548308965469474"><ele>141.66666666666669</ele><time>2026-04-24T14:20:26Z</time></trkpt><trkpt lat="43.78656411051014" lon="7.548221908598506"><ele>143.0</ele><time>2026-04-24T14:20:27Z</time></trkpt><trkpt lat="43.7866423712477" lon="7.548192541112"><ele>144.33333333333334</ele><time>2026-04-24T14:20:28Z</time></trkpt><trkpt lat="43.786725888614534" lon="7.5482075108395765"><ele>145.66666666666666</ele><time>2026-04-24T14:20:29Z</time></trkpt><trkpt lat="43.786802001130056" lon="7.548270648798842"><ele>147.0</ele><time>2026-04-24T14:20:30Z</time></trkpt><trkpt lat="43.78686012058913" lon="7.548369618206114"><ele>148.0</ele><time>2026-04-24T14:20:31Z</time></trkpt><trkpt lat="43.78689925129847" lon="7.548493234956321"><ele>149.0</ele><time>2026-04-24T14:20:32Z</time></trkpt><trkpt lat="43.78692297394752" lon="7.548630268997149"><ele>150.0</ele><time>2026-04-24T14:20:33Z</time></trkpt><trkpt lat="43.78691507837776" lon="7.548775428046452"><ele>151.0</ele><time>2026-04-24T14:20:34Z</time></trkpt><trkpt lat="43.78685794109778" lon="7.548913631884219"><ele>152.0</ele><time>2026-04-24T14:20:35Z</time></trkpt><trkpt lat="43.78679209534977" lon="7.5490629837121475"><ele>152.25</ele><time>2026-04-24T14:20:36Z</time></trkpt><trkpt lat="43.78672857686526" lon="7.549235087289513"><ele>152.5</ele><time>2026-04-24T14:20:37Z</time></trkpt><trkpt lat="43.786635014358005" lon="7.549413893765626"><ele>152.75</ele><time>2026-04-24T14:20:38Z</time></trkpt><trkpt lat="43.786542394209334" lon="7.549571278686141"><ele>153.0</ele><time>2026-04-24T14:20:39Z</time></trkpt><trkpt lat="43.78645300353978" lon="7.549714961958824"><ele>153.0</ele><time>2026-04-24T14:20:40Z</time></trkpt><trkpt lat="43.78636904163947" lon="7.549856506999127"><ele>153.0</ele><time>2026-04-24T14:20:41Z</time></trkpt><trkpt lat="43.78628229113974" lon="7.549991361352976"><ele>153.0</ele><time>2026-04-24T14:20:42Z</time></trkpt><trkpt lat="43.78619723059139" lon="7.550124292713029"><ele>153.0</ele><time>2026-04-24T14:20:43Z</time></trkpt><trkpt lat="43.786113357691896" lon="7.550255879069193"><ele>157.75</ele><time>2026-04-24T14:20:44Z</time></trkpt><trkpt lat="43.786035502038665" lon="7.550385512906053"><ele>162.5</ele><time>2026-04-24T14:20:45Z</time></trkpt><trkpt lat="43.78595893030049" lon="7.550508614334454"><ele>167.25</ele><time>2026-04-24T14:20:46Z</time></trkpt><trkpt lat="43.785881497796154" lon="7.550626738821243"><ele>172.0</ele><time>2026-04-24T14:20:47Z</time></trkpt><trkpt lat="43.785803575331954" lon="7.550744115899788"><ele>165.6</ele><time>2026-04-24T14:20:48Z</time></trkpt><trkpt lat="43.785724711541405" lon="7.550855623172679"><ele>159.2</ele><time>2026-04-24T14:20:49Z</time></trkpt><trkpt lat="43.785643685687994" lon="7.550960411002336"><ele>152.8</ele><time>2026-04-24T14:20:50Z</time></trkpt><trkpt lat="43.78556102279043" lon="7.551065079138194"><ele>146.4</ele><time>2026-04-24T14:20:51Z</time></trkpt><trkpt lat="43.78548576685255" lon="7.551174725144364"><ele>140.0</ele><time>2026-04-24T14:20:52Z</time></trkpt><trkpt lat="43.785416000437685" lon="7.551288571912111"><ele>140.0</ele><time>2026-04-24T14:20:53Z</time></trkpt><trkpt lat="43.78536679513055" lon="7.551418231014684"><ele>140.0</ele><time>2026-04-24T14:20:54Z</time></trkpt><trkpt lat="43.78532742552257" lon="7.55156487432606"><ele>140.0</ele><time>2026-04-24T14:20:55Z</time></trkpt><trkpt lat="43.78528816087028" lon="7.551726756333886"><ele>140.0</ele><time>2026-04-24T14:20:56Z</time></trkpt><trkpt lat="43.785247799905775" lon="7.5518827324615785"><ele>140.0</ele><time>2026-04-24T14:20:57Z</time></trkpt><trkpt lat="43.78520653004627" lon="7.552030707876319"><ele>140.0</ele><time>2026-04-24T14:20:58Z</time></trkpt><trkpt lat="43.78517309631351" lon="7.552176005633387"><ele>140.0</ele><time>2026-04-24T14:20:59Z</time></trkpt><trkpt lat="43.78515589922614" lon="7.552325289376038"><ele>140.0</ele><time>2026-04-24T14:21:00Z</time></trkpt><trkpt lat="43.785156135541136" lon="7.552473820962647"><ele>140.0</ele><time>2026-04-24T14:21:01Z</time></trkpt><trkpt lat="43.78516646062273" lon="7.552619994945475"><ele>139.8</ele><time>2026-04-24T14:21:02Z</time></trkpt><trkpt lat="43.78518246442489" lon="7.552760259742063"><ele>139.6</ele><time>2026-04-24T14:21:03Z</time></trkpt><trkpt lat="43.78520150298918" lon="7.552900211029008"><ele>139.4</ele><time>2026-04-24T14:21:04Z</time></trkpt><trkpt lat="43.78521332314249" lon="7.5530492194270265"><ele>139.2</ele><time>2026-04-24T14:21:05Z</time></trkpt><trkpt lat="43.78521749528736" lon="7.5532019641185855"><ele>139.0</ele><time>2026-04-24T14:21:06Z</time></trkpt><trkpt lat="43.785227552350634" lon="7.553356591115941"><ele>139.0</ele><time>2026-04-24T14:21:07Z</time></trkpt><trkpt lat="43.78521069988047" lon="7.553501697719901"><ele>139.0</ele><time>2026-04-24T14:21:08Z</time></trkpt><trkpt lat="43.785192408331355" lon="7.5536368442344894"><ele>139.0</ele><time>2026-04-24T14:21:09Z</time></trkpt><trkpt lat="43.785153678104386" lon="7.553763112673227"><ele>139.0</ele><time>2026-04-24T14:21:10Z</time></trkpt><trkpt lat="43.78509683019374" lon="7.553877225843329"><ele>139.0</ele><time>2026-04-24T14:21:11Z</time></trkpt><trkpt lat="43.78503255162262" lon="7.553983696504749"><ele>133.6</ele><time>2026-04-24T14:21:12Z</time></trkpt><trkpt lat="43.78497743243312" lon="7.554096904900627"><ele>128.2</ele><time>2026-04-24T14:21:13Z</time></trkpt><trkpt lat="43.784894112188205" lon="7.554167209694018"><ele>122.79999999999998</ele><time>2026-04-24T14:21:14Z</time></trkpt><trkpt lat="43.7848295116226" lon="7.554265138846908"><ele>117.39999999999999</ele><time>2026-04-24T14:21:15Z</time></trkpt><trkpt lat="43.78476182876456" lon="7.554352754226767"><ele>112.0</ele><time>2026-04-24T14:21:16Z</time></trkpt><trkpt lat="43.784712026205426" lon="7.554459470511878"><ele>110.83333333333334</ele><time>2026-04-24T14:21:17Z</time></trkpt><trkpt lat="43.78468108247868" lon="7.5545753770697806"><ele>109.66666666666667</ele><time>2026-04-24T14:21:18Z</time></trkpt><trkpt lat="43.78466994164588" lon="7.554696626374273"><ele>108.5</ele><time>2026-04-24T14:21:19Z</time></trkpt><trkpt lat="43.78467523782288" lon="7.554811181603086"><ele>107.33333333333334</ele><time>2026-04-24T14:21:20Z</time></trkpt><trkpt lat="43.78469300754684" lon="7.554919660478549"><ele>106.16666666666667</ele><time>2026-04-24T14:21:21Z</time></trkpt><trkpt lat="43.78473055429888" lon="7.555010735844072"><ele>105.0</ele><time>2026-04-24T14:21:22Z</time></trkpt><trkpt lat="43.78478958190976" lon="7.555068552976626"><ele>105.0</ele><time>2026-04-24T14:21:23Z</time></trkpt><trkpt lat="43.78486306323324" lon="7.555089156865852"><ele>105.0</ele><time>2026-04-24T14:21:24Z</time></trkpt><trkpt lat="43.78494857776207" lon="7.555093184939948"><ele>105.0</ele><time>2026-04-24T14:21:25Z</time></trkpt><trkpt lat="43.78503295994673" lon="7.555097325526907"><ele>105.0</ele><time>2026-04-24T14:21:26Z</time></trkpt><trkpt lat="43.78512412845525" lon="7.555112406599321"><ele>105.0</ele><time>2026-04-24T14:21:27Z</time></trkpt><trkpt lat="43.78521630063259" lon="7.555138909570226"><ele>105.0</ele><time>2026-04-24T14:21:28Z</time></trkpt><trkpt lat="43.785310429951856" lon="7.555173981488795"><ele>108.0</ele><time>2026-04-24T14:21:29Z</time></trkpt><trkpt lat="43.78539808447851" lon="7.555222001674813"><ele>111.0</ele><time>2026-04-24T14:21:30Z</time></trkpt><trkpt lat="43.78548387799619" lon="7.555273896763081"><ele>114.0</ele><time>2026-04-24T14:21:31Z</time></trkpt><trkpt lat="43.78556456351894" lon="7.555323278857781"><ele>117.0</ele><time>2026-04-24T14:21:32Z</time></trkpt><trkpt lat="43.78564357996209" lon="7.555374504905952"><ele>120.0</ele><time>2026-04-24T14:21:33Z</time></trkpt><trkpt lat="43.78571949102722" lon="7.555426513268151"><ele>123.0</ele><time>2026-04-24T14:21:34Z</time></trkpt><trkpt lat="43.78579796242512" lon="7.555487671264089"><ele>118.4</ele><time>2026-04-24T14:21:35Z</time></trkpt><trkpt lat="43.78587380465379" lon="7.555565926939572"><ele>113.80000000000001</ele><time>2026-04-24T14:21:36Z</time></trkpt><trkpt lat="43.78594248051483" lon="7.5556544577471385"><ele>109.2</ele><time>2026-04-24T14:21:37.001Z</time></trkpt><trkpt lat="43.78600542139262" lon="7.555744706889089"><ele>104.6</ele><time>2026-04-24T14:21:38.001Z</time></trkpt><trkpt lat="43.78606650729843" lon="7.555836148826038"><ele>100.0</ele><time>2026-04-24T14:21:39.001Z</time></trkpt><trkpt lat="43.78612497283637" lon="7.555927325551339"><ele>100.0</ele><time>2026-04-24T14:21:40.001Z</time></trkpt><trkpt lat="43.786192020504636" lon="7.556005354448635"><ele>100.0</ele><time>2026-04-24T14:21:41.001Z</time></trkpt><trkpt lat="43.786279721847315" lon="7.556055456091848"><ele>100.0</ele><time>2026-04-24T14:21:42.001Z</time></trkpt><trkpt lat="43.78638053807103" lon="7.556065990473981"><ele>100.0</ele><time>2026-04-24T14:21:43.001Z</time></trkpt><trkpt lat="43.78648650070573" lon="7.5560276268700495"><ele>100.0</ele><time>2026-04-24T14:21:44.001Z</time></trkpt><trkpt lat="43.78659417015294" lon="7.555972123407667"><ele>100.0</ele><time>2026-04-24T14:21:45.001Z</time></trkpt><trkpt lat="43.78669433192085" lon="7.5559196942839595"><ele>100.0</ele><time>2026-04-24T14:21:46.001Z</time></trkpt><trkpt lat="43.78679353934139" lon="7.555875552990637"><ele>100.0</ele><time>2026-04-24T14:21:47.001Z</time></trkpt><trkpt lat="43.78688775850299" lon="7.555837417185225"><ele>100.0</ele><time>2026-04-24T14:21:48.001Z</time></trkpt><trkpt lat="43.78697487942525" lon="7.555836423054926"><ele>100.0</ele><time>2026-04-24T14:21:49.001Z</time></trkpt><trkpt lat="43.78704769448121" lon="7.555822764708312"><ele>100.16666666666667</ele><time>2026-04-24T14:21:50.001Z</time></trkpt><trkpt lat="43.78710665286342" lon="7.555885808085283"><ele>100.33333333333334</ele><time>2026-04-24T14:21:51.001Z</time></trkpt><trkpt lat="43.78714180984011" lon="7.555983155245062"><ele>100.5</ele><time>2026-04-24T14:21:52.001Z</time></trkpt><trkpt lat="43.78713848236881" lon="7.556084965538386"><ele>100.66666666666666</ele><time>2026-04-24T14:21:53Z</time></trkpt><trkpt lat="43.78711860143027" lon="7.5561875844275885"><ele>100.83333333333333</ele><time>2026-04-24T14:21:54Z</time></trkpt><trkpt lat="43.7870858339295" lon="7.556291238668105"><ele>101.0</ele><time>2026-04-24T14:21:55Z</time></trkpt><trkpt lat="43.78705749444112" lon="7.5563961077356385"><ele>101.0</ele><time>2026-04-24T14:21:56Z</time></trkpt><trkpt lat="43.78703935382152" lon="7.556498068809662"><ele>101.0</ele><time>2026-04-24T14:21:57Z</time></trkpt><trkpt lat="43.78703028380773" lon="7.556592969678483"><ele>101.0</ele><time>2026-04-24T14:21:58Z</time></trkpt><trkpt lat="43.78702767197162" lon="7.556696033213728"><ele>101.0</ele><time>2026-04-24T14:21:59Z</time></trkpt><trkpt lat="43.78702641725105" lon="7.556809504859267"><ele>101.0</ele><time>2026-04-24T14:22:00Z</time></trkpt><trkpt lat="43.78702698339377" lon="7.556914755168766"><ele>101.0</ele><time>2026-04-24T14:22:01Z</time></trkpt><trkpt lat="43.7870343505462" lon="7.557013522743259"><ele>101.0</ele><time>2026-04-24T14:22:02Z</time></trkpt><trkpt lat="43.7870523824404" lon="7.557103564081855"><ele>96.99999999999999</ele><time>2026-04-24T14:22:03Z</time></trkpt><trkpt lat="43.78708016859922" lon="7.557194614181622"><ele>93.0</ele><time>2026-04-24T14:22:04Z</time></trkpt><trkpt lat="43.78711614179621" lon="7.5572839245725545"><ele>89.0</ele><time>2026-04-24T14:22:05Z</time></trkpt><trkpt lat="43.7871778435086" lon="7.557364843569609"><ele>85.0</ele><time>2026-04-24T14:22:06Z</time></trkpt><trkpt lat="43.78726274970336" lon="7.557423861382441"><ele>81.0</ele><time>2026-04-24T14:22:07Z</time></trkpt><trkpt lat="43.78736828272408" lon="7.557455088356301"><ele>77.0</ele><time>2026-04-24T14:22:08Z</time></trkpt><trkpt lat="43.78749006075665" lon="7.557478941753245"><ele>77.0</ele><time>2026-04-24T14:22:09Z</time></trkpt><trkpt lat="43.787601445354994" lon="7.55749282036682"><ele>77.0</ele><time>2026-04-24T14:22:10Z</time></trkpt><trkpt lat="43.78770847716909" lon="7.557503179547218"><ele>77.0</ele><time>2026-04-24T14:22:11Z</time></trkpt><trkpt lat="43.78781187349189" lon="7.557518558896102"><ele>77.0</ele><time>2026-04-24T14:22:12Z</time></trkpt><trkpt lat="43.787911831856796" lon="7.557545826160383"><ele>77.0</ele><time>2026-04-24T14:22:13Z</time></trkpt><trkpt lat="43.78800913577991" lon="7.557591147423634"><ele>79.4</ele><time>2026-04-24T14:22:14Z</time></trkpt><trkpt lat="43.788104311883004" lon="7.557659391779794"><ele>81.80000000000001</ele><time>2026-04-24T14:22:15Z</time></trkpt><trkpt lat="43.78818924054979" lon="7.5577483976915545"><ele>84.2</ele><time>2026-04-24T14:22:16Z</time></trkpt><trkpt lat="43.78827521440547" lon="7.55784525649594"><ele>86.60000000000001</ele><time>2026-04-24T14:22:17Z</time></trkpt><trkpt lat="43.78835922136756" lon="7.557946452094529"><ele>89.0</ele><time>2026-04-24T14:22:18Z</time></trkpt><trkpt lat="43.78843987011075" lon="7.558054982529053"><ele>88.5</ele><time>2026-04-24T14:22:19Z</time></trkpt><trkpt lat="43.78853339688252" lon="7.558159999932012"><ele>88.0</ele><time>2026-04-24T14:22:20Z</time></trkpt><trkpt lat="43.78862417431621" lon="7.558263729326007"><ele>87.5</ele><time>2026-04-24T14:22:21Z</time></trkpt><trkpt lat="43.78871893840301" lon="7.5583685184564615"><ele>87.0</ele><time>2026-04-24T14:22:22Z</time></trkpt><trkpt lat="43.78881262080401" lon="7.558471224767554"><ele>87.0</ele><time>2026-04-24T14:22:23Z</time></trkpt><trkpt lat="43.78890680771108" lon="7.558576824413469"><ele>87.0</ele><time>2026-04-24T14:22:24Z</time></trkpt><trkpt lat="43.7889944209644" lon="7.558681843331527"><ele>87.0</ele><time>2026-04-24T14:22:25Z</time></trkpt><trkpt lat="43.789085915296646" lon="7.558775117804677"><ele>87.0</ele><time>2026-04-24T14:22:26Z</time></trkpt><trkpt lat="43.789167101689245" lon="7.558884318610239"><ele>84.0</ele><time>2026-04-24T14:22:27Z</time></trkpt><trkpt lat="43.78924443088792" lon="7.55897076265357"><ele>81.0</ele><time>2026-04-24T14:22:28Z</time></trkpt><trkpt lat="43.78933475422889" lon="7.559024917972695"><ele>78.0</ele><time>2026-04-24T14:22:29Z</time></trkpt><trkpt lat="43.7894237290244" lon="7.559044504997322"><ele>75.0</ele><time>2026-04-24T14:22:30Z</time></trkpt><trkpt lat="43.78951671606888" lon="7.559051376679443"><ele>72.0</ele><time>2026-04-24T14:22:31Z</time></trkpt><trkpt lat="43.789591041389315" lon="7.559073300506838"><ele>72.0</ele><time>2026-04-24T14:22:32Z</time></trkpt><trkpt lat="43.78965234205087" lon="7.559129764996076"><ele>72.0</ele><time>2026-04-24T14:22:33Z</time></trkpt><trkpt lat="43.78967504773963" lon="7.559233264844959"><ele>72.0</ele><time>2026-04-24T14:22:34Z</time></trkpt><trkpt lat="43.7896961270569" lon="7.559339778737099"><ele>72.0</ele><time>2026-04-24T14:22:35Z</time></trkpt><trkpt lat="43.78965184969096" lon="7.559453093084259"><ele>72.0</ele><time>2026-04-24T14:22:36Z</time></trkpt><trkpt lat="43.78966198374422" lon="7.5595553438528595"><ele>72.0</ele><time>2026-04-24T14:22:37Z</time></trkpt><trkpt lat="43.789655240474936" lon="7.55964382626403"><ele>68.0</ele><time>2026-04-24T14:22:38Z</time></trkpt><trkpt lat="43.78968129258169" lon="7.559732586186146"><ele>64.0</ele><time>2026-04-24T14:22:39Z</time></trkpt><trkpt lat="43.789727529608875" lon="7.5598271999453095"><ele>60.0</ele><time>2026-04-24T14:22:40Z</time></trkpt><trkpt lat="43.789792018539956" lon="7.559899232880263"><ele>56.0</ele><time>2026-04-24T14:22:41Z</time></trkpt><trkpt lat="43.78988487901811" lon="7.559913163206191"><ele>52.0</ele><time>2026-04-24T14:22:42Z</time></trkpt><trkpt lat="43.78997441821001" lon="7.5599182243488645"><ele>48.0</ele><time>2026-04-24T14:22:43Z</time></trkpt><trkpt lat="43.79007203483353" lon="7.55990133322965"><ele>48.0</ele><time>2026-04-24T14:22:44Z</time></trkpt><trkpt lat="43.79017206810918" lon="7.559873908076241"><ele>48.0</ele><time>2026-04-24T14:22:45Z</time></trkpt><trkpt lat="43.79027688064588" lon="7.559854535584655"><ele>48.0</ele><time>2026-04-24T14:22:46Z</time></trkpt><trkpt lat="43.790382803103064" lon="7.559852992383861"><ele>48.0</ele><time>2026-04-24T14:22:47Z</time></trkpt><trkpt lat="43.79048032011486" lon="7.559862444514537"><ele>48.0</ele><time>2026-04-24T14:22:48Z</time></trkpt><trkpt lat="43.790573819524916" lon="7.559903643626824"><ele>45.8</ele><time>2026-04-24T14:22:49Z</time></trkpt><trkpt lat="43.7906578988552" lon="7.559971273525904"><ele>43.599999999999994</ele><time>2026-04-24T14:22:50Z</time></trkpt><trkpt lat="43.79072544960881" lon="7.5600648362461795"><ele>41.400000000000006</ele><time>2026-04-24T14:22:51Z</time></trkpt><trkpt lat="43.790776425207966" lon="7.560171416832211"><ele>39.2</ele><time>2026-04-24T14:22:52Z</time></trkpt><trkpt lat="43.790819831429225" lon="7.560279688351917"><ele>37.0</ele><time>2026-04-24T14:22:53Z</time></trkpt><trkpt lat="43.79086682473725" lon="7.560388892254418"><ele>37.0</ele><time>2026-04-24T14:22:54Z</time></trkpt><trkpt lat="43.790915961590905" lon="7.560499661827426"><ele>37.0</ele><time>2026-04-24T14:22:55Z</time></trkpt><trkpt lat="43.79095830131443" lon="7.560614970294569"><ele>37.0</ele><time>2026-04-24T14:22:56Z</time></trkpt><trkpt lat="43.79099181906385" lon="7.560731471532285"><ele>37.0</ele><time>2026-04-24T14:22:57Z</time></trkpt><trkpt lat="43.79102184824966" lon="7.560844506435695"><ele>37.0</ele><time>2026-04-24T14:22:58.001Z</time></trkpt><trkpt lat="43.79106022750421" lon="7.560948988581524"><ele>37.0</ele><time>2026-04-24T14:22:59.001Z</time></trkpt><trkpt lat="43.79111241183125" lon="7.561045477456921"><ele>35.800000000000004</ele><time>2026-04-24T14:23:00.001Z</time></trkpt><trkpt lat="43.791180065535116" lon="7.561129055484065"><ele>34.6</ele><time>2026-04-24T14:23:01.001Z</time></trkpt><trkpt lat="43.79126019438669" lon="7.5612037641099965"><ele>33.400000000000006</ele><time>2026-04-24T14:23:02.001Z</time></trkpt><trkpt lat="43.791347394608515" lon="7.56126523913194"><ele>32.2</ele><time>2026-04-24T14:23:03.001Z</time></trkpt><trkpt lat="43.791441092722685" lon="7.56132064225548"><ele>31.0</ele><time>2026-04-24T14:23:04.001Z</time></trkpt><trkpt lat="43.791536612005196" lon="7.561370971568306"><ele>31.0</ele><time>2026-04-24T14:23:05.001Z</time></trkpt><trkpt lat="43.79163704991359" lon="7.561421186174113"><ele>31.0</ele><time>2026-04-24T14:23:06.001Z</time></trkpt><trkpt lat="43.791740165835606" lon="7.56146895022269"><ele>31.0</ele><time>2026-04-24T14:23:07.001Z</time></trkpt><trkpt lat="43.79183868195327" lon="7.561511841258206"><ele>31.0</ele><time>2026-04-24T14:23:08.001Z</time></trkpt><trkpt lat="43.7919314464802" lon="7.561559689143689"><ele>31.0</ele><time>2026-04-24T14:23:09.001Z</time></trkpt><trkpt lat="43.79202647827677" lon="7.561601779238141"><ele>32.66666666666667</ele><time>2026-04-24T14:23:10.001Z</time></trkpt><trkpt lat="43.79211537605934" lon="7.561648554593404"><ele>34.333333333333336</ele><time>2026-04-24T14:23:11.001Z</time></trkpt><trkpt lat="43.79219803825444" lon="7.561688532499242"><ele>36.0</ele><time>2026-04-24T14:23:12.001Z</time></trkpt><trkpt lat="43.79228022300225" lon="7.561727734080707"><ele>37.666666666666664</ele><time>2026-04-24T14:23:13.001Z</time></trkpt><trkpt lat="43.792361380621585" lon="7.561765673934001"><ele>39.33333333333333</ele><time>2026-04-24T14:23:14.001Z</time></trkpt><trkpt lat="43.792440522362774" lon="7.5618123350065884"><ele>41.0</ele><time>2026-04-24T14:23:15.001Z</time></trkpt><trkpt lat="43.79251541743084" lon="7.561864859368854"><ele>41.0</ele><time>2026-04-24T14:23:16.001Z</time></trkpt><trkpt lat="43.792589010360686" lon="7.561931648721553"><ele>41.0</ele><time>2026-04-24T14:23:17.001Z</time></trkpt><trkpt lat="43.79265542262058" lon="7.562014050421587"><ele>41.0</ele><time>2026-04-24T14:23:18.001Z</time></trkpt><trkpt lat="43.792716560205264" lon="7.56211300967194"><ele>41.0</ele><time>2026-04-24T14:23:19.001Z</time></trkpt><trkpt lat="43.79276426040821" lon="7.562222740522092"><ele>41.0</ele><time>2026-04-24T14:23:20.001Z</time></trkpt><trkpt lat="43.792801776077894" lon="7.562338628121716"><ele>41.0</ele><time>2026-04-24T14:23:21.001Z</time></trkpt><trkpt lat="43.792832616362205" lon="7.5624665196240795"><ele>41.0</ele><time>2026-04-24T14:23:22.001Z</time></trkpt><trkpt lat="43.79285726774699" lon="7.562587489698083"><ele>41.0</ele><time>2026-04-24T14:23:23.001Z</time></trkpt><trkpt lat="43.79288640298351" lon="7.562709431048175"><ele>41.0</ele><time>2026-04-24T14:23:24.001Z</time></trkpt><trkpt lat="43.79292229842635" lon="7.562819865053843"><ele>41.0</ele><time>2026-04-24T14:23:25.001Z</time></trkpt><trkpt lat="43.79296861000201" lon="7.562916014690819"><ele>38.166666666666664</ele><time>2026-04-24T14:23:26.001Z</time></trkpt><trkpt lat="43.793023331257444" lon="7.563000913485137"><ele>35.33333333333333</ele><time>2026-04-24T14:23:27.001Z</time></trkpt><trkpt lat="43.793092062833985" lon="7.563079873645017"><ele>32.5</ele><time>2026-04-24T14:23:28.001Z</time></trkpt><trkpt lat="43.79316762033382" lon="7.5631380340375305"><ele>29.666666666666664</ele><time>2026-04-24T14:23:29.001Z</time></trkpt><trkpt lat="43.79325073753894" lon="7.563176026012407"><ele>26.833333333333332</ele><time>2026-04-24T14:23:30.001Z</time></trkpt><trkpt lat="43.7933332884388" lon="7.5632012840244505"><ele>24.0</ele><time>2026-04-24T14:23:31.001Z</time></trkpt><trkpt lat="43.79341464512036" lon="7.563210561764236"><ele>24.0</ele><time>2026-04-24T14:23:32.001Z</time></trkpt><trkpt lat="43.79350392960425" lon="7.563213376249205"><ele>24.0</ele><time>2026-04-24T14:23:33.001Z</time></trkpt><trkpt lat="43.79358418936533" lon="7.563207026295796"><ele>24.0</ele><time>2026-04-24T14:23:34.001Z</time></trkpt><trkpt lat="43.79366168678221" lon="7.563217687839228"><ele>24.0</ele><time>2026-04-24T14:23:35.001Z</time></trkpt><trkpt lat="43.79373326439645" lon="7.563192058430652"><ele>24.0</ele><time>2026-04-24T14:23:36.001Z</time></trkpt><trkpt lat="43.79380306120396" lon="7.563183231218333"><ele>24.0</ele><time>2026-04-24T14:23:37.001Z</time></trkpt><trkpt lat="43.79387735988072" lon="7.5631741317743515"><ele>23.833333333333332</ele><time>2026-04-24T14:23:38.001Z</time></trkpt><trkpt lat="43.79395239244753" lon="7.5631657032472575"><ele>23.666666666666668</ele><time>2026-04-24T14:23:39.001Z</time></trkpt><trkpt lat="43.79402626386189" lon="7.563159811447058"><ele>23.5</ele><time>2026-04-24T14:23:40.001Z</time></trkpt><trkpt lat="43.794101387238115" lon="7.5631504969528764"><ele>23.333333333333336</ele><time>2026-04-24T14:23:41.001Z</time></trkpt><trkpt lat="43.7941716495337" lon="7.563173879197457"><ele>23.166666666666668</ele><time>2026-04-24T14:23:42.001Z</time></trkpt><trkpt lat="43.79427464193735" lon="7.563159332807589"><ele>23.0</ele><time>2026-04-24T14:23:44.001Z</time></trkpt><trkpt lat="43.794350711204096" lon="7.563188430655404"><ele>23.0</ele><time>2026-04-24T14:23:46.001Z</time></trkpt><trkpt lat="43.794414689930136" lon="7.563198156099586"><ele>23.0</ele><time>2026-04-24T14:23:50.001Z</time></trkpt></trkseg></trk></gpx>